ftp/pub/palmer/observations_modified/2019/September/original_files/AR190922_BASE.txt
Download
Sample DateTime Unit Id WS Avg 2min WD Avg 2min WGS 10min WGD 10min Air Temp Rel Humidity Dew Point Pyranometer Quantum Air Pressure Snow Level Rainfall PW Current Visibility CBase 1 CBase 2 CBase 3 Vert Vis
2019/09/22 00:00:00 BASE 6.99 352 9.21 289 -14.0 99 -14.1 0 0 982.8 NA 0.0000 9999 300 1020 0 0
2019/09/22 00:01:00 BASE 7.47 355 9.21 289 -14.0 99 -14.1 0 0 982.8 NA 0.0000 9999 330 0 0 0
2019/09/22 00:02:00 BASE 6.93 3 9.21 289 -13.9 99 -14.0 0 0 982.8 NA 0.0000 9999 390 0 0 0
2019/09/22 00:03:00 BASE 6.32 1 9.21 289 -13.8 100 -13.9 0 0 982.8 NA 0.0000 9999 260 0 0 0
2019/09/22 00:04:00 BASE 5.72 357 9.21 289 -13.8 100 -13.8 0 0 982.8 NA 0.0000 9999 0 0 0 1310
2019/09/22 00:05:00 BASE 5.35 358 9.21 289 -13.7 100 -13.7 0 0 982.8 NA 0.0000 9999 0 0 0 1280
2019/09/22 00:06:00 BASE 5.48 1 9.21 289 -13.7 100 -13.7 0 0 982.8 NA 0.0000 9999 0 0 0 1280
2019/09/22 00:07:00 BASE 5.61 3 9.21 289 -13.8 100 -13.8 0 0 982.8 NA 0.0000 9999 330 0 0 0
2019/09/22 00:08:00 BASE 5.61 357 9.21 289 -13.9 100 -13.9 0 0 982.8 NA 0.0000 9999 330 0 0 0
2019/09/22 00:09:00 BASE 5.62 350 9.21 289 -13.9 100 -13.9 0 0 982.8 NA 0.0000 9999 300 950 0 0
2019/09/22 00:10:00 BASE 6.25 354 8.49 2 -13.9 100 -13.9 0 0 982.7 NA 0.0000 9999 360 0 0 0
2019/09/22 00:11:00 BASE 6.93 359 7.41 4 -13.9 100 -13.9 0 0 982.7 NA 0.0000 9999 360 0 0 0
2019/09/22 00:12:00 BASE 6.87 359 7.51 3 -14.0 100 -14.0 0 0 982.7 NA 0.0000 9999 330 0 0 0
2019/09/22 00:13:00 BASE 6.34 356 7.51 3 -14.0 100 -14.0 0 0 982.8 NA 0.0000 9999 330 0 0 0
2019/09/22 00:14:00 BASE 5.40 350 7.51 3 -14.0 100 -14.0 0 0 982.8 NA 0.0000 9999 360 0 0 0
2019/09/22 00:15:00 BASE 5.24 349 7.51 3 -14.1 100 -14.1 0 0 982.7 NA 0.0000 9999 950 0 0 0
2019/09/22 00:16:00 BASE 5.69 353 7.51 3 -14.1 100 -14.1 0 0 982.7 NA 0.0000 9999 890 0 0 0
2019/09/22 00:17:00 BASE 5.96 2 7.51 3 -14.2 100 -14.2 0 0 982.7 NA 0.0000 9999 890 0 0 0
2019/09/22 00:18:00 BASE 6.37 8 7.51 3 -14.2 99 -14.3 0 0 982.7 NA 0.0000 9999 850 0 0 0
2019/09/22 00:19:00 BASE 6.32 4 7.51 3 -14.4 99 -14.5 0 0 982.7 NA 0.0000 9999 390 0 0 0
2019/09/22 00:20:00 BASE 5.81 2 7.51 3 -14.5 99 -14.6 0 0 982.7 NA 0.0000 9999 620 0 0 0
2019/09/22 00:21:00 BASE 5.84 1 7.51 3 -14.6 99 -14.7 0 0 982.7 NA 0.0000 9999 890 0 0 0
2019/09/22 00:22:00 BASE 6.08 359 7.15 11 -14.6 99 -14.7 0 0 982.7 NA 0.0000 9999 390 0 0 0
2019/09/22 00:23:00 BASE 6.02 358 7.15 11 -14.6 99 -14.7 0 0 982.7 NA 0.0000 9999 330 0 0 0
2019/09/22 00:24:00 BASE 5.73 1 7.15 11 -14.5 99 -14.6 0 0 982.7 NA 0.0000 9999 390 850 0 0
2019/09/22 00:25:00 BASE 5.48 1 7.15 11 -14.4 99 -14.5 0 0 982.7 NA 0.0000 9999 330 0 0 0
2019/09/22 00:26:00 BASE 5.89 356 7.15 11 -14.3 100 -14.4 0 0 982.7 NA 0.0000 9999 0 0 0 1350
2019/09/22 00:27:00 BASE 6.21 354 7.15 11 -14.2 100 -14.3 0 0 982.7 NA 0.0000 9999 0 0 0 1210
2019/09/22 00:28:00 BASE 6.03 356 6.74 360 -14.2 100 -14.2 0 0 982.7 NA 0.0000 9999 0 0 0 1210
2019/09/22 00:29:00 BASE 6.06 359 6.74 360 -14.2 100 -14.2 0 0 982.7 NA 0.0000 9999 300 0 0 0
2019/09/22 00:30:00 BASE 6.14 354 6.74 360 -14.2 100 -14.2 0 0 982.6 NA 0.0000 9999 390 0 0 0
2019/09/22 00:31:00 BASE 6.13 356 6.79 4 -14.2 99 -14.2 0 0 982.6 NA 0.0000 9999 300 920 0 0
2019/09/22 00:32:00 BASE 5.95 1 6.79 4 -14.1 99 -14.2 0 0 982.6 NA 0.0000 9999 330 820 0 0
2019/09/22 00:33:00 BASE 5.63 2 6.79 4 -14.2 99 -14.3 0 0 982.6 NA 0.0000 9999 820 0 0 0
2019/09/22 00:34:00 BASE 5.37 1 6.79 4 -14.2 99 -14.4 0 0 982.7 NA 0.0000 9999 850 0 0 0
2019/09/22 00:35:00 BASE 5.17 359 6.79 4 -14.2 99 -14.3 0 0 982.7 NA 0.0000 9999 980 0 0 0
2019/09/22 00:36:00 BASE 5.18 0 6.79 4 -14.2 99 -14.4 0 0 982.7 NA 0.0000 9999 980 0 0 0
2019/09/22 00:37:00 BASE 5.81 3 6.84 353 -14.3 99 -14.4 0 0 982.7 NA 0.0000 9999 950 0 0 0
2019/09/22 00:38:00 BASE 6.15 5 6.84 353 -14.3 99 -14.4 0 0 982.7 NA 0.0000 9999 980 0 0 0
2019/09/22 00:39:00 BASE 5.83 10 6.84 353 -14.3 99 -14.4 0 0 982.7 NA 0.0000 9999 1020 0 0 0
2019/09/22 00:40:00 BASE 5.68 11 6.84 353 -14.4 99 -14.5 0 0 982.6 NA 0.0000 9999 890 0 0 0
2019/09/22 00:41:00 BASE 5.44 9 6.84 353 -14.4 98 -14.6 0 0 982.6 NA 0.0000 9999 890 0 0 0
2019/09/22 00:42:00 BASE 5.19 9 6.84 353 -14.5 98 -14.7 0 0 982.6 NA 0.0000 9999 920 0 0 0
2019/09/22 00:43:00 BASE 5.16 7 6.84 353 -14.5 98 -14.7 0 0 982.6 NA 0.0000 9999 980 0 0 0
2019/09/22 00:44:00 BASE 5.26 4 6.84 353 -14.5 98 -14.8 0 0 982.6 NA 0.0000 9999 950 0 0 0
2019/09/22 00:45:00 BASE 5.28 2 6.84 353 -14.5 98 -14.7 0 0 982.6 NA 0.0000 9999 390 0 0 0
2019/09/22 00:46:00 BASE 5.43 1 6.84 353 -14.5 98 -14.7 0 0 982.6 NA 0.0000 9999 430 980 0 0
2019/09/22 00:47:00 BASE 5.78 3 6.43 5 -14.5 98 -14.8 0 0 982.7 NA 0.0000 9999 950 0 0 0
2019/09/22 00:48:00 BASE 5.81 357 6.43 5 -14.6 98 -14.8 0 0 982.7 NA 0.0000 9999 490 0 0 0
2019/09/22 00:49:00 BASE 5.78 351 6.43 5 -14.6 98 -14.9 0 0 982.7 NA 0.0000 9999 360 1020 0 0
2019/09/22 00:50:00 BASE 5.85 349 6.43 5 -14.6 98 -14.9 0 0 982.8 NA 0.0000 9999 330 0 0 0
2019/09/22 00:51:00 BASE 5.47 345 6.43 5 -14.7 98 -14.9 0 0 982.8 NA 0.0000 9999 950 0 0 0
2019/09/22 00:52:00 BASE 5.21 341 6.43 5 -14.7 98 -14.9 0 0 982.8 NA 0.0000 9999 980 0 0 0
2019/09/22 00:53:00 BASE 5.36 337 6.43 5 -14.7 98 -14.9 0 0 982.8 NA 0.0000 9999 980 0 0 0
2019/09/22 00:54:00 BASE 5.60 335 6.43 5 -14.7 98 -15.0 0 0 982.7 NA 0.0000 9999 1020 0 0 0
2019/09/22 00:55:00 BASE 5.77 334 6.43 5 -14.7 98 -15.0 0 0 982.7 NA 0.0000 9999 980 0 0 0
2019/09/22 00:56:00 BASE 5.78 335 6.43 5 -14.8 98 -15.0 0 0 982.7 NA 0.0000 9999 980 0 0 0
2019/09/22 00:57:00 BASE 6.08 339 6.48 340 -14.8 98 -15.1 0 0 982.7 NA 0.0000 9999 950 0 0 0
2019/09/22 00:58:00 BASE 6.22 341 6.48 340 -14.9 98 -15.1 0 0 982.7 NA 0.0000 9999 1020 0 0 0
2019/09/22 00:59:00 BASE 6.02 343 6.48 340 -14.9 98 -15.2 0 0 982.7 NA 0.0000 9999 950 0 0 0
2019/09/22 01:00:00 BASE 5.77 347 6.48 340 -14.9 98 -15.2 0 0 982.7 NA 0.0000 9999 950 0 0 0
2019/09/22 01:01:00 BASE 5.53 350 6.48 340 -15.0 98 -15.2 0 0 982.7 NA 0.0000 9999 920 0 0 0
2019/09/22 01:02:00 BASE 5.27 352 6.48 340 -14.9 98 -15.2 0 0 982.7 NA 0.0000 9999 890 0 0 0
2019/09/22 01:03:00 BASE 4.70 354 6.48 340 -14.9 98 -15.1 0 0 982.7 NA 0.0000 9999 980 0 0 0
2019/09/22 01:04:00 BASE 4.25 357 6.48 340 -14.9 98 -15.1 0 0 982.7 NA 0.0000 9999 920 0 0 0
2019/09/22 01:05:00 BASE 4.28 357 6.48 340 -14.8 98 -15.1 0 0 982.7 NA 0.0000 9999 980 0 0 0
2019/09/22 01:06:00 BASE 4.61 359 6.48 340 -14.8 98 -15.1 0 0 982.7 NA 0.0000 9999 950 0 0 0
2019/09/22 01:07:00 BASE 4.79 2 6.38 343 -14.8 98 -15.1 0 0 982.7 NA 0.0000 9999 980 0 0 0
2019/09/22 01:08:00 BASE 4.77 357 6.17 344 -14.8 98 -15.0 0 0 982.7 NA 0.0000 9999 950 0 0 0
2019/09/22 01:09:00 BASE 4.95 350 5.66 352 -14.8 98 -15.0 0 0 982.7 NA 0.0000 9999 890 0 0 0
2019/09/22 01:10:00 BASE 4.87 346 5.66 352 -14.7 98 -15.0 0 0 982.7 NA 0.0000 9999 850 0 0 0
2019/09/22 01:11:00 BASE 4.85 347 5.40 360 -14.7 98 -15.0 0 0 982.7 NA 0.0000 9999 950 0 0 0
2019/09/22 01:12:00 BASE 5.33 355 5.92 3 -14.7 98 -15.0 0 0 982.6 NA 0.0000 9999 890 0 0 0
2019/09/22 01:13:00 BASE 5.44 1 5.92 3 -14.8 98 -15.0 0 0 982.6 NA 0.0000 9999 850 0 0 0
2019/09/22 01:14:00 BASE 5.03 360 5.92 3 -14.8 98 -15.0 0 0 982.6 NA 0.0000 9999 890 0 0 0
2019/09/22 01:15:00 BASE 4.68 359 5.92 3 -14.8 98 -15.0 0 0 982.6 NA 0.0000 9999 950 0 0 0
2019/09/22 01:16:00 BASE 4.74 357 5.92 3 -14.7 98 -15.0 0 0 982.6 NA 0.0000 9999 920 0 0 0
2019/09/22 01:17:00 BASE 4.86 356 5.92 3 -14.7 98 -14.9 0 0 982.6 NA 0.0000 9999 890 0 0 0
2019/09/22 01:18:00 BASE 4.88 360 5.92 3 -14.6 98 -14.9 0 0 982.6 NA 0.0000 9999 920 0 0 0
2019/09/22 01:19:00 BASE 4.86 3 5.92 3 -14.6 98 -14.8 0 0 982.6 NA 0.0000 9999 850 0 0 0
2019/09/22 01:20:00 BASE 4.77 4 5.92 3 -14.7 98 -14.9 0 0 982.6 NA 0.0000 9999 890 0 0 0
2019/09/22 01:21:00 BASE 4.33 7 5.92 3 -14.7 98 -14.9 0 0 982.6 NA 0.0000 9999 950 0 0 0
2019/09/22 01:22:00 BASE 4.05 8 5.56 2 -14.7 98 -14.9 0 0 982.6 NA 0.0000 9999 890 0 0 0
2019/09/22 01:23:00 BASE 4.26 5 5.45 360 -14.7 98 -14.9 0 0 982.6 NA 0.0000 9999 850 0 0 0
2019/09/22 01:24:00 BASE 4.36 7 5.45 360 -14.7 98 -14.9 0 0 982.5 NA 0.0000 9999 890 0 0 0
2019/09/22 01:25:00 BASE 3.98 12 5.45 360 -14.7 98 -14.9 0 0 982.5 NA 0.0000 9999 820 0 0 0
2019/09/22 01:26:00 BASE 3.68 15 5.45 360 -14.7 98 -14.9 0 0 982.4 NA 0.0000 9999 850 0 0 0
2019/09/22 01:27:00 BASE 3.62 17 5.25 6 -14.7 98 -14.9 0 0 982.4 NA 0.0000 9999 820 0 0 0
2019/09/22 01:28:00 BASE 3.29 25 5.25 6 -14.7 98 -14.9 0 0 982.4 NA 0.0000 9999 890 0 0 0
2019/09/22 01:29:00 BASE 2.85 34 5.14 360 -14.6 99 -14.8 0 0 982.4 NA 0.0000 9999 850 0 0 0
2019/09/22 01:30:00 BASE 2.56 36 4.99 10 -14.5 99 -14.7 0 0 982.4 NA 0.0000 9999 920 0 0 0
2019/09/22 01:31:00 BASE 2.39 36 4.99 10 -14.4 99 -14.5 0 0 982.4 NA 0.0000 9999 920 0 0 0
2019/09/22 01:32:00 BASE 2.41 45 4.99 10 -14.3 99 -14.4 0 0 982.3 NA 0.0000 9999 920 0 0 0
2019/09/22 01:33:00 BASE 2.48 53 4.63 3 -14.2 99 -14.3 0 0 982.3 NA 0.0000 9999 890 0 0 0
2019/09/22 01:34:00 BASE 2.31 56 4.17 11 -14.1 99 -14.3 0 0 982.3 NA 0.0000 9999 920 0 0 0
2019/09/22 01:35:00 BASE 2.29 62 4.12 13 -14.1 99 -14.2 0 0 982.3 NA 0.0000 9999 920 0 0 0
2019/09/22 01:36:00 BASE 2.53 55 3.86 12 -14.1 99 -14.2 0 0 982.3 NA 0.0000 9999 920 0 0 0
2019/09/22 01:37:00 BASE 2.80 52 3.45 29 -14.1 99 -14.2 0 0 982.2 NA 0.0000 9999 950 0 0 0
2019/09/22 01:38:00 BASE 3.08 53 3.45 45 -14.1 99 -14.2 0 0 982.3 NA 0.0000 9999 920 0 0 0
2019/09/22 01:39:00 BASE 3.22 46 3.50 39 -14.1 99 -14.3 0 0 982.3 NA 0.0000 9999 920 0 0 0
2019/09/22 01:40:00 BASE 2.93 42 3.50 39 -14.2 99 -14.3 0 0 982.3 NA 0.0000 9999 890 0 0 0
2019/09/22 01:41:00 BASE 2.82 36 3.50 39 -14.3 99 -14.4 0 0 982.3 NA 0.0000 9999 950 0 0 0
2019/09/22 01:42:00 BASE 2.84 29 3.50 39 -14.4 99 -14.5 0 0 982.3 NA 0.0000 9999 890 0 0 0
2019/09/22 01:43:00 BASE 2.74 31 3.50 39 -14.4 99 -14.6 0 0 982.3 NA 0.0000 9999 920 0 0 0
2019/09/22 01:44:00 BASE 2.66 39 3.50 39 -14.5 99 -14.6 0 0 982.3 NA 0.0000 9999 890 0 0 0
2019/09/22 01:45:00 BASE 2.45 52 3.50 39 -14.6 99 -14.7 0 0 982.3 NA 0.0000 9999 820 0 0 0
2019/09/22 01:46:00 BASE 2.46 59 3.50 39 -14.6 99 -14.7 0 0 982.3 NA 0.0000 9999 850 0 0 0
2019/09/22 01:47:00 BASE 2.47 53 3.50 39 -14.6 99 -14.7 0 0 982.3 NA 0.0000 9999 850 0 0 0
2019/09/22 01:48:00 BASE 2.27 48 3.50 39 -14.6 99 -14.7 0 0 982.3 NA 0.0000 9999 920 0 0 0
2019/09/22 01:49:00 BASE 2.20 46 3.24 33 -14.5 99 -14.6 0 0 982.3 NA 0.0000 9999 890 0 0 0
2019/09/22 01:50:00 BASE 2.17 50 3.24 33 -14.4 99 -14.6 0 0 982.2 NA 0.0000 9999 890 0 0 0
2019/09/22 01:51:00 BASE 2.21 58 3.19 40 -14.4 99 -14.5 0 0 982.2 NA 0.0000 9999 890 0 0 0
2019/09/22 01:52:00 BASE 2.27 61 3.19 40 -14.4 99 -14.5 0 0 982.3 NA 0.0000 9999 920 0 0 0
2019/09/22 01:53:00 BASE 2.31 59 3.09 43 -14.3 99 -14.5 0 0 982.3 NA 0.0000 9999 920 0 0 0
2019/09/22 01:54:00 BASE 2.39 53 2.83 66 -14.3 99 -14.4 0 0 982.3 NA 0.0000 9999 920 0 0 0
2019/09/22 01:55:00 BASE 2.35 47 2.83 66 -14.3 99 -14.3 0 0 982.3 NA 0.0000 9999 920 0 0 0
2019/09/22 01:56:00 BASE 2.22 48 2.78 45 -14.2 100 -14.3 0 0 982.3 NA 0.0000 9999 950 0 0 0
2019/09/22 01:57:00 BASE 2.12 50 2.78 45 -14.2 100 -14.2 0 0 982.3 NA 0.0000 9999 920 0 0 0
2019/09/22 01:58:00 BASE 2.19 56 2.78 45 -14.1 100 -14.1 0 0 982.3 NA 0.0000 9999 890 0 0 0
2019/09/22 01:59:00 BASE 2.06 59 2.78 45 -14.1 100 -14.1 0 0 982.2 NA 0.0000 9999 920 0 0 0
2019/09/22 02:00:00 BASE 1.91 54 2.78 45 -14.1 100 -14.1 0 0 982.2 NA 0.0000 9999 920 0 0 0
2019/09/22 02:01:00 BASE 2.03 56 2.78 45 -14.1 100 -14.1 0 0 982.2 NA 0.0000 9999 920 0 0 0
2019/09/22 02:02:00 BASE 2.08 64 2.78 45 -14.1 100 -14.1 0 0 982.2 NA 0.0000 9999 850 0 0 0
2019/09/22 02:03:00 BASE 2.23 66 2.83 72 -14.1 100 -14.1 0 0 982.2 NA 0.0000 9999 920 0 0 0
2019/09/22 02:04:00 BASE 2.31 58 2.83 72 -14.0 100 -14.0 0 0 982.2 NA 0.0000 9999 920 0 0 0
2019/09/22 02:05:00 BASE 2.15 52 2.83 72 -14.0 100 -14.0 0 0 982.2 NA 0.0000 9999 920 0 0 0
2019/09/22 02:06:00 BASE 2.04 56 2.83 72 -13.9 100 -13.9 0 0 982.2 NA 0.0000 9999 890 0 0 0
2019/09/22 02:07:00 BASE 2.22 63 2.83 72 -13.9 100 -13.9 0 0 982.2 NA 0.0000 9999 890 0 0 0
2019/09/22 02:08:00 BASE 2.52 67 2.98 72 -13.8 100 -13.8 0 0 982.2 NA 0.0000 9999 980 0 0 0
2019/09/22 02:09:00 BASE 2.66 67 3.09 73 -13.8 100 -13.8 0 0 982.2 NA 0.0000 9999 0 0 0 0
2019/09/22 02:10:00 BASE 2.64 63 3.09 73 -13.8 100 -13.8 0 0 982.2 NA 0.0000 9999 1050 0 0 0
2019/09/22 02:11:00 BASE 2.54 60 3.09 73 -13.8 100 -13.8 0 0 982.2 NA 0.0000 9999 0 0 0 0
2019/09/22 02:12:00 BASE 2.50 59 3.09 73 -13.7 100 -13.7 0 0 982.2 NA 0.0000 9999 0 0 0 0
2019/09/22 02:13:00 BASE 2.48 60 3.09 73 -13.7 100 -13.7 0 0 982.2 NA 0.0000 9999 0 0 0 0
2019/09/22 02:14:00 BASE 2.65 61 3.09 73 -13.6 100 -13.6 0 0 982.2 NA 0.0000 9999 0 0 0 0
2019/09/22 02:15:00 BASE 2.98 65 3.34 73 -13.6 100 -13.6 0 0 982.1 NA 0.0000 9999 0 0 0 0
2019/09/22 02:16:00 BASE 3.28 67 3.70 68 -13.6 100 -13.6 0 0 982.1 NA 0.0000 9999 0 0 0 0
2019/09/22 02:17:00 BASE 3.56 68 4.01 70 -13.6 100 -13.6 0 0 982.1 NA 0.0000 9999 0 0 0 0
2019/09/22 02:18:00 BASE 3.87 68 4.32 65 -13.6 100 -13.6 0 0 982.1 NA 0.0000 9999 0 0 0 0
2019/09/22 02:19:00 BASE 3.87 70 4.32 73 -13.6 100 -13.6 0 0 982.0 NA 0.0000 9999 0 0 0 0
2019/09/22 02:20:00 BASE 3.76 71 4.32 73 -13.6 100 -13.6 0 0 982.0 NA 0.0000 9999 0 0 0 0
2019/09/22 02:21:00 BASE 3.88 71 4.42 72 -13.7 100 -13.7 0 0 982.1 NA 0.0000 9999 0 0 0 0
2019/09/22 02:22:00 BASE 4.18 74 4.68 77 -13.7 100 -13.7 0 0 982.1 NA 0.0000 9999 0 0 0 0
2019/09/22 02:23:00 BASE 4.53 75 4.94 74 -13.8 100 -13.8 0 0 982.1 NA 0.0000 9999 0 0 0 0
2019/09/22 02:24:00 BASE 4.73 75 5.20 80 -13.8 100 -13.8 0 0 982.0 NA 0.0000 9999 0 0 0 0
2019/09/22 02:25:00 BASE 4.95 77 5.35 85 -13.7 100 -13.7 0 0 982.0 NA 0.0000 9999 0 0 0 0
2019/09/22 02:26:00 BASE 5.06 80 5.35 79 -13.7 100 -13.7 0 0 982.0 NA 0.0000 9999 0 0 0 0
2019/09/22 02:27:00 BASE 5.04 81 5.35 79 -13.6 100 -13.6 0 0 982.0 NA 0.0000 9999 0 0 0 0
2019/09/22 02:28:00 BASE 5.19 81 6.02 83 -13.6 100 -13.6 0 0 981.9 NA 0.0000 9999 0 0 0 0
2019/09/22 02:29:00 BASE 5.49 82 6.02 79 -13.7 100 -13.7 0 0 981.9 NA 0.0000 9999 0 0 0 0
2019/09/22 02:30:00 BASE 5.88 87 6.48 90 -13.8 100 -13.8 0 0 981.8 NA 0.0000 9999 0 0 0 0
2019/09/22 02:31:00 BASE 6.28 91 6.69 93 -13.9 100 -13.9 0 0 981.8 NA 0.0000 9999 0 0 0 0
2019/09/22 02:32:00 BASE 6.62 92 6.94 93 -14.1 100 -14.1 0 0 981.8 NA 0.0000 9999 0 0 0 0
2019/09/22 02:33:00 BASE 6.88 94 7.31 96 -14.2 100 -14.2 0 0 981.7 NA 0.0000 9999 0 0 0 0
2019/09/22 02:34:00 BASE 7.00 97 7.31 96 -14.2 100 -14.2 0 0 981.7 NA 0.0000 9999 0 0 0 0
2019/09/22 02:35:00 BASE 6.87 98 7.31 96 -14.2 100 -14.2 0 0 981.7 NA 0.0000 9999 0 0 0 0
2019/09/22 02:36:00 BASE 6.29 99 7.31 96 -14.1 100 -14.1 0 0 981.7 NA 0.0000 9999 0 0 0 0
2019/09/22 02:37:00 BASE 4.95 100 7.31 96 -14.0 100 -14.0 0 0 981.7 NA 0.0000 9999 0 0 0 0
2019/09/22 02:38:00 BASE 3.34 106 7.31 96 -13.8 100 -13.8 0 0 981.7 NA 0.0000 9999 0 0 0 0
2019/09/22 02:39:00 BASE 2.29 100 7.31 96 -13.6 100 -13.6 0 0 981.7 NA 0.0000 9999 0 0 0 0
2019/09/22 02:40:00 BASE 3.24 86 7.31 96 -13.5 100 -13.5 0 0 981.7 NA 0.0000 9999 0 0 0 0
2019/09/22 02:41:00 BASE 4.06 87 7.31 96 -13.4 100 -13.4 0 0 981.6 NA 0.0000 9999 0 0 0 0
2019/09/22 02:42:00 BASE 3.36 94 7.31 96 -13.4 100 -13.4 0 0 981.6 NA 0.0000 9999 0 0 0 0
2019/09/22 02:43:00 BASE 2.76 100 7.25 97 -13.3 100 -13.3 0 0 981.6 NA 0.0000 9999 0 0 0 0
2019/09/22 02:44:00 BASE 1.95 92 7.10 98 -13.3 100 -13.3 0 0 981.6 NA 0.0000 9999 0 0 0 0
2019/09/22 02:45:00 BASE 1.57 86 6.48 99 -13.2 100 -13.2 0 0 981.6 NA 0.0000 9999 9120 0 0 0
2019/09/22 02:46:00 BASE 2.08 89 5.35 78 -13.2 100 -13.2 0 0 981.6 NA 0.0000 9999 9060 0 0 0
2019/09/22 02:47:00 BASE 2.61 86 5.35 78 -13.2 100 -13.2 0 0 981.6 NA 0.0000 9999 8990 0 0 0
2019/09/22 02:48:00 BASE 2.57 84 5.35 78 -13.3 100 -13.3 0 0 981.6 NA 0.0000 9999 9020 0 0 0
2019/09/22 02:49:00 BASE 2.43 91 5.35 78 -13.3 100 -13.3 0 0 981.6 NA 0.0000 9999 9090 0 0 0
2019/09/22 02:50:00 BASE 2.20 104 4.48 94 -13.3 100 -13.3 0 0 981.6 NA 0.0000 9999 9250 0 0 0
2019/09/22 02:51:00 BASE 1.55 110 3.91 101 -13.3 100 -13.3 0 0 981.6 NA 0.0000 9999 9190 0 0 0
2019/09/22 02:52:00 BASE 0.93 111 3.09 80 -13.3 100 -13.3 0 0 981.6 NA 0.0000 9999 9120 0 0 0
2019/09/22 02:53:00 BASE 0.38 119 3.09 80 -13.3 100 -13.3 0 0 981.6 NA 0.0000 9999 0 0 0 0
2019/09/22 02:54:00 BASE 0.00 126 3.09 80 -13.2 100 -13.2 0 0 981.6 NA 0.0000 9999 0 0 0 0
2019/09/22 02:55:00 BASE 0.00 138 3.09 80 -13.2 100 -13.2 0 0 981.6 NA 0.0000 9999 8200 0 0 0
2019/09/22 02:56:00 BASE 0.00 180 3.09 80 -13.1 100 -13.1 0 0 981.6 NA 0.0000 9999 0 0 0 0
2019/09/22 02:57:00 BASE 0.00 217 2.88 79 -13.0 100 -13.0 0 0 981.6 NA 0.0000 9999 0 0 0 0
2019/09/22 02:58:00 BASE 0.00 226 2.62 103 -12.9 100 -12.9 0 0 981.6 NA 0.0000 9999 0 0 0 0
2019/09/22 02:59:00 BASE 0.00 234 2.52 106 -12.9 100 -12.9 0 0 981.6 NA 0.0000 9999 0 0 0 0
2019/09/22 03:00:00 BASE 0.00 245 1.44 106 -13.0 100 -13.0 0 0 981.6 NA 0.0000 9999 9220 0 0 0
2019/09/22 03:01:00 BASE 0.00 253 1.44 106 -13.0 100 -13.0 0 0 981.6 NA 0.0000 9999 9510 0 0 0
2019/09/22 03:02:00 BASE 0.00 255 M M -13.0 100 -13.0 0 0 981.6 NA 0.0000 9999 9550 0 0 0
2019/09/22 03:03:00 BASE 0.00 255 M M -13.1 100 -13.1 0 0 981.6 NA 0.0000 9999 9450 0 0 0
2019/09/22 03:04:00 BASE 0.00 254 M M -13.1 100 -13.1 0 0 981.6 NA 0.0000 9999 9150 0 0 0
2019/09/22 03:05:00 BASE 0.00 253 M M -13.1 100 -13.1 0 0 981.6 NA 0.0000 9999 9220 0 0 0
2019/09/22 03:06:00 BASE 0.00 249 M M -13.1 100 -13.1 0 0 981.6 NA 0.0000 9999 9020 0 0 0
2019/09/22 03:07:00 BASE 0.00 245 M M -13.1 100 -13.1 0 0 981.6 NA 0.0000 9999 9060 0 0 0
2019/09/22 03:08:00 BASE 0.00 246 M M -13.1 100 -13.1 0 0 981.6 NA 0.0000 9999 9060 0 0 0
2019/09/22 03:09:00 BASE 0.00 251 M M -13.1 100 -13.1 0 0 981.6 NA 0.0000 9999 8960 0 0 0
2019/09/22 03:10:00 BASE 0.00 254 M M -13.1 100 -13.1 0 0 981.6 NA 0.0000 9999 8040 0 0 0
2019/09/22 03:11:00 BASE 0.00 257 M M -13.1 100 -13.1 0 0 981.6 NA 0.0000 9999 7970 0 0 0
2019/09/22 03:12:00 BASE 0.00 274 M M -13.1 100 -13.2 0 0 981.5 NA 0.0000 9999 8040 0 0 0
2019/09/22 03:13:00 BASE 0.00 297 M M -13.2 99 -13.2 0 0 981.5 NA 0.0000 9999 9970 0 0 0
2019/09/22 03:14:00 BASE 0.00 331 M M -13.2 99 -13.3 0 0 981.5 NA 0.0000 9999 10300 0 0 0
2019/09/22 03:15:00 BASE 0.00 2 M M -13.2 99 -13.4 0 0 981.5 NA 0.0000 9999 8100 0 0 0
2019/09/22 03:16:00 BASE 0.00 17 M M -13.3 99 -13.4 0 0 981.5 NA 0.0000 9999 8100 0 0 0
2019/09/22 03:17:00 BASE 0.00 24 M M -13.2 99 -13.4 0 0 981.5 NA 0.0000 9999 8170 0 0 0
2019/09/22 03:18:00 BASE 0.00 25 M M -13.2 99 -13.3 0 0 981.4 NA 0.0000 9999 8170 0 0 0
2019/09/22 03:19:00 BASE 0.00 25 M M -13.1 99 -13.3 0 0 981.4 NA 0.0000 9999 11160 0 0 0
2019/09/22 03:20:00 BASE 0.00 29 M M -13.1 99 -13.2 0 0 981.4 NA 0.0000 9999 11160 0 0 0
2019/09/22 03:21:00 BASE 0.47 42 1.49 56 -13.0 99 -13.2 0 0 981.4 NA 0.0000 9999 11120 0 0 0
2019/09/22 03:22:00 BASE 1.34 55 1.95 62 -13.0 99 -13.1 0 0 981.4 NA 0.0000 9999 10990 0 0 0
2019/09/22 03:23:00 BASE 1.86 63 2.21 67 -13.0 99 -13.2 0 0 981.4 NA 0.0000 9999 10630 0 0 0
2019/09/22 03:24:00 BASE 1.95 69 2.21 67 -13.1 99 -13.2 0 0 981.3 NA 0.0000 9999 10470 0 0 0
2019/09/22 03:25:00 BASE 1.97 73 2.26 76 -13.1 99 -13.2 0 0 981.3 NA 0.0000 9999 10500 0 0 0
2019/09/22 03:26:00 BASE 1.91 75 2.26 76 -13.1 99 -13.3 0 0 981.2 NA 0.0000 9999 10430 0 0 0
2019/09/22 03:27:00 BASE 1.72 73 2.26 76 -13.1 99 -13.3 0 0 981.2 NA 0.0000 9999 10430 0 0 0
2019/09/22 03:28:00 BASE 1.41 72 2.26 76 -13.1 99 -13.2 0 0 981.2 NA 0.0000 9999 10560 0 0 0
2019/09/22 03:29:00 BASE 1.22 67 2.26 76 -13.1 99 -13.2 0 0 981.2 NA 0.0000 9999 10600 0 0 0
2019/09/22 03:30:00 BASE 1.16 61 2.26 76 -13.1 99 -13.2 0 0 981.2 NA 0.0000 9999 10700 0 0 0
2019/09/22 03:31:00 BASE 0.82 59 2.26 76 -13.0 99 -13.2 0 0 981.2 NA 0.0000 9999 8170 0 0 0
2019/09/22 03:32:00 BASE 0.87 58 2.26 76 -13.0 98 -13.2 0 0 981.2 NA 0.0000 9999 11320 0 0 0
2019/09/22 03:33:00 BASE 1.20 57 2.26 76 -13.0 98 -13.2 0 0 981.2 NA 0.0000 9999 8140 0 0 0
2019/09/22 03:34:00 BASE 1.30 51 2.26 76 -13.0 98 -13.2 0 0 981.2 NA 0.0000 9999 8100 0 0 0
2019/09/22 03:35:00 BASE 1.38 43 2.11 76 -13.0 98 -13.2 0 0 981.2 NA 0.0000 9999 8010 0 0 0
2019/09/22 03:36:00 BASE 1.39 41 1.90 78 -13.0 98 -13.3 0 0 981.1 NA 0.0000 9999 11320 0 0 0
2019/09/22 03:37:00 BASE 1.35 42 1.65 74 -12.9 97 -13.3 0 0 981.1 NA 0.0000 9999 11710 0 0 0
2019/09/22 03:38:00 BASE 1.26 41 1.54 46 -12.9 97 -13.3 0 0 981.0 NA 0.0000 9999 11780 0 0 0
2019/09/22 03:39:00 BASE 1.22 43 1.54 46 -12.9 97 -13.3 0 0 981.0 NA 0.0000 9999 11710 0 0 0
2019/09/22 03:40:00 BASE 1.28 44 1.54 46 -12.9 97 -13.3 0 0 981.0 NA 0.0000 9999 11680 0 0 0
2019/09/22 03:41:00 BASE 1.30 48 1.54 46 -12.9 97 -13.3 0 0 981.0 NA 0.0000 9999 11610 0 0 0
2019/09/22 03:42:00 BASE 1.26 51 1.54 46 -12.8 96 -13.3 0 0 980.9 NA 0.0000 9999 8010 0 0 0
2019/09/22 03:43:00 BASE 1.20 52 1.54 46 -12.8 96 -13.3 0 0 980.9 NA 0.0000 9999 11550 0 0 0
2019/09/22 03:44:00 BASE 0.90 53 1.54 46 -12.8 96 -13.3 0 0 980.9 NA 0.0000 9999 8140 0 0 0
2019/09/22 03:45:00 BASE 0.31 53 1.54 46 -12.8 96 -13.3 0 0 980.9 NA 0.0000 9999 11450 0 0 0
2019/09/22 03:46:00 BASE 0.00 53 1.54 46 -12.7 96 -13.3 0 0 980.8 NA 0.0000 9999 7910 0 0 0
2019/09/22 03:47:00 BASE 0.00 54 1.39 51 -12.7 95 -13.3 0 0 980.8 NA 0.0000 9999 7810 0 0 0
2019/09/22 03:48:00 BASE 0.00 58 1.39 51 -12.7 95 -13.3 0 0 980.8 NA 0.0000 9999 7780 0 0 0
2019/09/22 03:49:00 BASE 0.00 65 1.39 51 -12.7 95 -13.3 0 0 980.8 NA 0.0000 9999 7680 0 0 0
2019/09/22 03:50:00 BASE 0.00 70 1.39 51 -12.7 95 -13.3 0 0 980.7 NA 0.0000 9999 7640 8530 0 0
2019/09/22 03:51:00 BASE 0.00 70 1.29 53 -12.7 95 -13.3 0 0 980.7 NA 0.0000 9999 7680 0 0 0
2019/09/22 03:52:00 BASE 0.00 68 1.29 53 -12.7 95 -13.4 0 0 980.7 NA 0.0000 9999 10530 0 0 0
2019/09/22 03:53:00 BASE 0.04 61 1.13 53 -12.7 95 -13.4 0 0 980.7 NA 0.0000 9999 7420 0 0 0
2019/09/22 03:54:00 BASE 0.04 56 1.03 57 -12.7 94 -13.4 0 0 980.7 NA 0.0000 9999 10340 0 0 0
2019/09/22 03:55:00 BASE 0.00 54 1.03 57 -12.7 94 -13.4 0 0 980.7 NA 0.0000 9999 10530 0 0 0
2019/09/22 03:56:00 BASE 0.00 54 1.03 57 -12.7 94 -13.4 0 0 980.7 NA 0.0000 9999 10500 0 0 0
2019/09/22 03:57:00 BASE 0.00 54 1.03 57 -12.6 94 -13.4 0 0 980.7 NA 0.0000 9999 7680 0 0 0
2019/09/22 03:58:00 BASE 0.00 55 1.03 57 -12.6 94 -13.4 0 0 980.6 NA 0.0000 9999 7510 0 0 0
2019/09/22 03:59:00 BASE 0.00 70 1.03 57 -12.6 94 -13.4 0 0 980.6 NA 0.0000 9999 7350 0 0 0
2019/09/22 04:00:00 BASE 0.00 97 1.03 57 -12.6 94 -13.4 0 0 980.6 NA 0.0000 9999 6990 0 0 0
2019/09/22 04:01:00 BASE 0.52 110 1.44 112 -12.6 94 -13.4 0 0 980.5 NA 0.0000 9999 7050 0 0 0
2019/09/22 04:02:00 BASE 1.31 111 1.85 109 -12.6 94 -13.4 0 0 980.4 NA 0.0000 9999 6860 0 0 0
2019/09/22 04:03:00 BASE 1.58 110 1.85 109 -12.7 94 -13.4 0 0 980.4 NA 0.0000 9999 6960 0 0 0
2019/09/22 04:04:00 BASE 1.47 118 1.85 109 -12.7 94 -13.5 0 0 980.4 NA 0.0000 9999 7190 0 0 0
2019/09/22 04:05:00 BASE 1.35 132 1.85 109 -12.8 94 -13.6 0 0 980.4 NA 0.0000 9999 7090 0 0 0
2019/09/22 04:06:00 BASE 1.33 140 1.85 109 -12.9 93 -13.7 0 0 980.4 NA 0.0000 9999 7150 0 0 0
2019/09/22 04:07:00 BASE 1.03 143 1.85 109 -13.0 93 -13.8 0 0 980.4 NA 0.0000 9999 7020 0 0 0
2019/09/22 04:08:00 BASE 0.36 140 1.85 109 -13.0 93 -13.9 0 0 980.4 NA 0.0000 9999 7450 0 0 0
2019/09/22 04:09:00 BASE 0.20 133 1.85 109 -13.0 93 -13.9 0 0 980.4 NA 0.0000 9999 7220 7870 0 0
2019/09/22 04:10:00 BASE 0.85 128 1.85 109 -13.0 93 -13.8 0 0 980.3 NA 0.0000 9999 7120 0 0 0
2019/09/22 04:11:00 BASE 1.39 130 1.85 109 -12.9 94 -13.7 0 0 980.3 NA 0.0000 9999 7090 7840 0 0
2019/09/22 04:12:00 BASE 1.59 133 1.95 129 -12.8 94 -13.6 0 0 980.3 NA 0.0000 9999 7120 7940 0 0
2019/09/22 04:13:00 BASE 1.86 131 2.06 129 -12.8 94 -13.5 0 0 980.2 NA 0.0000 9999 7190 0 0 0
2019/09/22 04:14:00 BASE 1.97 131 2.11 132 -12.7 94 -13.5 0 0 980.2 NA 0.0000 9999 7020 0 0 0
2019/09/22 04:15:00 BASE 1.77 132 2.11 132 -12.7 94 -13.5 0 0 980.2 NA 0.0000 9999 6990 0 0 0
2019/09/22 04:16:00 BASE 1.80 131 2.11 127 -12.7 94 -13.5 0 0 980.2 NA 0.0000 9999 6860 0 0 0
2019/09/22 04:17:00 BASE 2.08 128 2.37 126 -12.7 94 -13.5 0 0 980.1 NA 0.0000 9999 6760 0 0 0
2019/09/22 04:18:00 BASE 2.20 128 2.37 126 -12.8 94 -13.5 0 0 980.1 NA 0.0000 9999 8630 0 0 0
2019/09/22 04:19:00 BASE 2.24 131 2.47 133 -12.8 94 -13.5 0 0 980.1 NA 0.0000 9999 6660 0 0 0
2019/09/22 04:20:00 BASE 2.45 133 2.83 135 -12.8 94 -13.6 0 0 980.1 NA 0.0000 9999 6170 0 0 0
2019/09/22 04:21:00 BASE 2.62 134 2.83 135 -12.8 94 -13.5 0 0 980.0 NA 0.0000 9999 6270 0 0 0
2019/09/22 04:22:00 BASE 2.29 135 2.83 135 -12.8 94 -13.5 0 0 979.9 NA 0.0000 9999 6300 0 0 0
2019/09/22 04:23:00 BASE 1.94 137 2.83 135 -12.8 94 -13.5 0 0 979.9 NA 0.0000 9999 6230 0 0 0
2019/09/22 04:24:00 BASE 1.78 140 2.83 135 -12.7 94 -13.5 0 0 979.9 NA 0.0000 9999 6070 0 0 0
2019/09/22 04:25:00 BASE 1.93 145 2.83 135 -12.7 94 -13.5 0 0 979.8 NA 0.0000 9999 8660 0 0 0
2019/09/22 04:26:00 BASE 2.52 149 3.24 143 -12.7 94 -13.5 0 0 979.8 NA 0.0000 9999 8500 0 0 0
2019/09/22 04:27:00 BASE 2.74 137 3.24 143 -12.7 94 -13.4 0 0 979.8 NA 0.0000 9999 8460 0 0 0
2019/09/22 04:28:00 BASE 2.26 117 3.24 143 -12.7 94 -13.4 0 0 979.8 NA 0.0000 9999 8430 0 0 0
2019/09/22 04:29:00 BASE 1.34 118 3.24 143 -12.7 95 -13.4 0 0 979.8 NA 0.0000 9999 5740 0 0 0
2019/09/22 04:30:00 BASE 0.70 131 3.24 143 -12.7 95 -13.3 0 0 979.8 NA 0.0000 9999 5910 0 0 0
2019/09/22 04:31:00 BASE 0.39 134 3.24 143 -12.7 95 -13.3 0 0 979.8 NA 0.0000 9999 5810 0 0 0
2019/09/22 04:32:00 BASE 0.62 148 3.24 143 -12.6 95 -13.3 0 0 979.7 NA 0.0000 9999 5680 0 0 0
2019/09/22 04:33:00 BASE 1.65 162 3.24 143 -12.6 95 -13.3 0 0 979.7 NA 0.0000 9999 5640 0 0 0
2019/09/22 04:34:00 BASE 3.28 164 4.84 164 -12.6 95 -13.2 0 0 979.6 NA 0.0000 9999 5680 6430 0 0
2019/09/22 04:35:00 BASE 4.68 162 5.25 153 -12.6 95 -13.2 0 0 979.6 NA 0.0000 9999 5450 0 0 0
2019/09/22 04:36:00 BASE 4.71 157 5.25 153 -12.6 95 -13.2 0 0 979.6 NA 0.0000 9999 5450 0 0 0
2019/09/22 04:37:00 BASE 4.18 158 5.25 153 -12.6 95 -13.2 0 0 979.6 NA 0.0000 9999 5450 0 0 0
2019/09/22 04:38:00 BASE 4.24 158 5.25 153 -12.6 95 -13.2 0 0 979.6 NA 0.0000 9999 5410 0 0 0
2019/09/22 04:39:00 BASE 4.47 158 5.40 152 -12.6 95 -13.2 0 0 979.5 NA 0.0000 9999 5450 0 0 0
2019/09/22 04:40:00 BASE 4.78 155 5.61 147 -12.6 95 -13.2 0 0 979.5 NA 0.0000 9999 5770 0 0 0
2019/09/22 04:41:00 BASE 5.02 144 5.66 137 -12.6 95 -13.2 0 0 979.5 NA 0.0000 9999 5740 0 0 0
2019/09/22 04:42:00 BASE 4.58 133 5.66 137 -12.5 95 -13.1 0 0 979.4 NA 0.0000 9999 5710 6820 0 0
2019/09/22 04:43:00 BASE 4.67 135 6.02 154 -12.4 95 -13.0 0 0 979.3 NA 0.0000 9999 7940 0 0 0
2019/09/22 04:44:00 BASE 5.49 135 6.84 130 -12.3 95 -12.9 0 0 979.3 NA 0.0000 9999 6920 0 0 0
2019/09/22 04:45:00 BASE 5.22 133 6.84 130 -12.2 95 -12.8 0 0 979.3 NA 0.0000 9999 5870 6860 0 0
2019/09/22 04:46:00 BASE 5.73 145 8.23 152 -12.1 95 -12.8 0 0 979.2 NA 0.0000 9999 5680 0 0 0
2019/09/22 04:47:00 BASE 7.54 149 9.26 145 -12.1 95 -12.8 0 0 979.2 NA 0.0000 9999 5610 0 0 0
2019/09/22 04:48:00 BASE 8.38 146 9.31 147 -12.0 94 -12.8 0 0 979.2 NA 0.0000 9999 5610 6460 0 0
2019/09/22 04:49:00 BASE 8.56 147 9.31 147 -12.0 94 -12.8 0 0 979.2 NA 0.0000 9999 6330 0 0 0
2019/09/22 04:50:00 BASE 7.90 146 9.31 147 -12.0 93 -12.8 0 0 979.2 NA 0.0000 9999 5410 0 0 0
2019/09/22 04:51:00 BASE 6.65 139 9.31 147 -11.9 93 -12.9 0 0 979.2 NA 0.0000 9999 5580 6140 0 0
2019/09/22 04:52:00 BASE 5.12 139 9.31 147 -11.9 92 -12.9 0 0 979.2 NA 0.0000 9999 5640 6330 0 0
2019/09/22 04:53:00 BASE 4.09 154 9.31 147 -11.8 92 -12.8 0 0 979.1 NA 0.0000 9999 5180 6300 0 0
2019/09/22 04:54:00 BASE 5.31 166 9.31 147 -11.7 92 -12.7 0 0 979.0 NA 0.0000 9999 5410 6370 0 0
2019/09/22 04:55:00 BASE 5.75 143 9.31 147 -11.6 91 -12.7 0 0 979.1 NA 0.0000 9999 5350 6300 0 0
2019/09/22 04:56:00 BASE 4.68 86 10.55 48 -11.4 91 -12.5 0 0 979.1 NA 0.0000 9999 5380 6170 0 0
2019/09/22 04:57:00 BASE 3.08 140 10.55 48 -11.1 91 -12.2 0 0 979.1 NA 0.0000 9999 5220 5970 0 0
2019/09/22 04:58:00 BASE 1.56 166 10.55 48 -10.9 90 -12.2 0 0 979.1 NA 0.0000 9999 5090 5940 0 0
2019/09/22 04:59:00 BASE 2.51 160 10.55 48 -10.7 89 -12.1 0 0 979.1 NA 0.0000 9999 5150 0 0 0
2019/09/22 05:00:00 BASE 4.58 167 10.55 48 -10.6 88 -12.2 0 0 979.0 NA 0.0000 9999 5090 5840 0 0
2019/09/22 05:01:00 BASE 5.48 159 10.55 48 -10.6 86 -12.4 0 0 979.0 NA 0.0000 9999 4920 5840 0 0
2019/09/22 05:02:00 BASE 4.95 130 10.55 48 -10.7 85 -12.7 0 0 979.0 NA 0.0000 9999 4200 5740 0 0
2019/09/22 05:03:00 BASE 4.20 53 10.55 48 -10.8 84 -13.0 0 0 979.0 NA 0.0000 9999 4990 5810 0 0
2019/09/22 05:04:00 BASE 3.76 356 10.55 48 -10.9 83 -13.2 0 0 979.0 NA 0.0000 9999 5050 5840 0 0
2019/09/22 05:05:00 BASE 2.69 322 10.55 48 -10.9 82 -13.3 0 0 978.9 NA 0.0000 9999 5050 5910 0 0
2019/09/22 05:06:00 BASE 1.14 228 7.41 181 -10.9 82 -13.3 0 0 978.9 NA 0.0000 9999 5120 0 0 0
2019/09/22 05:07:00 BASE 1.01 263 7.41 181 -10.9 82 -13.4 0 0 978.9 NA 0.0000 9999 4820 5740 0 0
2019/09/22 05:08:00 BASE 2.51 257 7.41 181 -11.0 82 -13.5 0 0 978.8 NA 0.0000 9999 4590 5810 0 0
2019/09/22 05:09:00 BASE 4.04 175 7.41 181 -11.0 82 -13.4 0 0 978.7 NA 0.0000 9999 4690 5710 0 0
2019/09/22 05:10:00 BASE 5.04 154 6.94 169 -10.9 82 -13.3 0 0 978.7 NA 0.0000 9999 4790 0 0 0
2019/09/22 05:11:00 BASE 5.69 167 6.94 169 -10.9 83 -13.3 0 0 978.6 NA 0.0000 9999 4720 0 0 0
2019/09/22 05:12:00 BASE 4.92 175 6.94 169 -10.8 83 -13.2 0 0 978.6 NA 0.0000 9999 4790 0 0 0
2019/09/22 05:13:00 BASE 3.18 181 6.94 169 -10.7 83 -13.1 0 0 978.6 NA 0.0000 9999 4950 0 0 0
2019/09/22 05:14:00 BASE 1.67 202 6.94 169 -10.7 82 -13.1 0 0 978.6 NA 0.0000 9999 4950 0 0 0
2019/09/22 05:15:00 BASE 1.88 215 6.94 169 -10.8 82 -13.2 0 0 978.6 NA 0.0000 9999 4820 0 0 0
2019/09/22 05:16:00 BASE 3.13 194 6.94 169 -10.8 82 -13.3 0 0 978.5 NA 0.0000 9999 4720 0 0 0
2019/09/22 05:17:00 BASE 4.21 175 6.94 169 -10.8 82 -13.3 0 0 978.5 NA 0.0000 9999 4660 0 0 0
2019/09/22 05:18:00 BASE 5.43 172 6.94 169 -10.9 82 -13.3 0 0 978.5 NA 0.0000 9999 4490 0 0 0
2019/09/22 05:19:00 BASE 5.36 176 6.94 169 -10.9 82 -13.3 0 0 978.5 NA 0.0000 9999 4330 0 0 0
2019/09/22 05:20:00 BASE 4.96 180 6.69 178 -10.8 83 -13.2 0 0 978.5 NA 0.0000 9999 4270 0 0 0
2019/09/22 05:21:00 BASE 5.60 180 7.36 184 -10.8 83 -13.2 0 0 978.5 NA 0.0000 9999 4230 0 0 0
2019/09/22 05:22:00 BASE 5.61 181 7.36 184 -10.8 83 -13.1 0 0 978.5 NA 0.0000 9999 4040 0 0 0
2019/09/22 05:23:00 BASE 5.12 173 7.36 184 -10.8 83 -13.1 0 0 978.5 NA 0.0000 9999 4130 0 0 0
2019/09/22 05:24:00 BASE 6.11 170 8.08 169 -10.8 83 -13.1 0 0 978.5 NA 0.0000 9999 4170 0 0 0
2019/09/22 05:25:00 BASE 7.37 170 8.18 174 -10.8 83 -13.1 0 0 978.4 NA 0.0000 9999 4230 0 0 0
2019/09/22 05:26:00 BASE 7.24 165 8.18 174 -10.9 83 -13.1 0 0 978.5 NA 0.0000 9999 4300 0 0 0
2019/09/22 05:27:00 BASE 6.44 170 8.18 174 -10.9 84 -13.1 0 0 978.5 NA 0.0000 9999 4230 0 0 0
2019/09/22 05:28:00 BASE 6.49 179 8.75 186 -10.9 84 -13.1 0 0 978.5 NA 0.0000 9999 4400 0 0 0
2019/09/22 05:29:00 BASE 6.75 177 8.75 186 -11.0 85 -13.0 0 0 978.5 NA 0.0000 9999 5870 0 0 0
2019/09/22 05:30:00 BASE 5.59 151 8.75 186 -11.0 85 -13.0 0 0 978.6 NA 0.0000 9999 5770 0 0 0
2019/09/22 05:31:00 BASE 3.31 120 8.75 186 -11.0 85 -13.0 0 0 978.7 NA 0.0000 9999 5970 0 0 0
2019/09/22 05:32:00 BASE 2.43 125 8.75 186 -11.0 86 -12.9 0 0 978.6 NA 0.0000 9999 4820 0 0 0
2019/09/22 05:33:00 BASE 3.48 134 8.75 186 -10.9 86 -12.7 0 0 978.5 NA 0.0000 9999 4660 0 0 0
2019/09/22 05:34:00 BASE 5.65 132 8.75 186 -10.8 87 -12.5 0 0 978.5 NA 0.0000 9999 4200 4820 0 0
2019/09/22 05:35:00 BASE 7.16 136 8.75 186 -10.7 87 -12.3 0 0 978.5 NA 0.0000 9999 3280 0 0 0
2019/09/22 05:36:00 BASE 6.89 139 8.75 186 -10.6 88 -12.2 0 0 978.5 NA 0.0000 9999 3410 0 0 0
2019/09/22 05:37:00 BASE 6.16 147 8.75 186 -10.6 88 -12.2 0 0 978.5 NA 0.0000 9999 3380 0 0 0
2019/09/22 05:38:00 BASE 5.44 151 8.49 192 -10.6 88 -12.2 0 0 978.5 NA 0.0000 9999 3410 0 0 0
2019/09/22 05:39:00 BASE 5.04 148 8.28 142 -10.7 88 -12.2 0 0 978.5 NA 0.0000 9999 3150 0 0 0
2019/09/22 05:40:00 BASE 4.58 145 8.28 142 -10.7 88 -12.3 0 0 978.5 NA 0.0000 9999 3280 0 0 0
2019/09/22 05:41:00 BASE 4.49 138 8.28 142 -10.8 89 -12.2 0 0 978.5 NA 0.0000 9999 3610 0 0 0
2019/09/22 05:42:00 BASE 4.43 137 8.28 142 -10.7 89 -12.2 0 0 978.5 NA 0.0000 9999 3080 0 0 0
2019/09/22 05:43:00 BASE 3.43 123 8.28 142 -10.7 90 -12.0 0 0 978.5 NA 0.0000 9999 2890 0 0 0
2019/09/22 05:44:00 BASE 2.66 88 7.92 128 -10.6 90 -11.9 0 0 978.4 NA 0.0000 9999 2850 0 0 0
2019/09/22 05:45:00 BASE 2.02 86 7.61 141 -10.5 91 -11.7 0 0 978.4 NA 0.0000 9999 2820 0 0 0
2019/09/22 05:46:00 BASE 0.94 91 6.48 146 -10.4 91 -11.6 0 0 978.4 NA 0.0000 9999 2620 0 0 0
2019/09/22 05:47:00 BASE 0.98 123 6.12 160 -10.4 91 -11.5 0 0 978.3 NA 0.0000 9999 2590 0 0 0
2019/09/22 05:48:00 BASE 1.59 154 5.76 150 -10.3 91 -11.5 0 0 978.3 NA 0.0000 9999 2660 0 0 0
2019/09/22 05:49:00 BASE 1.77 135 5.25 138 -10.2 91 -11.4 0 0 978.2 NA 0.0000 9999 2620 0 0 0
2019/09/22 05:50:00 BASE 2.38 128 5.25 138 -10.2 91 -11.3 0 0 978.2 NA 0.0000 9999 2560 0 0 0
2019/09/22 05:51:00 BASE 2.83 142 4.68 154 -10.1 91 -11.3 0 0 978.2 NA 0.0000 9999 2490 0 0 0
2019/09/22 05:52:00 BASE 3.03 150 4.06 147 -10.0 91 -11.3 0 0 978.2 NA 0.0000 9999 2330 0 0 0
2019/09/22 05:53:00 BASE 3.78 144 5.14 135 -9.9 90 -11.2 0 0 978.2 NA 0.0000 9999 5050 0 0 0
2019/09/22 05:54:00 BASE 3.67 123 5.14 135 -9.9 90 -11.3 0 0 978.2 NA 0.0000 9999 3250 0 0 0
2019/09/22 05:55:00 BASE 1.80 82 5.14 135 -10.0 89 -11.4 0 0 978.2 NA 0.0000 9999 3350 0 0 0
2019/09/22 05:56:00 BASE 0.28 64 5.14 135 -10.1 89 -11.6 0 0 978.1 NA 0.0000 9999 5120 0 0 0
2019/09/22 05:57:00 BASE 0.98 79 5.14 135 -10.1 88 -11.7 0 0 978.1 NA 0.0000 9999 3710 0 0 0
2019/09/22 05:58:00 BASE 2.53 80 5.14 135 -10.2 88 -11.8 0 0 978.1 NA 0.0000 9999 4990 0 0 0
2019/09/22 05:59:00 BASE 2.98 94 5.14 135 -10.2 88 -11.8 0 0 977.9 NA 0.0000 9999 5050 0 0 0
2019/09/22 06:00:00 BASE 3.19 123 5.14 135 -10.0 88 -11.7 0 0 977.9 NA 0.0000 9999 5120 0 0 0
2019/09/22 06:01:00 BASE 3.96 142 5.14 135 -9.8 88 -11.5 0 0 977.9 NA 0.0000 9999 3670 0 0 0
2019/09/22 06:02:00 BASE 3.53 142 5.14 135 -9.7 87 -11.4 0 0 977.9 NA 0.0000 9999 3510 0 0 0
2019/09/22 06:03:00 BASE 3.78 131 6.89 136 -9.5 87 -11.2 0 0 977.9 NA 0.0000 9999 3740 0 0 0
2019/09/22 06:04:00 BASE 5.80 126 7.97 130 -9.2 87 -11.0 0 0 977.9 NA 0.0000 9999 3640 0 0 0
2019/09/22 06:05:00 BASE 7.28 132 8.85 132 -9.0 86 -10.9 0 0 977.8 NA 0.0000 9999 5120 0 0 0
2019/09/22 06:06:00 BASE 7.90 130 9.05 110 -8.8 86 -10.8 0 0 977.8 NA 0.0000 9999 5120 0 0 0
2019/09/22 06:07:00 BASE 7.46 118 9.05 110 -8.5 86 -10.5 0 0 977.8 NA 0.0000 9999 5090 0 0 0
2019/09/22 06:08:00 BASE 5.43 120 9.05 110 -8.2 85 -10.3 0 0 977.7 NA 0.0000 9999 5150 0 0 0
2019/09/22 06:09:00 BASE 2.91 78 9.05 110 -8.1 84 -10.3 0 0 977.7 NA 0.0000 9999 5150 0 0 0
2019/09/22 06:10:00 BASE 3.34 30 9.05 110 -8.0 83 -10.3 0 0 977.6 NA 0.0000 9999 5120 0 0 0
2019/09/22 06:11:00 BASE 4.31 358 9.05 110 -7.8 82 -10.3 0 0 977.5 NA 0.0000 9999 5250 0 0 0
2019/09/22 06:12:00 BASE 4.13 341 9.05 110 -7.6 81 -10.3 0 0 977.4 NA 0.0000 9999 5450 0 0 0
2019/09/22 06:13:00 BASE 4.31 336 9.05 110 -7.3 81 -10.1 0 0 977.3 NA 0.0000 9999 3740 0 0 0
2019/09/22 06:14:00 BASE 5.19 329 9.05 110 -7.0 80 -9.9 0 0 977.3 NA 0.0000 9999 5740 0 0 0
2019/09/22 06:15:00 BASE 5.65 344 9.05 110 -6.8 80 -9.7 0 0 977.2 NA 0.0000 9999 5910 0 0 0
2019/09/22 06:16:00 BASE 5.94 357 8.49 20 -6.5 80 -9.5 0 0 977.2 NA 0.0000 9999 6170 0 0 0
2019/09/22 06:17:00 BASE 8.06 7 10.75 15 -6.3 80 -9.2 0 0 977.1 NA 0.0000 9999 3840 0 0 0
2019/09/22 06:18:00 BASE 8.99 26 12.55 42 -6.2 81 -9.0 0 0 977.1 NA 0.0000 9999 6330 0 0 0
2019/09/22 06:19:00 BASE 8.84 39 12.55 42 -6.1 81 -8.8 0 0 977.1 NA 0.0000 9999 3940 0 0 0
2019/09/22 06:20:00 BASE 11.29 38 16.93 35 -5.9 81 -8.6 0 0 977.0 NA 0.0000 9999 4170 0 0 0
2019/09/22 06:21:00 BASE 13.56 47 16.93 35 -5.8 81 -8.5 0 0 977.0 NA 0.0000 9999 4130 0 0 0
2019/09/22 06:22:00 BASE 14.20 45 17.85 29 -5.8 81 -8.6 0 0 976.8 NA 0.0000 9999 4130 0 0 0
2019/09/22 06:23:00 BASE 15.25 45 19.91 43 -5.7 80 -8.6 0 0 976.8 NA 0.0000 9999 4230 0 0 0
2019/09/22 06:24:00 BASE 15.72 50 19.91 43 -5.6 79 -8.6 0 0 976.7 NA 0.0000 9999 4720 0 0 0
2019/09/22 06:25:00 BASE 17.06 50 23.46 43 -5.5 79 -8.6 0 0 976.6 NA 0.0000 9999 4690 0 0 0
2019/09/22 06:26:00 BASE 18.40 48 23.46 43 -5.4 78 -8.7 0 0 976.5 NA 0.0000 6000 6630 0 0 0
2019/09/22 06:27:00 BASE 19.06 50 23.46 43 -5.4 77 -8.8 0 0 976.5 NA 0.0000 4200 5640 0 0 0
2019/09/22 06:28:00 BASE 19.23 55 23.61 49 -5.3 76 -8.9 0 0 976.4 NA 0.0000 -SN 5000 5580 0 0 0
2019/09/22 06:29:00 BASE 19.73 55 23.61 49 -5.3 76 -9.0 0 0 976.3 NA 0.0000 -SN 6000 5540 0 0 0
2019/09/22 06:30:00 BASE 20.82 52 26.91 43 -5.3 75 -9.0 0 0 976.2 NA 0.0000 -SN 5000 5540 0 0 0
2019/09/22 06:31:00 BASE 20.60 50 26.91 43 -5.3 75 -9.1 0 0 976.2 NA 0.0000 -SN 4200 5480 0 0 0
2019/09/22 06:32:00 BASE 20.63 51 26.91 43 -5.3 74 -9.1 0 0 976.1 NA 0.0000 -SN 2700 6430 0 0 0
2019/09/22 06:33:00 BASE 21.71 51 26.91 43 -5.3 74 -9.1 0 0 976.1 NA 0.0000 -SN 3700 4860 0 0 0
2019/09/22 06:34:00 BASE 21.57 50 26.91 43 -5.3 74 -9.1 0 0 976.1 NA 0.0000 -SN 3200 4860 0 0 0
2019/09/22 06:35:00 BASE 21.80 52 27.01 43 -5.2 74 -9.1 0 0 976.0 NA 0.0000 -SN 4000 4760 0 0 0
2019/09/22 06:36:00 BASE 21.40 50 27.01 43 -5.2 74 -9.1 0 0 975.9 NA 0.0000 -SN 5000 4660 0 0 0
2019/09/22 06:37:00 BASE 21.38 47 27.01 43 -5.2 74 -9.1 0 0 975.8 NA 0.0000 -SN 4800 4630 0 0 0
2019/09/22 06:38:00 BASE 22.93 48 27.01 43 -5.2 74 -9.1 0 0 975.7 NA 0.0000 -SN 3700 5610 0 0 0
2019/09/22 06:39:00 BASE 23.19 49 27.93 47 -5.1 74 -9.1 0 0 975.7 NA 0.0000 -SN 3100 5640 0 0 0
2019/09/22 06:40:00 BASE 23.21 49 27.93 47 -5.1 74 -9.0 0 0 975.7 NA 0.0000 -SN 2800 5680 0 0 0
2019/09/22 06:41:00 BASE 22.84 46 27.93 47 -5.1 74 -9.0 0 0 975.6 NA 0.0000 -SN 3500 5380 0 0 0
2019/09/22 06:42:00 BASE 23.08 46 27.93 47 -5.1 74 -9.0 0 0 975.6 NA 0.0000 -SN 3300 5350 0 0 0
2019/09/22 06:43:00 BASE 23.30 44 27.93 47 -5.0 74 -8.9 0 0 975.6 NA 0.0000 -SN 5000 5540 0 0 0
2019/09/22 06:44:00 BASE 23.47 44 28.50 42 -5.0 74 -8.9 0 0 975.5 NA 0.0000 -SN 4000 5610 0 0 0
2019/09/22 06:45:00 BASE 23.81 45 28.50 42 -5.0 75 -8.8 0 0 975.5 NA 0.0000 -SN 3700 5610 0 0 0
2019/09/22 06:46:00 BASE 23.56 45 28.50 42 -5.0 75 -8.8 0 0 975.4 NA 0.0000 -SN 3800 5610 0 0 0
2019/09/22 06:47:00 BASE 23.47 45 28.50 42 -5.0 75 -8.7 0 0 975.4 NA 0.0000 -SN 5000 5640 0 0 0
2019/09/22 06:48:00 BASE 23.05 45 28.50 42 -5.0 75 -8.7 0 0 975.4 NA 0.0000 -SN 3500 5640 0 0 0
2019/09/22 06:49:00 BASE 23.10 45 28.50 42 -5.0 75 -8.7 0 0 975.3 NA 0.0000 -SN 2400 6460 0 0 0
2019/09/22 06:50:00 BASE 23.31 45 28.50 42 -5.0 75 -8.7 0 0 975.3 NA 0.0000 -SN 3500 6690 0 0 0
2019/09/22 06:51:00 BASE 22.88 45 28.50 42 -5.0 75 -8.6 0 0 975.3 NA 0.0000 -SN 3500 5970 0 0 0
2019/09/22 06:52:00 BASE 23.63 44 28.50 42 -5.0 76 -8.6 0 0 975.3 NA 0.0000 -SN 4100 5940 0 0 0
2019/09/22 06:53:00 BASE 24.47 45 28.50 42 -4.9 76 -8.5 0 0 975.3 NA 0.0000 -SN 5000 6730 0 0 0
2019/09/22 06:54:00 BASE 23.19 46 27.37 48 -4.9 76 -8.5 0 0 975.3 NA 0.0000 -SN 5000 6790 0 0 0
2019/09/22 06:55:00 BASE 22.62 45 27.37 48 -4.8 76 -8.4 0 0 975.4 NA 0.0000 -SN 5000 6960 0 0 0
2019/09/22 06:56:00 BASE 23.28 48 27.37 48 -4.8 76 -8.4 0 0 975.4 NA 0.0000 -SN 4800 7050 0 0 0
2019/09/22 06:57:00 BASE 22.92 51 27.37 48 -4.8 76 -8.3 0 0 975.3 NA 0.0000 -SN 4900 7220 0 0 0
2019/09/22 06:58:00 BASE 21.26 52 27.37 48 -4.8 76 -8.3 0 0 975.4 NA 0.0000 -SN 4700 7420 0 0 0
2019/09/22 06:59:00 BASE 20.27 53 27.37 48 -4.7 76 -8.3 0 0 975.3 NA 0.0000 -SN 4800 7280 0 0 0
2019/09/22 07:00:00 BASE 20.59 56 27.37 48 -4.7 76 -8.2 0 0 975.3 NA 0.0000 -SN 4700 7480 0 0 0
2019/09/22 07:01:00 BASE 20.75 58 27.37 48 -4.6 76 -8.2 0 0 975.3 NA 0.0000 -SN 4600 7510 0 0 0
2019/09/22 07:02:00 BASE 20.29 57 26.80 32 -4.6 76 -8.2 0 0 975.3 NA 0.0000 -SN 4500 7320 0 0 0
2019/09/22 07:03:00 BASE 19.88 58 26.24 58 -4.5 76 -8.1 0 0 975.3 NA 0.0000 -SN 4500 7350 0 0 0
2019/09/22 07:04:00 BASE 19.88 61 26.24 58 -4.5 76 -8.1 0 0 975.3 NA 0.0000 -SN 4400 7220 0 0 0
2019/09/22 07:05:00 BASE 20.38 63 26.24 58 -4.5 76 -8.0 0 0 975.3 NA 0.0000 -SN 4300 7120 0 0 0
2019/09/22 07:06:00 BASE 20.25 69 26.24 58 -4.4 76 -8.0 0 0 975.3 NA 0.0000 HZ 4300 6920 0 0 0
2019/09/22 07:07:00 BASE 19.13 75 24.44 58 -4.3 76 -7.9 0 0 975.3 NA 0.0000 HZ 5000 7190 0 0 0
2019/09/22 07:08:00 BASE 16.64 83 24.44 58 -4.3 76 -7.8 0 0 975.4 NA 0.0000 HZ 9999 7090 0 0 0
2019/09/22 07:09:00 BASE 15.03 85 24.44 58 -4.2 76 -7.9 0 0 975.3 NA 0.0000 HZ 9999 7020 0 0 0
2019/09/22 07:10:00 BASE 17.03 77 24.44 58 -4.2 76 -7.8 0 0 975.2 NA 0.0000 HZ 9999 4560 0 0 0
2019/09/22 07:11:00 BASE 18.04 73 23.82 60 -4.2 76 -7.8 0 0 975.2 NA 0.0000 HZ 9999 4400 0 0 0
2019/09/22 07:12:00 BASE 16.54 69 23.82 60 -4.1 76 -7.7 0 0 975.2 NA 0.0000 HZ 9999 4430 0 0 0
2019/09/22 07:13:00 BASE 16.60 68 23.82 60 -4.0 76 -7.6 0 0 975.2 NA 0.0000 HZ 9999 4270 0 0 0
2019/09/22 07:14:00 BASE 17.43 72 23.82 60 -3.9 77 -7.4 0 0 975.2 NA 0.0000 HZ 9999 5970 0 0 0
2019/09/22 07:15:00 BASE 16.55 74 21.97 67 -3.8 77 -7.2 0 0 975.2 NA 0.0000 HZ 9999 5770 0 0 0
2019/09/22 07:16:00 BASE 16.81 70 23.30 59 -3.8 77 -7.2 0 0 975.2 NA 0.0000 9999 0 0 0 5450
2019/09/22 07:17:00 BASE 18.14 68 23.30 59 -3.7 77 -7.1 0 0 975.2 NA 0.0000 9999 0 0 0 5510
2019/09/22 07:18:00 BASE 18.38 73 23.30 59 -3.7 78 -7.1 0 0 975.1 NA 0.0000 9999 0 0 0 5510
2019/09/22 07:19:00 BASE 16.86 74 23.30 59 -3.7 78 -7.0 0 0 975.1 NA 0.0000 9999 0 0 0 5220
2019/09/22 07:20:00 BASE 15.08 71 23.30 59 -3.6 78 -6.9 0 0 975.1 NA 0.0000 9999 0 0 0 5150
2019/09/22 07:21:00 BASE 15.26 67 23.30 59 -3.5 78 -6.8 0 0 975.0 NA 0.0000 9999 0 0 0 5120
2019/09/22 07:22:00 BASE 16.67 63 23.30 59 -3.5 78 -6.8 0 0 975.0 NA 0.0000 9999 0 0 0 5090
2019/09/22 07:23:00 BASE 16.71 60 23.30 59 -3.4 78 -6.7 0 0 975.0 NA 0.0000 9999 0 0 0 4990
2019/09/22 07:24:00 BASE 16.65 66 23.30 59 -3.4 78 -6.6 0 0 975.0 NA 0.0000 9999 0 0 0 4950
2019/09/22 07:25:00 BASE 16.55 72 23.30 59 -3.3 78 -6.6 0 0 974.9 NA 0.0000 9999 0 0 0 4990
2019/09/22 07:26:00 BASE 14.95 71 22.12 64 -3.3 78 -6.6 0 0 975.0 NA 0.0000 9999 0 0 0 5020
2019/09/22 07:27:00 BASE 14.81 68 21.50 65 -3.2 78 -6.5 0 0 974.9 NA 0.0000 9999 0 0 0 4950
2019/09/22 07:28:00 BASE 15.55 70 21.50 65 -3.2 78 -6.5 0 0 974.9 NA 0.0000 9999 0 0 0 5020
2019/09/22 07:29:00 BASE 17.06 67 21.50 65 -3.2 78 -6.5 0 0 974.8 NA 0.0000 9999 0 0 0 5020
2019/09/22 07:30:00 BASE 17.41 62 21.50 65 -3.2 78 -6.5 0 0 974.8 NA 0.0000 9000 0 0 0 5020
2019/09/22 07:31:00 BASE 16.87 60 21.50 65 -3.1 78 -6.4 0 0 974.6 NA 0.0000 -SN 7000 0 0 0 4990
2019/09/22 07:32:00 BASE 18.26 59 21.50 65 -3.1 78 -6.4 0 0 974.6 NA 0.0000 -SN 6000 0 0 0 4920
2019/09/22 07:33:00 BASE 19.34 60 21.81 52 -3.1 78 -6.4 0 0 974.5 NA 0.0000 -SN 6000 0 0 0 4990
2019/09/22 07:34:00 BASE 19.07 61 21.81 52 -3.1 78 -6.3 0 0 974.4 NA 0.0000 -SN 5000 0 0 0 4950
2019/09/22 07:35:00 BASE 18.67 63 21.81 52 -3.1 79 -6.3 0 0 974.4 NA 0.0000 -SN 5000 0 0 0 4920
2019/09/22 07:36:00 BASE 19.13 65 21.81 69 -3.1 79 -6.3 0 0 974.3 NA 0.0000 -SN 5000 0 0 0 3770
2019/09/22 07:37:00 BASE 18.60 69 21.81 69 -3.1 79 -6.2 0 0 974.4 NA 0.0000 -SN 6000 0 0 0 3970
2019/09/22 07:38:00 BASE 16.07 75 21.81 69 -3.1 79 -6.3 0 0 974.4 NA 0.0000 -SN 6000 0 0 0 4720
2019/09/22 07:39:00 BASE 15.47 76 21.81 69 -3.2 79 -6.3 0 0 974.4 NA 0.0000 -SN 6000 0 0 0 4790
2019/09/22 07:40:00 BASE 16.46 65 21.81 69 -3.2 79 -6.3 0 0 974.3 NA 0.0000 -SN 5000 0 0 0 4760
2019/09/22 07:41:00 BASE 16.88 56 21.81 69 -3.2 80 -6.3 0 0 974.2 NA 0.0000 -SN 5000 0 0 0 5350
2019/09/22 07:42:00 BASE 18.32 56 23.66 47 -3.3 80 -6.2 0 0 974.1 NA 0.0000 -SN 4600 0 0 0 5710
2019/09/22 07:43:00 BASE 19.20 54 23.66 47 -3.3 80 -6.1 0 0 974.0 NA 0.0000 -SN 4500 0 0 0 5770
2019/09/22 07:44:00 BASE 20.05 52 25.77 50 -3.2 81 -6.1 0 0 973.9 NA 0.0000 -SN 4300 0 0 0 5810
2019/09/22 07:45:00 BASE 20.77 51 25.77 50 -3.2 81 -6.0 0 0 973.9 NA 0.0000 -SN 3500 0 0 0 5840
2019/09/22 07:46:00 BASE 20.54 50 25.77 50 -3.1 81 -5.9 0 0 973.8 NA 0.0000 -SN 3300 0 0 0 5910
2019/09/22 07:47:00 BASE 20.03 49 26.44 43 -3.1 82 -5.8 0 0 973.8 NA 0.0000 -SN 3100 0 0 0 5740
2019/09/22 07:48:00 BASE 19.83 46 26.44 43 -3.1 82 -5.8 0 0 973.7 NA 0.0000 -SN 3800 0 0 0 5640
2019/09/22 07:49:00 BASE 20.20 47 26.44 43 -3.1 82 -5.7 0 0 973.7 NA 0.0000 -SN 4900 0 0 0 5540
2019/09/22 07:50:00 BASE 19.98 48 26.44 43 -3.1 82 -5.7 0 0 973.7 NA 0.0000 -SN 4100 0 0 0 5450
2019/09/22 07:51:00 BASE 19.26 49 26.44 43 -3.1 82 -5.7 0 0 973.7 NA 0.0000 -SN 3800 0 0 0 5410
2019/09/22 07:52:00 BASE 18.58 46 26.44 43 -3.1 83 -5.6 0 0 973.6 NA 0.0000 -SN 5000 0 0 0 5410
2019/09/22 07:53:00 BASE 18.71 43 26.44 43 -3.1 83 -5.6 0 0 973.5 NA 0.0000 -SN 5000 0 0 0 5320
2019/09/22 07:54:00 BASE 19.34 42 26.44 43 -3.1 83 -5.5 0 0 973.5 NA 0.0000 -SN 5000 0 0 0 5350
2019/09/22 07:55:00 BASE 19.60 40 26.44 43 -3.1 83 -5.5 0 0 973.4 NA 0.0000 -SN 6000 0 0 0 5380
2019/09/22 07:56:00 BASE 20.31 38 27.11 24 -3.1 84 -5.4 0 0 973.2 NA 0.0000 -SN 6000 0 0 0 5380
2019/09/22 07:57:00 BASE 22.11 38 27.47 36 -3.0 84 -5.4 0 0 973.1 NA 0.0000 -SN 5000 0 0 0 5220
2019/09/22 07:58:00 BASE 24.29 38 27.63 34 -3.0 84 -5.4 0 0 972.9 NA 0.0000 -SN 3400 0 0 0 5180
2019/09/22 07:59:00 BASE 25.59 36 29.73 34 -3.0 84 -5.4 0 0 972.8 NA 0.0000 -SN 2100 0 0 0 5220
2019/09/22 08:00:00 BASE 26.08 34 30.35 33 -3.1 84 -5.3 0 0 972.7 NA 0.0000 -SN 4600 0 0 0 5220
2019/09/22 08:01:00 BASE 25.77 34 30.97 36 -3.1 84 -5.3 0 0 972.7 NA 0.0000 -SN 5000 0 0 0 5150
2019/09/22 08:02:00 BASE 26.61 34 32.15 33 -3.1 85 -5.3 0 0 972.5 NA 0.0000 -SN 5000 0 0 0 5050
2019/09/22 08:03:00 BASE 26.97 33 32.15 33 -3.1 85 -5.3 0 0 972.5 NA 0.0000 -SN BR 4500 0 0 0 4790
2019/09/22 08:04:00 BASE 25.98 33 32.15 33 -3.0 85 -5.2 0 0 972.5 NA 0.0000 -SN BR 6000 0 0 0 4720
2019/09/22 08:05:00 BASE 26.63 34 32.15 33 -3.0 85 -5.2 0 0 972.4 NA 0.0000 -SN BR 5000 0 0 0 4720
2019/09/22 08:06:00 BASE 28.14 34 32.15 33 -3.0 85 -5.2 0 0 972.2 NA 0.0000 -SN BR 4100 0 0 0 4690
2019/09/22 08:07:00 BASE 27.84 36 32.15 33 -3.0 85 -5.2 0 0 972.2 NA 0.0000 -SN BR 3500 0 0 0 4720
2019/09/22 08:08:00 BASE 28.55 35 35.60 22 -3.1 85 -5.2 0 0 972.1 NA 0.0000 -SN BR 4200 0 0 0 4460
2019/09/22 08:09:00 BASE 30.04 33 35.60 22 -3.1 86 -5.1 0 0 972.0 NA 0.0000 -SN BR 2800 0 0 0 4360
2019/09/22 08:10:00 BASE 30.22 31 35.70 31 -3.1 86 -5.1 0 0 971.9 NA 0.0000 -SN BR 2400 0 0 0 4270
2019/09/22 08:11:00 BASE 29.97 30 35.70 31 -3.0 86 -5.0 0 0 971.9 NA 0.0000 -SN BR 5000 0 0 0 4230
2019/09/22 08:12:00 BASE 30.30 32 35.70 31 -3.0 86 -4.9 0 0 971.7 NA 0.0000 -SN BR 3600 0 0 0 3940
2019/09/22 08:13:00 BASE 31.30 31 35.70 31 -3.0 87 -4.9 0 0 971.7 NA 0.0000 -SN BR 1900 0 0 0 3940
2019/09/22 08:14:00 BASE 31.31 32 36.27 36 -3.0 87 -4.8 0 0 971.7 NA 0.0000 -SN BR 2100 0 0 0 3640
2019/09/22 08:15:00 BASE 31.75 33 36.27 36 -3.0 88 -4.7 0 0 971.5 NA 0.0000 -SN BR 2100 0 0 0 3020
2019/09/22 08:16:00 BASE 32.50 32 36.27 36 -3.0 88 -4.6 0 0 971.5 NA 0.0000 -SN BR 1900 0 0 0 2660
2019/09/22 08:17:00 BASE 33.33 33 36.27 36 -3.0 89 -4.6 0 0 971.4 NA 0.0000 -SN BR 1900 0 0 0 2330
2019/09/22 08:18:00 BASE 32.65 32 36.27 36 -3.0 89 -4.5 0 0 971.5 NA 0.0000 -SN BR 1700 0 0 0 2100
2019/09/22 08:19:00 BASE 31.83 31 38.43 25 -3.0 90 -4.5 0 0 971.5 NA 0.0000 -SN BR 1800 0 0 0 2300
2019/09/22 08:20:00 BASE 32.13 33 38.43 25 -3.1 90 -4.4 0 0 971.3 NA 0.0000 -SN BR 1800 0 0 0 2300
2019/09/22 08:21:00 BASE 32.46 35 38.43 25 -3.1 91 -4.4 0 0 971.2 NA 0.0000 UP BR 1800 0 0 0 2300
2019/09/22 08:22:00 BASE 32.22 35 38.43 25 -3.1 91 -4.3 0 0 971.2 NA 0.0000 UP BR 1700 0 0 0 1940
2019/09/22 08:23:00 BASE 31.23 34 38.43 25 -3.1 92 -4.3 0 0 971.2 NA 0.0000 UP BR 2500 0 0 0 2030
2019/09/22 08:24:00 BASE 32.34 32 38.43 25 -3.1 92 -4.2 0 0 971.0 NA 0.0000 UP BR 1800 0 0 0 2260
2019/09/22 08:25:00 BASE 35.13 33 38.94 32 -3.1 93 -4.1 0 0 970.8 NA 0.0000 UP BR 2000 0 0 0 2200
2019/09/22 08:26:00 BASE 35.12 33 38.94 32 -3.1 93 -4.1 0 0 970.9 NA 0.0000 -SN BR 3700 0 0 0 2130
2019/09/22 08:27:00 BASE 32.51 32 41.00 33 -3.1 94 -4.0 0 0 971.0 NA 0.0000 -SN BR 3700 0 0 0 2070
2019/09/22 08:28:00 BASE 33.49 31 41.52 38 -3.1 94 -3.9 0 0 970.7 NA 0.0000 -SN BR 1800 0 0 0 2030
2019/09/22 08:29:00 BASE 34.42 26 41.52 38 -3.1 95 -3.8 0 0 970.8 NA 0.0000 -SN BR 2000 0 0 0 2000
2019/09/22 08:30:00 BASE 30.75 23 41.52 38 -3.1 95 -3.8 0 0 971.0 NA 0.0000 -SN BR 5000 0 0 0 2100
2019/09/22 08:31:00 BASE 32.10 26 41.52 38 -3.1 96 -3.7 0 0 970.6 NA 0.0000 -SN BR 5000 0 0 0 1900
2019/09/22 08:32:00 BASE 35.41 32 41.52 38 -3.1 96 -3.6 0 0 970.5 NA 0.0000 -SN BR 5000 0 0 0 2170
2019/09/22 08:33:00 BASE 36.76 32 41.52 38 -3.1 97 -3.5 0 0 970.3 NA 0.0000 UP BR 5000 0 0 0 2030
2019/09/22 08:34:00 BASE 36.74 31 41.52 38 -3.1 97 -3.5 0 0 970.5 NA 0.0000 UP BR 5000 0 0 0 2030
2019/09/22 08:35:00 BASE 33.50 31 41.52 38 -3.1 97 -3.4 0 0 970.6 NA 0.0000 UP BR 5000 0 0 0 2070
2019/09/22 08:36:00 BASE 34.03 32 41.52 38 -3.1 98 -3.5 0 0 970.4 NA 0.0000 UP BR 5000 0 0 0 2790
2019/09/22 08:37:00 BASE 35.56 34 41.52 38 -3.2 98 -3.5 0 0 970.2 NA 0.0000 UP BR 5000 0 0 0 2230
2019/09/22 08:38:00 BASE 36.22 35 41.21 35 -3.3 98 -3.5 0 0 970.1 NA 0.0000 BR 5000 0 0 0 2070
2019/09/22 08:39:00 BASE 38.01 33 41.72 32 -3.3 99 -3.5 0 0 970.1 NA 0.0000 BR M 0 0 0 3180
2019/09/22 08:40:00 BASE 38.85 31 42.54 33 -3.3 99 -3.4 0 0 969.9 NA 0.0000 BR M 0 0 0 2430
2019/09/22 08:41:00 BASE 36.29 31 42.54 33 -3.3 99 -3.3 0 0 970.3 NA 0.0000 M 0 0 0 2260
2019/09/22 08:42:00 BASE 32.95 28 42.54 33 -3.3 100 -3.3 0 0 970.2 NA 0.0000 M 0 0 0 2690
2019/09/22 08:43:00 BASE 35.29 30 43.88 40 -3.3 100 -3.3 0 0 969.8 NA 0.0000 M 0 0 0 2100
2019/09/22 08:44:00 BASE 39.30 34 45.94 28 -3.2 100 -3.2 0 0 969.5 NA 0.0000 M 0 0 0 2000
2019/09/22 08:45:00 BASE 37.88 33 45.94 28 -3.2 100 -3.2 0 3 970.1 NA 0.0000 SQ M 0 0 0 2360
2019/09/22 08:46:00 BASE 34.00 31 45.94 28 -3.2 100 -3.2 0 0 970.0 NA 0.0000 M 0 0 0 2620
2019/09/22 08:47:00 BASE 35.15 33 45.94 28 -3.2 100 -3.2 0 0 969.7 NA 0.0000 M 0 0 0 2260
2019/09/22 08:48:00 BASE 39.90 35 45.94 28 -3.2 100 -3.2 0 0 969.3 NA 0.0000 M 0 0 0 2030
2019/09/22 08:49:00 BASE 39.64 33 45.94 28 -3.1 100 -3.1 0 0 969.7 NA 0.0000 M 0 0 0 2400
2019/09/22 08:50:00 BASE 35.34 29 45.94 28 -3.2 100 -3.2 0 0 969.8 NA 0.0000 M 0 0 0 2490
2019/09/22 08:51:00 BASE 35.71 29 45.94 28 -3.2 100 -3.2 0 0 969.5 NA 0.0000 M 0 0 0 1610
2019/09/22 08:52:00 BASE 39.26 33 45.94 28 -3.2 100 -3.2 0 0 969.3 NA 0.0000 M 0 0 0 1840
2019/09/22 08:53:00 BASE 41.11 35 45.94 28 -3.2 100 -3.2 0 1 969.2 NA 0.0000 M 0 0 0 2130
2019/09/22 08:54:00 BASE 38.44 32 44.81 33 -3.2 100 -3.2 0 0 969.4 NA 0.0000 M 0 0 0 2850
2019/09/22 08:55:00 BASE 37.43 31 44.81 33 -3.2 100 -3.2 0 1 969.1 NA 0.0000 M 0 0 0 2590
2019/09/22 08:56:00 BASE 38.36 33 44.81 33 -3.2 100 -3.2 0 1 969.3 NA 0.0000 M 0 0 0 1840
2019/09/22 08:57:00 BASE 37.79 34 44.81 33 -3.2 100 -3.2 0 0 969.0 NA 0.0000 M 0 0 0 2690
2019/09/22 08:58:00 BASE 38.26 33 44.50 32 -3.2 100 -3.2 0 0 969.1 NA 0.0000 M 0 0 0 2690
2019/09/22 08:59:00 BASE 36.11 28 44.50 32 -3.2 100 -3.2 0 0 969.4 NA 0.0000 M 0 0 0 2720
2019/09/22 09:00:00 BASE 36.78 27 45.99 33 -3.2 100 -3.2 0 0 968.9 NA 0.0000 M 0 0 0 2400
2019/09/22 09:01:00 BASE 41.02 31 45.99 33 -3.1 100 -3.1 0 0 968.6 NA 0.0000 M 0 0 0 1970
2019/09/22 09:02:00 BASE 40.72 30 45.99 33 -3.1 100 -3.1 0 0 969.1 NA 0.0000 M 0 0 0 2130
2019/09/22 09:03:00 BASE 36.31 24 45.99 33 -3.1 100 -3.1 0 0 969.3 NA 0.0000 M 0 0 0 2170
2019/09/22 09:04:00 BASE 35.76 24 45.99 33 -3.1 100 -3.1 0 1 969.0 NA 0.0000 M 0 0 0 1740
2019/09/22 09:05:00 BASE 38.65 30 45.99 33 -3.1 100 -3.1 0 1 968.8 NA 0.0000 M 0 0 0 2070
2019/09/22 09:06:00 BASE 41.44 32 47.89 36 -3.1 100 -3.1 0 0 968.4 NA 0.0000 M 0 0 0 1610
2019/09/22 09:07:00 BASE 42.26 33 47.89 36 -3.0 100 -3.0 0 0 968.6 NA 0.0000 M 0 0 0 2890
2019/09/22 09:08:00 BASE 39.61 31 47.89 36 -3.0 100 -3.0 0 0 968.9 NA 0.0000 M 0 0 0 2690
2019/09/22 09:09:00 BASE 38.14 28 47.89 36 -2.9 100 -2.9 0 0 968.8 NA 0.0000 M 0 0 0 2820
2019/09/22 09:10:00 BASE 36.90 27 47.89 36 -2.9 100 -2.9 0 0 969.1 NA 0.0000 M 0 0 0 3020
2019/09/22 09:11:00 BASE 36.50 27 47.89 36 -2.9 100 -2.9 0 0 968.7 NA 0.0000 M 0 0 0 2530
2019/09/22 09:12:00 BASE 37.92 28 47.89 36 -2.9 100 -2.9 0 0 968.7 NA 0.0000 M 0 0 0 2720
2019/09/22 09:13:00 BASE 37.32 29 47.89 36 -3.0 100 -3.0 0 0 968.8 NA 0.0000 M 0 0 0 2200
2019/09/22 09:14:00 BASE 38.44 29 47.89 36 -3.0 100 -3.0 0 0 968.5 NA 0.0000 M 0 0 0 2100
2019/09/22 09:15:00 BASE 40.95 31 47.89 36 -2.9 100 -2.9 0 0 968.4 NA 0.0000 M 0 0 0 1840
2019/09/22 09:16:00 BASE 41.19 31 46.20 24 -2.9 100 -2.9 0 0 968.4 NA 0.0000 M 0 0 0 1870
2019/09/22 09:17:00 BASE 40.92 31 46.20 24 -2.9 100 -2.9 0 0 968.5 NA 0.0000 M 0 0 0 1740
2019/09/22 09:18:00 BASE 40.65 31 46.20 24 -2.9 100 -2.9 0 0 968.5 NA 0.0000 M 0 0 0 2130
2019/09/22 09:19:00 BASE 42.10 32 47.07 33 -2.9 100 -2.9 0 0 968.3 NA 0.0000 M 0 0 0 1840
2019/09/22 09:20:00 BASE 42.86 33 47.07 33 -2.9 100 -2.9 0 0 968.3 NA 0.0000 5000 0 0 0 1670
2019/09/22 09:21:00 BASE 41.44 32 47.07 33 -2.9 100 -2.9 0 0 968.5 NA 0.0000 -SN 7000 0 0 0 2000
2019/09/22 09:22:00 BASE 40.29 30 47.07 33 -2.9 100 -2.9 0 0 968.5 NA 0.0000 -SN M 0 0 0 1870
2019/09/22 09:23:00 BASE 40.77 29 47.07 33 -3.0 100 -3.0 0 0 968.4 NA 0.0000 -SN 7000 0 0 0 1800
2019/09/22 09:24:00 BASE 38.98 30 47.07 33 -3.0 100 -3.0 0 0 968.6 NA 0.0000 -SN M 0 0 0 1570
2019/09/22 09:25:00 BASE 37.12 30 47.07 33 -3.1 100 -3.1 0 0 968.6 NA 0.0000 -SN M 0 0 0 2030
2019/09/22 09:26:00 BASE 39.50 30 47.07 33 -3.1 100 -3.1 0 0 968.3 NA 0.0000 -SN M 0 0 0 1840
2019/09/22 09:27:00 BASE 39.32 30 47.07 33 -3.1 100 -3.1 0 0 968.5 NA 0.0000 -SN M 0 0 0 1970
2019/09/22 09:28:00 BASE 40.41 31 49.18 31 -3.1 100 -3.1 0 0 968.1 NA 0.0000 -SN M 0 0 0 2030
2019/09/22 09:29:00 BASE 42.57 33 49.18 31 -3.1 100 -3.1 0 0 968.1 NA 0.0000 -SN M 0 0 0 2130
2019/09/22 09:30:00 BASE 41.07 32 49.18 31 -3.1 100 -3.1 0 0 968.3 NA 0.0000 M 0 0 0 2330
2019/09/22 09:31:00 BASE 39.75 29 49.18 31 -3.1 100 -3.1 0 0 968.1 NA 0.0000 M 0 0 0 2360
2019/09/22 09:32:00 BASE 40.41 27 49.18 31 -3.1 100 -3.1 0 0 968.1 NA 0.0000 M 0 0 0 2760
2019/09/22 09:33:00 BASE 39.94 25 49.18 31 -3.1 100 -3.1 0 0 968.3 NA 0.0000 -SN 5000 0 0 0 2690
2019/09/22 09:34:00 BASE 37.37 22 49.18 31 -3.0 100 -3.0 0 0 968.3 NA 0.0000 -SN M 0 0 0 2360
2019/09/22 09:35:00 BASE 37.32 22 49.18 31 -3.0 100 -3.0 0 0 968.2 NA 0.0000 -SN M 0 0 0 2890
2019/09/22 09:36:00 BASE 38.94 26 49.18 31 -2.9 100 -2.9 0 0 968.0 NA 0.0000 -SN M 0 0 0 1670
2019/09/22 09:37:00 BASE 39.74 26 49.18 31 -2.9 100 -2.9 0 0 968.2 NA 0.0000 -SN M 0 0 0 2170
2019/09/22 09:38:00 BASE 37.45 24 47.28 28 -2.9 100 -2.9 0 0 968.5 NA 0.0000 -SN M 0 0 0 2260
2019/09/22 09:39:00 BASE 36.01 25 47.28 28 -2.9 100 -2.9 0 0 968.2 NA 0.0000 -SN M 0 0 0 3180
2019/09/22 09:40:00 BASE 37.54 27 47.28 28 -3.0 100 -3.0 0 0 968.2 NA 0.0000 M 0 0 0 3150
2019/09/22 09:41:00 BASE 37.61 27 45.43 31 -3.0 100 -3.0 0 0 968.2 NA 0.0000 M 0 0 0 3050
2019/09/22 09:42:00 BASE 38.47 31 45.99 38 -3.0 100 -3.0 0 0 967.9 NA 0.0000 M 0 0 0 3180
2019/09/22 09:43:00 BASE 42.29 38 46.71 40 -3.0 100 -3.0 0 0 967.5 NA 0.0000 M 0 0 0 2760
2019/09/22 09:44:00 BASE 43.16 38 46.71 40 -3.1 100 -3.1 0 0 968.0 NA 0.0000 -SN 3800 0 0 0 3510
2019/09/22 09:45:00 BASE 39.08 32 46.71 40 -3.1 100 -3.1 0 0 968.2 NA 0.0000 -SN 8000 0 0 0 3640
2019/09/22 09:46:00 BASE 36.40 27 46.71 40 -3.1 100 -3.1 0 0 968.1 NA 0.0000 -SN M 0 0 0 3280
2019/09/22 09:47:00 BASE 38.74 29 46.71 40 -3.2 100 -3.2 0 0 967.6 NA 0.0000 -SN M 0 0 0 3220
2019/09/22 09:48:00 BASE 42.91 34 47.69 30 -3.2 100 -3.2 0 0 967.3 NA 0.0000 -SN M 0 0 0 2200
2019/09/22 09:49:00 BASE 43.16 37 47.69 30 -3.2 100 -3.2 0 0 967.6 NA 0.0000 -SN 5000 0 0 0 3510
2019/09/22 09:50:00 BASE 40.77 34 47.69 30 -3.2 100 -3.2 0 0 967.8 NA 0.0000 -SN M 0 0 0 3080
2019/09/22 09:51:00 BASE 39.38 30 47.69 30 -3.2 100 -3.2 0 0 967.7 NA 0.0000 -SN 8000 0 0 0 3120
2019/09/22 09:52:00 BASE 40.64 28 49.34 19 -3.2 100 -3.2 0 0 967.3 NA 0.0000 -SN M 0 0 0 2890
2019/09/22 09:53:00 BASE 42.02 30 49.34 19 -3.2 100 -3.2 0 0 967.5 NA 0.0000 -SN 8000 0 0 0 2230
2019/09/22 09:54:00 BASE 40.43 31 49.34 19 -3.2 100 -3.2 0 0 967.6 NA 0.0000 -SN M 0 0 0 2260
2019/09/22 09:55:00 BASE 38.66 29 49.34 19 -3.2 100 -3.2 0 0 967.6 NA 0.0000 -SN M 0 0 0 2300
2019/09/22 09:56:00 BASE 40.15 30 49.34 19 -3.2 100 -3.2 0 0 967.4 NA 0.0000 -SN 9999 0 0 0 2260
2019/09/22 09:57:00 BASE 41.87 32 49.34 19 -3.2 100 -3.2 0 0 967.4 NA 0.0000 -SN 9000 0 0 0 3970
2019/09/22 09:58:00 BASE 41.70 32 49.34 19 -3.2 100 -3.2 0 0 967.3 NA 0.0000 -SN 7000 0 0 0 2560
2019/09/22 09:59:00 BASE 42.02 33 49.34 19 -3.2 100 -3.2 0 0 967.1 NA 0.0000 -SN M 0 0 0 4040
2019/09/22 10:00:00 BASE 43.16 33 49.34 19 -3.2 100 -3.2 0 0 967.0 NA 0.0000 -SN 9999 0 0 0 2530
2019/09/22 10:01:00 BASE 43.62 33 49.34 19 -3.2 100 -3.2 0 0 967.0 NA 0.0000 -SN 9999 0 0 0 3480
2019/09/22 10:02:00 BASE 43.80 33 48.20 38 -3.2 100 -3.2 0 0 966.8 NA 0.0000 -SN 8000 0 0 0 2720
2019/09/22 10:03:00 BASE 44.21 33 48.20 38 -3.2 100 -3.2 1 0 966.9 NA 0.0000 -SN 9000 0 0 0 2430
2019/09/22 10:04:01 BASE 44.31 33 49.13 31 -3.2 100 -3.2 1 0 966.9 NA 0.0000 -SN BR 6000 0 0 0 2100
2019/09/22 10:05:01 BASE 43.23 31 49.13 31 -3.2 100 -3.2 1 0 966.9 NA 0.0000 -SN BR 7000 0 0 0 2330
2019/09/22 10:06:01 BASE 42.03 31 49.13 31 -3.3 100 -3.3 1 0 966.9 NA 0.0000 -SN BR 9000 0 0 0 1670
2019/09/22 10:07:01 BASE 40.50 32 49.13 31 -3.3 100 -3.3 1 0 967.1 NA 0.0000 -SN BR 9000 0 0 0 2950
2019/09/22 10:08:01 BASE 39.10 31 49.13 31 -3.3 100 -3.3 1 0 967.1 NA 0.0000 -SN BR 9000 0 0 0 5220
2019/09/22 10:09:01 BASE 40.30 33 49.13 31 -3.4 100 -3.4 1 0 966.8 NA 0.0000 -SN BR 8000 0 0 0 5910
2019/09/22 10:10:01 BASE 43.75 35 50.16 34 -3.4 100 -3.4 1 0 966.3 NA 0.0000 -SN BR 7000 0 0 0 1640
2019/09/22 10:11:01 BASE 45.46 34 50.16 34 -3.3 100 -3.3 1 0 966.6 NA 0.0000 -SN BR 6000 0 0 0 4790
2019/09/22 10:12:01 BASE 42.05 31 50.16 34 -3.3 100 -3.3 1 0 967.0 NA 0.0000 -SN BR 7000 0 0 0 4330
2019/09/22 10:13:01 BASE 37.26 29 50.16 34 -3.3 100 -3.3 1 1 967.3 NA 0.0000 -SN BR M 0 0 0 4560
2019/09/22 10:14:01 BASE 36.75 29 50.16 34 -3.3 100 -3.3 2 0 967.0 NA 0.0000 -SN BR 6000 0 0 0 4430
2019/09/22 10:15:01 BASE 38.01 28 50.16 34 -3.3 100 -3.3 2 0 967.1 NA 0.0000 -SN BR 9999 0 0 0 1380
2019/09/22 10:16:01 BASE 34.96 24 50.16 34 -3.3 100 -3.3 2 0 967.1 NA 0.0000 -SN BR 9999 0 0 0 1610
2019/09/22 10:17:01 BASE 38.12 27 50.16 34 -3.3 100 -3.3 2 0 966.4 NA 0.0000 -SN BR 9999 0 0 0 1970
2019/09/22 10:18:01 BASE 42.15 36 50.16 34 -3.3 100 -3.3 3 0 966.7 NA 0.0000 -SN BR 4600 0 0 0 1410
2019/09/22 10:19:01 BASE 38.74 33 50.16 34 -3.3 100 -3.3 3 0 967.0 NA 0.0000 -SN BR 4600 0 0 0 1740
2019/09/22 10:20:01 BASE 37.14 29 48.10 33 -3.3 100 -3.3 3 0 966.8 NA 0.0000 -SN BR 6000 0 0 0 1670
2019/09/22 10:21:01 BASE 38.86 33 47.23 44 -3.3 100 -3.3 3 0 966.7 NA 0.0000 -SN BR M 0 0 0 1900
2019/09/22 10:22:01 BASE 42.69 35 48.98 31 -3.3 100 -3.3 3 0 966.1 NA 0.0000 -SN M 0 0 0 1970
2019/09/22 10:23:01 BASE 43.93 35 48.98 31 -3.3 100 -3.3 4 0 966.5 NA 0.0000 -SN BR 6000 0 0 0 1870
2019/09/22 10:24:01 BASE 39.40 35 48.98 31 -3.3 100 -3.3 4 0 966.9 NA 0.0000 -SN BR 5000 0 0 0 2460
2019/09/22 10:25:01 BASE 40.11 37 50.88 42 -3.3 100 -3.3 4 0 966.2 NA 0.0000 -SN BR 5000 0 0 0 2400
2019/09/22 10:26:01 BASE 43.30 37 50.88 42 -3.3 100 -3.3 5 0 966.4 NA 0.0000 -SN BR 6000 0 0 0 2430
2019/09/22 10:27:01 BASE 41.83 35 50.88 42 -3.3 100 -3.3 5 0 966.5 NA 0.0000 -SN BR 7000 0 0 0 4070
2019/09/22 10:28:01 BASE 40.45 31 50.88 42 -3.3 100 -3.3 5 0 966.7 NA 0.0000 -SN M 0 0 0 3710
2019/09/22 10:29:01 BASE 38.54 30 50.88 42 -3.3 100 -3.3 6 0 966.6 NA 0.0000 -SN M 0 0 0 3450
2019/09/22 10:30:01 BASE 40.80 32 50.88 42 -3.3 100 -3.3 6 0 966.1 NA 0.0000 -SN 7000 0 0 0 3020
2019/09/22 10:31:01 BASE 43.26 34 50.88 42 -3.3 100 -3.3 6 0 966.2 NA 0.0000 -SN M 0 0 0 2330
2019/09/22 10:32:01 BASE 42.88 33 50.88 42 -3.3 100 -3.3 7 0 966.2 NA 0.0000 -SN M 0 0 0 2790
2019/09/22 10:33:01 BASE 42.16 30 50.88 42 -3.2 100 -3.2 7 0 966.1 NA 0.0000 -SN M 0 0 0 2400
2019/09/22 10:34:01 BASE 42.19 29 50.88 42 -3.2 100 -3.2 7 0 966.0 NA 0.0000 -SN M 0 0 0 2000
2019/09/22 10:35:01 BASE 41.83 28 49.59 26 -3.1 100 -3.1 7 0 966.2 NA 0.0000 -SN M 0 0 0 2720
2019/09/22 10:36:01 BASE 40.20 29 49.59 26 -3.1 100 -3.1 8 0 966.2 NA 0.0000 -SN M 0 0 0 2560
2019/09/22 10:37:01 BASE 42.55 32 50.16 28 -3.1 100 -3.1 8 0 965.8 NA 0.0000 M 0 0 0 2490
2019/09/22 10:38:01 BASE 43.67 33 50.16 28 -3.1 100 -3.1 8 0 966.0 NA 0.0000 M 0 0 0 3220
2019/09/22 10:39:01 BASE 41.74 32 50.16 28 -3.1 100 -3.1 8 0 966.2 NA 0.0000 M 0 0 0 3150
2019/09/22 10:40:01 BASE 41.15 32 50.16 28 -3.1 100 -3.1 8 0 966.1 NA 0.0000 M 0 0 0 2890
2019/09/22 10:41:01 BASE 40.99 32 50.16 28 -3.1 100 -3.1 8 0 966.1 NA 0.0000 M 0 0 0 3120
2019/09/22 10:42:01 BASE 41.37 31 50.16 28 -3.1 100 -3.1 9 0 966.1 NA 0.0000 M 0 0 0 3840
2019/09/22 10:43:01 BASE 40.29 31 50.16 28 -3.1 100 -3.1 9 0 966.3 NA 0.0000 M 0 0 0 3740
2019/09/22 10:44:01 BASE 38.23 30 50.16 28 -3.1 100 -3.1 9 0 966.3 NA 0.0000 M 0 0 0 4490
2019/09/22 10:45:01 BASE 39.30 28 50.16 28 -3.2 100 -3.2 9 0 966.1 NA 0.0000 M 0 0 0 3610
2019/09/22 10:46:01 BASE 40.13 28 50.16 28 -3.2 100 -3.2 9 0 966.3 NA 0.0000 M 0 0 0 2760
2019/09/22 10:47:01 BASE 38.84 29 47.89 26 -3.2 100 -3.2 9 0 966.2 NA 0.0000 M 0 0 0 4040
2019/09/22 10:48:01 BASE 42.27 33 51.14 35 -3.2 100 -3.2 10 0 965.4 NA 0.0000 M 0 0 0 2100
2019/09/22 10:49:01 BASE 45.94 36 51.14 40 -3.2 100 -3.2 10 0 965.6 NA 0.0000 SQ M 0 0 0 1970
2019/09/22 10:50:01 BASE 43.47 35 51.14 40 -3.2 100 -3.2 10 0 966.1 NA 0.0000 M 0 0 0 3150
2019/09/22 10:51:01 BASE 39.67 32 51.14 40 -3.2 100 -3.2 11 0 966.2 NA 0.0000 M 0 0 0 2590
2019/09/22 10:52:01 BASE 38.65 29 51.14 40 -3.1 100 -3.1 11 0 966.1 NA 0.0000 M 0 0 0 2490
2019/09/22 10:53:01 BASE 39.07 27 51.14 40 -3.2 100 -3.2 11 1 966.1 NA 0.0000 M 0 0 0 2260
2019/09/22 10:54:01 BASE 38.20 29 51.14 40 -3.2 100 -3.2 12 0 966.1 NA 0.0000 M 0 0 0 2330
2019/09/22 10:55:01 BASE 38.59 32 51.14 40 -3.2 100 -3.2 13 0 965.7 NA 0.0000 M 0 0 0 2070
2019/09/22 10:56:01 BASE 40.36 35 51.14 40 -3.2 100 -3.2 13 0 965.8 NA 0.0000 M 0 0 0 2030
2019/09/22 10:57:01 BASE 40.94 34 51.14 40 -3.2 100 -3.2 13 0 965.8 NA 0.0000 M 0 0 0 2260
2019/09/22 10:58:01 BASE 39.57 31 51.14 40 -3.1 100 -3.1 14 0 966.0 NA 0.0000 M 0 0 0 2330
2019/09/22 10:59:01 BASE 34.90 28 46.87 31 -3.1 100 -3.1 14 0 966.2 NA 0.0000 M 0 0 0 2260
2019/09/22 11:00:01 BASE 36.42 28 46.87 31 -3.1 100 -3.1 15 0 965.5 NA 0.0000 M 0 0 0 3770
2019/09/22 11:01:01 BASE 42.39 31 49.34 36 -3.0 100 -3.0 15 0 965.5 NA 0.0000 M 0 0 0 2760
2019/09/22 11:02:01 BASE 39.61 30 49.34 36 -2.9 100 -2.9 16 0 965.9 NA 0.0000 SQ M 0 0 0 3840
2019/09/22 11:03:01 BASE 37.18 28 49.34 36 -2.9 100 -2.9 16 0 965.6 NA 0.0000 M 0 0 0 1900
2019/09/22 11:04:01 BASE 39.21 30 49.34 36 -2.8 100 -2.8 16 0 965.5 NA 0.0000 M 0 0 0 2330
2019/09/22 11:05:01 BASE 40.20 31 49.34 36 -2.7 100 -2.7 16 0 965.5 NA 0.0000 M 0 0 0 2030
2019/09/22 11:06:01 BASE 40.46 31 49.34 36 -2.7 100 -2.7 17 0 965.6 NA 0.0000 M 0 0 0 2620
2019/09/22 11:07:01 BASE 41.63 32 49.34 36 -2.7 100 -2.7 17 0 965.2 NA 0.0000 M 0 0 0 2620
2019/09/22 11:08:01 BASE 42.18 33 49.34 36 -2.7 100 -2.7 17 0 965.4 NA 0.0000 M 0 0 0 2620
2019/09/22 11:09:01 BASE 40.98 34 49.34 36 -2.6 100 -2.6 17 0 965.5 NA 0.0000 M 0 0 0 2460
2019/09/22 11:10:01 BASE 39.82 35 49.34 36 -2.6 100 -2.6 18 0 965.5 NA 0.0000 M 0 0 0 2490
2019/09/22 11:11:01 BASE 40.04 35 46.40 32 -2.6 100 -2.6 18 0 965.3 NA 0.0000 M 0 0 0 2000
2019/09/22 11:12:01 BASE 40.52 35 46.40 32 -2.6 100 -2.6 18 0 965.4 NA 0.0000 M 0 0 0 2030
2019/09/22 11:13:00 BASE 40.03 33 46.66 28 -2.6 100 -2.6 18 0 965.4 NA 0.0000 M 0 0 0 3080
2019/09/22 11:14:00 BASE 38.87 31 46.66 28 -2.6 100 -2.6 18 0 965.6 NA 0.0000 M 0 0 0 2620
2019/09/22 11:15:00 BASE 37.98 32 46.66 28 -2.6 100 -2.6 19 0 965.5 NA 0.0000 M 300 0 0 0
2019/09/22 11:16:00 BASE 39.06 34 46.66 28 -2.5 100 -2.5 19 0 965.3 NA 0.0000 5000 0 0 0 2070
2019/09/22 11:17:00 BASE 40.71 35 46.66 28 -2.5 100 -2.5 20 0 965.3 NA 0.0000 M 0 0 0 2490
2019/09/22 11:18:00 BASE 40.51 35 46.66 28 -2.5 100 -2.5 21 0 965.4 NA 0.0000 5000 0 0 0 2850
2019/09/22 11:19:00 BASE 39.18 33 46.66 28 -2.6 100 -2.6 22 0 965.4 NA 0.0000 6000 0 0 0 2950
2019/09/22 11:20:00 BASE 39.07 34 46.66 28 -2.6 100 -2.6 23 0 965.3 NA 0.0000 8000 0 0 0 3220
2019/09/22 11:21:00 BASE 40.50 35 46.66 28 -2.6 100 -2.6 24 0 965.1 NA 0.0000 M 0 0 0 3020
2019/09/22 11:22:00 BASE 40.50 34 46.66 28 -2.5 100 -2.5 24 0 965.2 NA 0.0000 M 0 0 0 3050
2019/09/22 11:23:00 BASE 39.76 33 44.35 34 -2.5 100 -2.5 24 0 965.1 NA 0.0000 M 0 0 0 3480
2019/09/22 11:24:00 BASE 39.91 33 44.35 34 -2.5 100 -2.5 24 0 965.1 NA 0.0000 M 0 0 0 3380
2019/09/22 11:25:00 BASE 39.74 33 44.35 34 -2.5 100 -2.5 24 0 965.1 NA 0.0000 5000 0 0 0 3870
2019/09/22 11:26:00 BASE 38.90 34 44.19 30 -2.5 100 -2.5 24 0 965.2 NA 0.0000 M 0 0 0 3670
2019/09/22 11:27:00 BASE 39.18 33 44.19 30 -2.5 100 -2.5 25 0 965.1 NA 0.0000 M 0 0 0 3350
2019/09/22 11:28:00 BASE 39.82 32 44.19 30 -2.5 100 -2.5 25 0 965.1 NA 0.0000 M 0 0 0 3180
2019/09/22 11:29:00 BASE 39.58 35 44.19 30 -2.5 100 -2.5 26 0 965.0 NA 0.0000 M 0 0 0 2170
2019/09/22 11:30:00 BASE 40.29 36 46.87 40 -2.5 100 -2.5 26 0 964.9 NA 0.0000 4700 0 0 0 1710
2019/09/22 11:31:00 BASE 39.96 36 46.87 40 -2.5 100 -2.5 27 1 964.9 NA 0.0000 3700 0 0 0 2070
2019/09/22 11:32:00 BASE 38.77 34 46.87 40 -2.5 100 -2.5 28 0 965.0 NA 0.0000 4100 0 0 0 1670
2019/09/22 11:33:00 BASE 38.48 34 46.87 40 -2.5 100 -2.5 28 0 964.8 NA 0.0000 5000 0 0 0 1840
2019/09/22 11:34:00 BASE 40.32 36 46.87 40 -2.6 100 -2.6 29 0 964.7 NA 0.0000 6000 0 0 0 1970
2019/09/22 11:35:00 BASE 40.90 35 46.87 40 -2.6 100 -2.6 30 0 964.8 NA 0.0000 5000 0 0 0 2530
2019/09/22 11:36:00 BASE 40.40 34 46.87 40 -2.6 100 -2.6 30 0 964.7 NA 0.0000 5000 0 0 0 3150
2019/09/22 11:37:00 BASE 40.04 34 46.87 40 -2.6 100 -2.6 31 0 964.8 NA 0.0000 BR 4500 0 0 0 2790
2019/09/22 11:38:00 BASE 39.31 35 46.87 40 -2.6 100 -2.6 32 0 964.7 NA 0.0000 BR 5000 0 0 0 2660
2019/09/22 11:39:00 BASE 39.25 34 46.87 40 -2.6 100 -2.6 33 0 964.7 NA 0.0000 BR 4800 0 0 0 1640
2019/09/22 11:40:00 BASE 39.92 32 45.58 41 -2.6 100 -2.6 34 0 964.7 NA 0.0000 BR 5000 0 0 0 1740
2019/09/22 11:41:00 BASE 40.55 34 45.58 41 -2.6 100 -2.6 36 0 964.6 NA 0.0000 BR 6000 0 0 0 1380
2019/09/22 11:42:00 BASE 41.19 36 45.99 40 -2.6 100 -2.6 38 0 964.4 NA 0.0000 BR M 0 0 0 1480
2019/09/22 11:43:00 BASE 40.32 35 45.99 40 -2.6 100 -2.6 39 0 964.5 NA 0.0000 BR M 0 0 0 1570
2019/09/22 11:44:00 BASE 38.78 34 45.99 40 -2.6 100 -2.6 40 0 964.4 NA 0.0000 M 0 0 0 1740
2019/09/22 11:45:00 BASE 40.32 35 45.99 40 -2.6 100 -2.6 40 0 964.3 NA 0.0000 M 0 0 0 1800
2019/09/22 11:46:00 BASE 41.80 36 45.99 40 -2.6 100 -2.6 41 0 964.3 NA 0.0000 M 0 0 0 1970
2019/09/22 11:47:00 BASE 41.31 35 45.99 40 -2.6 100 -2.6 41 0 964.4 NA 0.0000 M 0 0 0 2170
2019/09/22 11:48:00 BASE 40.71 34 45.99 40 -2.6 100 -2.6 41 0 964.3 NA 0.0000 M 0 0 0 1610
2019/09/22 11:49:00 BASE 40.24 34 45.99 40 -2.6 100 -2.6 42 0 964.4 NA 0.0000 M 0 0 0 2030
2019/09/22 11:50:00 BASE 40.85 33 45.99 40 -2.6 100 -2.6 43 0 964.2 NA 0.0000 M 0 0 0 2130
2019/09/22 11:51:00 BASE 41.40 33 45.99 40 -2.6 100 -2.6 43 1 964.2 NA 0.0000 M 0 0 0 1940
2019/09/22 11:52:00 BASE 40.10 33 45.94 38 -2.6 100 -2.6 44 0 964.3 NA 0.0000 M 0 0 0 1870
2019/09/22 11:53:00 BASE 39.73 33 45.94 38 -2.6 100 -2.6 44 0 964.3 NA 0.0000 M 0 0 0 2130
2019/09/22 11:54:00 BASE 40.33 34 45.94 38 -2.6 100 -2.6 45 0 964.2 NA 0.0000 M 0 0 0 2260
2019/09/22 11:55:00 BASE 40.76 34 45.94 38 -2.6 100 -2.6 45 0 964.1 NA 0.0000 M 0 0 0 2460
2019/09/22 11:56:00 BASE 40.28 33 45.43 37 -2.6 100 -2.6 46 0 964.2 NA 0.0000 M 0 0 0 2790
2019/09/22 11:57:00 BASE 39.70 33 45.07 30 -2.5 100 -2.5 47 0 964.2 NA 0.0000 M 0 0 0 2850
2019/09/22 11:58:00 BASE 39.62 34 45.01 36 -2.5 100 -2.5 47 0 964.2 NA 0.0000 M 0 0 0 2790
2019/09/22 11:59:00 BASE 38.50 36 45.01 36 -2.4 100 -2.4 48 0 964.2 NA 0.0000 M 0 0 0 2360
2019/09/22 12:00:00 BASE 37.87 34 45.01 36 -2.4 100 -2.4 49 0 964.2 NA 0.0000 M 0 0 0 2490
2019/09/22 12:01:00 BASE 38.91 34 45.01 36 -2.5 100 -2.5 49 0 964.1 NA 0.0000 M 0 0 0 2690
2019/09/22 12:02:00 BASE 39.29 34 45.01 36 -2.5 100 -2.5 50 0 964.1 NA 0.0000 M 0 0 0 2760
2019/09/22 12:03:00 BASE 39.67 33 45.01 36 -2.5 100 -2.5 51 0 963.9 NA 0.0000 M 0 0 0 2200
2019/09/22 12:04:00 BASE 39.65 33 45.01 36 -2.5 100 -2.5 53 0 964.0 NA 0.0000 M 0 0 0 2590
2019/09/22 12:05:00 BASE 37.72 33 44.29 27 -2.5 100 -2.5 54 0 964.1 NA 0.0000 M 0 0 0 2660
2019/09/22 12:06:00 BASE 37.72 31 43.11 28 -2.4 100 -2.4 54 0 963.9 NA 0.0000 M 0 0 0 3280
2019/09/22 12:07:00 BASE 38.62 30 43.11 28 -2.4 100 -2.4 55 0 964.0 NA 0.0000 M 0 0 0 2920
2019/09/22 12:08:00 BASE 37.42 30 43.11 28 -2.4 100 -2.4 55 0 964.1 NA 0.0000 M 0 0 0 3120
2019/09/22 12:09:00 BASE 37.03 30 43.11 28 -2.3 100 -2.3 56 0 964.0 NA 0.0000 M 0 0 0 2990
2019/09/22 12:10:00 BASE 37.54 31 43.11 28 -2.3 100 -2.3 57 0 963.9 NA 0.0000 M 0 0 0 3020
2019/09/22 12:11:00 BASE 38.44 33 43.21 35 -2.2 100 -2.2 58 0 963.7 NA 0.0000 M 0 0 0 2720
2019/09/22 12:12:00 BASE 38.56 33 43.21 35 -2.2 100 -2.2 59 0 963.8 NA 0.0000 M 0 0 0 3350
2019/09/22 12:13:00 BASE 37.92 35 43.21 35 -2.2 100 -2.2 61 0 963.8 NA 0.0000 M 0 0 0 2950
2019/09/22 12:14:00 BASE 37.01 35 43.21 35 -2.1 100 -2.1 62 0 963.9 NA 0.0000 M 0 0 0 3480
2019/09/22 12:15:00 BASE 36.09 34 43.21 35 -2.1 100 -2.1 63 0 963.8 NA 0.0000 M 0 0 0 3540
2019/09/22 12:16:00 BASE 37.75 34 43.21 35 -2.1 100 -2.1 64 0 963.7 NA 0.0000 M 20340 0 0 0
2019/09/22 12:17:00 BASE 36.28 32 43.21 35 -2.1 100 -2.1 64 0 964.0 NA 0.0000 M 0 0 0 3250
2019/09/22 12:18:00 BASE 34.44 31 43.21 35 -2.1 100 -2.1 64 0 963.8 NA 0.0000 M 0 0 0 2760
2019/09/22 12:19:00 BASE 37.29 30 43.21 35 -2.0 100 -2.0 64 0 963.5 NA 0.0000 M 0 0 0 2690
2019/09/22 12:20:00 BASE 35.02 27 43.21 35 -2.0 100 -2.0 65 0 963.9 NA 0.0000 M 0 0 0 3150
2019/09/22 12:21:00 BASE 33.07 31 42.44 32 -2.0 100 -2.0 65 0 963.8 NA 0.0000 M 0 0 0 2200
2019/09/22 12:22:00 BASE 37.16 37 45.01 44 -2.0 100 -2.0 67 0 963.2 NA 0.0000 M 0 0 0 2230
2019/09/22 12:23:00 BASE 39.60 36 45.01 44 -1.9 100 -1.9 68 0 963.4 NA 0.0000 M 0 0 0 2430
2019/09/22 12:24:00 BASE 37.60 32 45.01 44 -1.9 100 -1.9 68 0 963.7 NA 0.0000 M 0 0 0 5320
2019/09/22 12:25:00 BASE 34.68 32 45.01 44 -1.9 100 -2.0 67 0 963.7 NA 0.0000 M 0 0 0 1970
2019/09/22 12:26:00 BASE 33.87 34 45.01 44 -1.9 99 -2.0 67 0 963.6 NA 0.0000 M 0 0 0 2030
2019/09/22 12:27:00 BASE 36.46 34 45.01 44 -1.8 99 -1.9 67 0 963.2 NA 0.0000 M 0 0 0 1480
2019/09/22 12:28:00 BASE 37.95 37 45.01 44 -1.8 99 -2.0 68 0 963.4 NA 0.0000 M 0 0 0 1710
2019/09/22 12:29:00 BASE 36.80 37 45.01 44 -1.8 99 -2.0 68 0 963.2 NA 0.0000 M 0 0 0 1970
2019/09/22 12:30:00 BASE 37.67 34 45.01 44 -1.7 98 -1.9 68 0 963.2 NA 0.0000 M 0 0 0 2330
2019/09/22 12:31:00 BASE 35.76 25 45.01 44 -1.7 98 -1.9 67 0 963.5 NA 0.0000 M 0 0 0 4270
2019/09/22 12:32:00 BASE 33.64 24 42.49 37 -1.7 98 -1.9 67 0 963.5 NA 0.0000 M 0 0 0 1610
2019/09/22 12:33:00 BASE 35.07 32 42.39 39 -1.7 98 -1.9 68 0 963.1 NA 0.0000 M 22210 0 0 0
2019/09/22 12:34:00 BASE 36.01 35 42.39 39 -1.6 98 -1.9 69 0 963.2 NA 0.0000 M 0 0 0 2360
2019/09/22 12:35:01 BASE 34.93 36 42.39 39 -1.7 98 -2.0 70 0 963.3 NA 0.0000 M 0 0 0 3610
2019/09/22 12:36:00 BASE 35.44 34 42.39 39 -1.7 97 -2.1 70 0 963.1 NA 0.0000 M 0 0 0 3740
2019/09/22 12:37:00 BASE 35.84 33 41.77 27 -1.7 97 -2.1 72 0 963.2 NA 0.0000 M 0 0 0 3740
2019/09/22 12:38:00 BASE 34.67 34 41.77 27 -1.8 97 -2.2 73 0 963.2 NA 0.0000 M 0 0 0 4130
2019/09/22 12:39:00 BASE 35.40 36 41.77 27 -1.8 97 -2.2 75 0 963.2 NA 0.0000 M 0 0 0 3580
2019/09/22 12:40:00 BASE 34.96 37 40.80 33 -1.8 97 -2.2 76 0 963.2 NA 0.0000 M 0 0 0 3740
2019/09/22 12:41:00 BASE 34.43 36 40.80 33 -1.8 97 -2.2 77 0 963.1 NA 0.0000 M 0 0 0 4820
2019/09/22 12:42:00 BASE 35.35 35 40.80 33 -1.8 97 -2.2 78 0 963.1 NA 0.0000 M 0 0 0 3810
2019/09/22 12:43:00 BASE 34.53 33 40.80 33 -1.8 97 -2.2 78 0 963.1 NA 0.0000 M 0 0 0 1840
2019/09/22 12:44:00 BASE 34.17 32 40.80 33 -1.7 97 -2.1 78 0 963.0 NA 0.0000 M 0 0 0 2720
2019/09/22 12:45:00 BASE 34.13 29 40.80 33 -1.7 97 -2.1 77 0 963.0 NA 0.0000 M 0 0 0 3540
2019/09/22 12:46:00 BASE 32.79 26 40.80 33 -1.6 97 -2.1 77 0 963.0 NA 0.0000 M 0 0 0 3710
2019/09/22 12:47:00 BASE 34.63 28 40.80 33 -1.6 97 -2.0 76 0 962.7 NA 0.0000 M 0 0 0 4330
2019/09/22 12:48:00 BASE 37.45 33 40.80 33 -1.6 97 -2.0 76 0 962.6 NA 0.0000 M 0 0 0 4690
2019/09/22 12:49:00 BASE 37.08 35 41.21 39 -1.5 97 -2.0 77 0 962.7 NA 0.0000 M 0 0 0 5090
2019/09/22 12:50:00 BASE 36.34 34 41.21 39 -1.5 97 -1.9 78 0 962.7 NA 0.0000 M 21750 0 0 0
2019/09/22 12:51:00 BASE 36.45 32 41.21 39 -1.5 97 -1.9 79 0 962.7 NA 0.0000 M 0 0 0 1570
2019/09/22 12:52:00 BASE 36.84 32 41.21 39 -1.5 97 -2.0 79 0 962.5 NA 0.2540 M 0 0 0 1440
2019/09/22 12:53:00 BASE 36.61 34 41.21 39 -1.6 97 -2.0 80 0 962.5 NA 0.0000 M 0 0 0 1380
2019/09/22 12:54:00 BASE 36.30 35 41.46 36 -1.6 97 -2.0 82 0 962.4 NA 0.0000 M 0 0 0 1440
2019/09/22 12:55:00 BASE 38.01 36 42.90 38 -1.5 97 -2.0 83 0 962.2 NA 0.0000 M 0 0 0 1410
2019/09/22 12:56:00 BASE 37.66 35 42.90 38 -1.5 97 -1.9 85 0 962.5 NA 0.0000 M 0 0 0 1540
2019/09/22 12:57:00 BASE 35.82 33 42.90 38 -1.5 97 -1.9 86 0 962.4 NA 0.0000 M 0 0 0 1610
2019/09/22 12:58:00 BASE 36.54 33 42.90 38 -1.4 97 -1.8 87 0 962.3 NA 0.0000 M 0 0 0 1710
2019/09/22 12:59:00 BASE 36.65 33 42.90 38 -1.4 97 -1.8 88 0 962.3 NA 0.0000 M 0 0 0 1540
2019/09/22 13:00:00 BASE 37.19 34 42.90 38 -1.4 97 -1.8 89 0 962.2 NA 0.0000 M 0 0 0 2230
2019/09/22 13:01:00 BASE 37.18 35 42.90 38 -1.4 97 -1.9 90 0 962.2 NA 0.0000 M 0 0 0 2360
2019/09/22 13:02:00 BASE 36.18 34 42.90 38 -1.4 96 -1.9 91 0 962.3 NA 0.0000 M 0 0 0 3150
2019/09/22 13:03:00 BASE 35.83 33 42.90 38 -1.4 96 -1.9 92 0 962.3 NA 0.0000 M 0 0 0 3640
2019/09/22 13:04:00 BASE 35.80 34 42.90 38 -1.4 96 -2.0 93 0 962.3 NA 0.0000 M 0 0 0 4100
2019/09/22 13:05:00 BASE 35.71 33 40.59 28 -1.4 96 -2.0 93 0 962.3 NA 0.0000 M 0 0 0 4200
2019/09/22 13:06:00 BASE 35.68 32 40.59 28 -1.4 96 -2.0 93 0 962.3 NA 0.0000 M 0 0 0 3740
2019/09/22 13:07:00 BASE 35.73 31 40.59 28 -1.4 96 -2.0 93 0 962.3 NA 0.0000 M 0 0 0 3510
2019/09/22 13:08:00 BASE 35.17 31 40.59 28 -1.4 96 -1.9 94 0 962.3 NA 0.0000 M 0 0 0 4920
2019/09/22 13:09:00 BASE 35.69 32 40.54 30 -1.4 96 -1.9 94 0 962.3 NA 0.0000 M 0 0 0 4100
2019/09/22 13:10:00 BASE 36.68 34 40.54 30 -1.4 96 -1.9 94 0 962.2 NA 0.0000 M 0 0 0 3180
2019/09/22 13:11:00 BASE 36.65 32 40.90 33 -1.3 96 -2.0 95 0 962.2 NA 0.2540 M 0 0 0 2920
2019/09/22 13:12:00 BASE 35.93 33 40.90 33 -1.3 95 -2.0 95 0 962.2 NA 0.0000 M 0 0 0 3380
2019/09/22 13:13:00 BASE 35.88 32 40.90 33 -1.3 95 -2.0 96 0 962.1 NA 0.0000 M 0 0 0 2820
2019/09/22 13:14:00 BASE 35.96 31 40.90 33 -1.3 95 -2.0 96 0 962.1 NA 0.0000 M 0 0 0 1570
2019/09/22 13:15:00 BASE 34.77 31 40.90 33 -1.3 95 -2.0 95 0 962.2 NA 0.0000 M 0 0 0 1900
2019/09/22 13:16:00 BASE 33.51 29 40.90 33 -1.3 95 -2.0 95 0 962.1 NA 0.0000 M 0 0 0 1350
2019/09/22 13:17:00 BASE 35.23 28 40.90 33 -1.2 95 -2.0 94 0 961.9 NA 0.0000 M 0 0 0 1840
2019/09/22 13:18:00 BASE 36.27 29 40.90 33 -1.2 94 -2.0 93 0 961.9 NA 0.0000 M 0 0 0 2460
2019/09/22 13:19:01 BASE 35.07 30 41.67 33 -1.2 94 -2.0 91 0 962.0 NA 0.0000 M 0 0 0 2560
2019/09/22 13:20:01 BASE 35.06 30 41.67 33 -1.2 94 -2.0 89 0 961.9 NA 0.0000 M 0 0 0 5510
2019/09/22 13:21:01 BASE 33.82 29 41.67 33 -1.2 94 -2.0 87 0 962.1 NA 0.0000 M 0 0 0 7740
2019/09/22 13:22:01 BASE 33.46 29 41.67 33 -1.2 94 -2.0 84 0 961.9 NA 0.0000 M 0 0 0 7580
2019/09/22 13:23:01 BASE 34.48 29 41.67 33 -1.2 94 -2.0 82 0 961.9 NA 0.0000 M 0 0 0 7420
2019/09/22 13:24:01 BASE 34.43 30 41.67 33 -1.2 94 -2.1 80 0 961.9 NA 0.0000 M 0 0 0 7420
2019/09/22 13:25:01 BASE 33.31 29 41.67 33 -1.2 94 -2.1 77 0 962.0 NA 0.0000 M 23130 0 0 0
2019/09/22 13:26:01 BASE 32.41 28 41.67 33 -1.2 94 -2.1 75 0 962.0 NA 0.2540 M 0 0 0 7280
2019/09/22 13:27:01 BASE 33.35 30 41.67 33 -1.2 93 -2.1 73 0 961.9 NA 0.0000 M 0 0 0 7120
2019/09/22 13:28:01 BASE 34.98 32 41.67 33 -1.2 93 -2.1 71 0 961.8 NA 0.0000 M 0 0 0 6860
2019/09/22 13:29:01 BASE 36.23 32 43.83 25 -1.2 93 -2.2 71 0 961.7 NA 0.0000 M 0 0 0 7090
2019/09/22 13:30:01 BASE 36.59 30 43.83 25 -1.2 93 -2.2 71 0 961.7 NA 0.0000 M 0 0 0 6960
2019/09/22 13:31:01 BASE 34.74 28 43.83 25 -1.2 93 -2.2 70 0 961.9 NA 0.0000 M 0 0 0 6460
2019/09/22 13:32:01 BASE 33.15 29 43.83 25 -1.2 92 -2.3 70 0 961.8 NA 0.0000 M 0 0 0 5380
2019/09/22 13:33:01 BASE 33.03 29 43.83 25 -1.2 92 -2.3 69 0 961.8 NA 0.0000 M 0 0 0 5810
2019/09/22 13:34:01 BASE 33.47 29 43.83 25 -1.2 92 -2.3 68 0 961.7 NA 0.0000 M 0 0 0 5810
2019/09/22 13:35:01 BASE 33.58 29 43.83 25 -1.1 92 -2.2 67 0 961.8 NA 0.0000 M 0 0 0 5740
2019/09/22 13:36:01 BASE 32.73 29 43.83 25 -1.0 92 -2.2 66 0 961.9 NA 0.0000 M 0 0 0 5350
2019/09/22 13:37:01 BASE 31.30 30 43.83 25 -1.0 92 -2.1 66 0 962.0 NA 0.0000 M 0 0 0 4860
2019/09/22 13:38:01 BASE 31.57 32 43.83 25 -0.9 92 -2.1 66 0 961.8 NA 0.0000 M 0 0 0 4300
2019/09/22 13:39:01 BASE 31.00 31 41.05 32 -0.9 92 -2.1 66 0 961.9 NA 0.0000 M 0 0 0 6630
2019/09/22 13:40:01 BASE 30.80 31 38.33 39 -0.9 92 -2.0 67 0 961.8 NA 0.0000 M 0 0 0 6820
2019/09/22 13:41:01 BASE 33.54 32 38.33 39 -0.9 92 -2.0 67 0 961.6 NA 0.0000 M 0 0 0 6760
2019/09/22 13:42:01 BASE 33.46 31 37.71 28 -0.9 93 -2.0 68 0 961.7 NA 0.0000 M 0 0 0 6790
2019/09/22 13:43:01 BASE 32.25 32 37.71 28 -0.9 93 -1.9 69 0 961.7 NA 0.0000 M 0 0 0 6660
2019/09/22 13:44:01 BASE 32.27 33 37.71 28 -0.9 93 -1.9 71 0 961.7 NA 0.0000 M 0 0 0 6500
2019/09/22 13:45:01 BASE 31.64 32 37.71 28 -0.9 93 -1.9 74 0 961.7 NA 0.0000 M 0 0 0 6460
2019/09/22 13:46:01 BASE 31.31 32 37.71 28 -0.9 93 -1.9 77 0 961.7 NA 0.0000 M 0 0 0 6270
2019/09/22 13:47:01 BASE 32.02 31 38.63 33 -0.9 93 -1.9 79 0 961.6 NA 0.0000 M 0 0 0 6330
2019/09/22 13:48:01 BASE 32.33 31 38.63 33 -0.9 93 -1.9 80 0 961.6 NA 0.0000 M 0 0 0 6330
2019/09/22 13:49:01 BASE 32.95 31 38.63 33 -0.9 93 -1.9 80 0 961.5 NA 0.0000 M 0 0 0 4660
2019/09/22 13:50:01 BASE 32.51 29 38.63 33 -0.9 93 -1.9 80 0 961.5 NA 0.0000 M 0 0 0 4590
2019/09/22 13:51:01 BASE 32.56 29 38.63 33 -0.9 93 -1.9 80 0 961.5 NA 0.0000 M 0 0 0 4560
2019/09/22 13:52:01 BASE 33.10 31 38.63 33 -0.9 93 -1.9 80 0 961.5 NA 0.0000 M 0 0 0 6270
2019/09/22 13:53:01 BASE 32.22 30 38.63 33 -0.9 93 -1.9 80 0 961.5 NA 0.0000 M 0 0 0 5910
2019/09/22 13:54:01 BASE 30.69 30 38.63 33 -0.9 93 -1.9 80 0 961.5 NA 0.0000 M 0 0 0 2820
2019/09/22 13:55:01 BASE 30.34 32 38.63 33 -0.9 93 -1.9 79 0 961.5 NA 0.0000 M 0 0 0 2920
2019/09/22 13:56:01 BASE 30.83 32 38.63 33 -0.9 93 -1.9 79 0 961.4 NA 0.0000 M 0 0 0 3810
2019/09/22 13:57:01 BASE 30.17 32 38.38 31 -0.9 93 -1.9 79 0 961.4 NA 0.0000 M 0 0 0 3710
2019/09/22 13:58:01 BASE 30.12 31 38.38 31 -1.0 94 -1.9 80 0 961.3 NA 0.0000 M 0 0 0 2820
2019/09/22 13:59:01 BASE 31.81 31 38.38 31 -1.0 94 -1.8 81 0 961.2 NA 0.0000 M 0 0 0 3120
2019/09/22 14:00:01 BASE 33.03 33 38.38 31 -1.0 94 -1.8 84 0 961.1 NA 0.0000 M 0 0 0 2950
2019/09/22 14:01:01 BASE 32.99 33 38.38 31 -0.9 94 -1.7 87 0 961.1 NA 0.0000 M 0 0 0 2790
2019/09/22 14:02:01 BASE 32.47 31 38.07 26 -0.9 95 -1.7 89 0 961.1 NA 0.0000 M 0 0 0 3020
2019/09/22 14:03:01 BASE 31.90 31 38.07 26 -0.9 95 -1.6 88 0 961.1 NA 0.0000 M 0 0 0 5150
2019/09/22 14:04:01 BASE 30.74 31 38.07 26 -0.9 95 -1.6 87 0 961.2 NA 0.0000 M 0 0 0 3900
2019/09/22 14:05:01 BASE 30.30 31 38.07 26 -0.9 95 -1.6 87 0 961.1 NA 0.0000 M 0 0 0 3970
2019/09/22 14:06:01 BASE 31.06 33 38.07 26 -0.9 95 -1.6 85 0 961.1 NA 0.0000 M 0 0 0 2990
2019/09/22 14:07:01 BASE 31.43 32 38.07 26 -0.9 95 -1.6 83 0 961.1 NA 0.0000 M 0 0 0 5050
2019/09/22 14:08:01 BASE 30.88 31 38.07 26 -0.9 95 -1.6 83 0 961.2 NA 0.0000 M 0 0 0 3580
2019/09/22 14:09:01 BASE 28.83 30 38.07 26 -0.9 95 -1.6 85 0 961.2 NA 0.0000 M 0 0 0 3450
2019/09/22 14:10:01 BASE 28.45 30 38.07 26 -0.9 95 -1.6 87 0 961.0 NA 0.0000 M 0 0 0 4460
2019/09/22 14:11:01 BASE 29.54 31 38.07 26 -0.9 95 -1.6 90 0 961.0 NA 0.0000 M 390 0 0 0
2019/09/22 14:12:01 BASE 31.19 31 37.55 30 -0.8 95 -1.5 91 0 960.8 NA 0.0000 M 0 0 0 3740
2019/09/22 14:13:01 BASE 32.51 32 37.55 30 -0.8 95 -1.6 92 0 960.8 NA 0.0000 M 0 0 0 3410
2019/09/22 14:14:01 BASE 32.89 34 37.55 30 -0.8 95 -1.6 94 0 960.7 NA 0.0000 M 0 0 0 3020
2019/09/22 14:15:01 BASE 32.98 32 37.55 30 -0.8 94 -1.6 96 0 960.6 NA 0.0000 M 0 0 0 2720
2019/09/22 14:16:01 BASE 33.21 31 37.55 30 -0.8 94 -1.6 98 0 960.6 NA 0.0000 M 0 0 0 2890
2019/09/22 14:17:01 BASE 32.88 32 37.55 30 -0.8 94 -1.7 101 0 960.6 NA 0.0000 M 0 0 0 2820
2019/09/22 14:18:01 BASE 30.74 30 37.55 30 -0.9 94 -1.7 103 0 960.6 NA 0.0000 M 0 0 0 2690
2019/09/22 14:19:01 BASE 30.85 29 38.02 26 -0.9 94 -1.7 104 0 960.5 NA 0.0000 M 0 0 0 2720
2019/09/22 14:20:01 BASE 31.20 28 38.02 26 -0.9 94 -1.7 104 0 960.7 NA 0.0000 M 0 0 0 2560
2019/09/22 14:21:01 BASE 31.01 26 38.02 26 -0.9 94 -1.7 103 0 960.6 NA 0.0000 M 0 0 0 2360
2019/09/22 14:22:01 BASE 32.15 28 38.02 26 -0.9 95 -1.7 102 0 960.5 NA 0.2540 M 0 0 0 2260
2019/09/22 14:23:01 BASE 32.36 30 38.02 26 -0.9 95 -1.6 101 0 960.5 NA 0.0000 M 0 0 0 2200
2019/09/22 14:24:01 BASE 31.65 29 38.02 26 -0.9 95 -1.6 100 0 960.5 NA 0.0000 M 0 0 0 2030
2019/09/22 14:25:01 BASE 30.94 28 38.02 26 -0.8 95 -1.5 99 0 960.5 NA 0.0000 M 0 0 0 2000
2019/09/22 14:26:01 BASE 31.24 26 38.02 26 -0.8 95 -1.5 98 0 960.5 NA 0.0000 M 0 0 0 2000
2019/09/22 14:27:01 BASE 31.75 24 38.02 26 -0.8 95 -1.5 95 0 960.5 NA 0.0000 M 0 0 0 2030
2019/09/22 14:28:01 BASE 30.80 25 38.02 26 -0.8 95 -1.5 92 0 960.5 NA 0.0000 M 0 0 0 2030
2019/09/22 14:29:01 BASE 30.42 25 36.32 29 -0.8 95 -1.5 89 0 960.5 NA 0.0000 M 0 0 0 1970
2019/09/22 14:30:00 BASE 29.67 26 36.32 29 -0.8 95 -1.5 87 0 960.6 NA 0.0000 M 0 0 0 1840
2019/09/22 14:31:00 BASE 28.64 27 36.32 29 -0.8 95 -1.5 85 0 960.5 NA 0.0000 M 0 0 0 1900
2019/09/22 14:32:01 BASE 29.44 27 35.60 30 -0.9 96 -1.5 84 0 960.4 NA 0.0000 M 0 0 0 1940
2019/09/22 14:33:00 BASE 30.27 26 35.60 30 -0.9 96 -1.5 82 0 960.4 NA 0.0000 M 0 0 0 2030
2019/09/22 14:34:01 BASE 29.78 25 35.60 30 -0.9 96 -1.5 81 0 960.4 NA 0.0000 M 0 0 0 1870
2019/09/22 14:35:00 BASE 29.84 26 35.60 30 -1.0 96 -1.5 80 0 960.4 NA 0.0000 M 0 0 0 1770
2019/09/22 14:36:01 BASE 31.10 25 35.60 30 -1.0 96 -1.5 78 0 960.3 NA 0.0000 M 0 0 0 2030
2019/09/22 14:37:01 BASE 31.55 27 35.60 30 -1.0 97 -1.4 77 0 960.3 NA 0.0000 M 0 0 0 2230
2019/09/22 14:38:00 BASE 31.24 29 35.60 30 -0.9 97 -1.4 75 0 960.3 NA 0.0000 M 0 0 0 2560
2019/09/22 14:39:00 BASE 29.60 28 37.30 29 -0.9 97 -1.3 73 0 960.4 NA 0.0000 M 0 0 0 2620
2019/09/22 14:40:00 BASE 29.43 26 37.30 29 -0.9 97 -1.3 71 0 960.3 NA 0.0000 M 0 0 0 2620
2019/09/22 14:41:01 BASE 30.41 24 37.30 29 -0.8 97 -1.2 70 0 960.3 NA 0.0000 M 0 0 0 2530
2019/09/22 14:42:01 BASE 29.98 24 37.30 29 -0.8 97 -1.2 69 0 960.4 NA 0.0000 M 0 0 0 2490
2019/09/22 14:43:00 BASE 29.72 27 37.30 29 -0.8 97 -1.2 69 0 960.4 NA 0.0000 M 0 0 0 2430
2019/09/22 14:44:01 BASE 29.91 28 37.30 29 -0.8 97 -1.2 68 0 960.3 NA 0.2540 M 0 0 0 2490
2019/09/22 14:45:00 BASE 30.81 27 37.30 29 -0.8 97 -1.2 67 0 960.2 NA 0.0000 M 0 0 0 2590
2019/09/22 14:46:01 BASE 31.67 28 37.30 29 -0.8 97 -1.2 68 0 960.2 NA 0.0000 M 0 0 0 2590
2019/09/22 14:47:01 BASE 30.78 29 37.30 29 -0.8 97 -1.2 68 0 960.2 NA 0.0000 M 0 0 0 2620
2019/09/22 14:48:00 BASE 29.57 29 37.30 29 -0.8 97 -1.2 70 0 960.1 NA 0.0000 M 0 0 0 2620
2019/09/22 14:49:01 BASE 29.61 26 36.83 26 -0.8 97 -1.2 71 0 960.2 NA 0.0000 M 0 0 0 2490
2019/09/22 14:50:00 BASE 30.19 27 36.83 26 -0.8 97 -1.2 72 0 960.2 NA 0.0000 M 360 0 0 0
2019/09/22 14:51:00 BASE 31.02 29 36.83 26 -0.8 97 -1.2 73 0 960.2 NA 0.0000 M 0 0 0 2530
2019/09/22 14:52:01 BASE 31.87 27 36.83 26 -0.8 97 -1.2 73 0 960.1 NA 0.0000 M 300 0 0 0
2019/09/22 14:53:01 BASE 31.21 26 36.83 26 -0.8 97 -1.3 73 0 960.1 NA 0.0000 M 260 0 0 0
2019/09/22 14:54:01 BASE 31.06 26 36.83 26 -0.8 96 -1.3 72 0 960.0 NA 0.0000 M 0 0 0 2690
2019/09/22 14:55:00 BASE 31.71 26 38.74 28 -0.8 96 -1.4 69 0 959.9 NA 0.0000 M 0 0 0 2560
2019/09/22 14:56:00 BASE 31.02 27 38.74 28 -0.9 96 -1.4 67 0 960.0 NA 0.0000 M 0 0 0 2490
2019/09/22 14:57:00 BASE 31.00 27 38.74 28 -0.9 96 -1.4 67 0 959.9 NA 0.0000 M 0 0 0 2330
2019/09/22 14:58:00 BASE 30.91 27 38.74 28 -0.9 96 -1.5 68 0 960.0 NA 0.0000 M 0 0 0 2400
2019/09/22 14:59:00 BASE 31.90 30 38.74 28 -0.9 96 -1.4 68 0 959.8 NA 0.0000 M 0 0 0 2300
2019/09/22 15:00:00 BASE 33.15 31 38.74 28 -0.9 96 -1.4 68 0 959.9 NA 0.0000 M 0 0 0 2260
2019/09/22 15:01:00 BASE 32.27 29 38.74 28 -0.9 97 -1.4 68 0 959.8 NA 0.0000 M 0 0 0 2260
2019/09/22 15:02:00 BASE 30.94 29 38.74 28 -0.9 97 -1.4 67 0 959.8 NA 0.0000 M 0 0 0 2200
2019/09/22 15:03:00 BASE 30.75 28 38.74 28 -0.9 97 -1.3 67 0 959.8 NA 0.0000 M 0 0 0 2030
2019/09/22 15:04:01 BASE 32.66 27 38.74 28 -0.9 97 -1.3 68 0 959.6 NA 0.0000 M 0 0 0 1840
2019/09/22 15:05:00 BASE 33.46 28 37.71 32 -0.9 97 -1.3 70 0 959.7 NA 0.0000 M 0 0 0 1770
2019/09/22 15:06:00 BASE 32.67 27 37.71 32 -0.9 97 -1.3 74 0 959.7 NA 0.0000 M 0 0 0 1640
2019/09/22 15:07:00 BASE 33.32 26 37.76 31 -0.9 97 -1.3 78 0 959.6 NA 0.0000 M 0 0 0 1610
2019/09/22 15:08:01 BASE 33.39 28 37.76 31 -0.9 97 -1.3 82 0 959.7 NA 0.0000 M 0 0 0 1510
2019/09/22 15:09:00 BASE 31.95 28 37.76 31 -1.0 98 -1.3 83 0 959.7 NA 0.0000 M 0 0 0 1440
2019/09/22 15:10:00 BASE 30.95 27 37.76 31 -1.0 98 -1.3 82 0 959.7 NA 0.0000 M 0 0 0 1350
2019/09/22 15:11:00 BASE 31.62 27 37.76 31 -1.0 98 -1.3 80 0 959.6 NA 0.0000 M 0 0 0 1280
2019/09/22 15:12:00 BASE 32.13 28 37.76 31 -1.0 98 -1.3 78 0 959.6 NA 0.0000 M 0 0 0 1210
2019/09/22 15:13:00 BASE 31.87 27 37.76 31 -1.0 98 -1.3 80 0 959.6 NA 0.0000 M 0 0 0 1150
2019/09/22 15:14:00 BASE 31.97 27 37.76 31 -1.1 98 -1.3 83 0 959.4 NA 0.2540 M 0 0 0 1150
2019/09/22 15:15:00 BASE 32.48 27 37.76 27 -1.1 99 -1.3 85 0 959.4 NA 0.0000 M 0 0 0 1210
2019/09/22 15:16:00 BASE 33.61 29 38.94 32 -1.1 99 -1.2 87 0 959.4 NA 0.0000 M 0 0 0 1180
2019/09/22 15:17:00 BASE 33.69 28 38.94 32 -1.1 99 -1.2 88 0 959.4 NA 0.0000 M 0 0 0 1150
2019/09/22 15:18:00 BASE 33.72 27 38.99 23 -1.1 100 -1.2 88 0 959.4 NA 0.0000 M 0 0 0 1080
2019/09/22 15:19:00 BASE 33.85 30 38.99 23 -1.1 100 -1.1 86 0 959.4 NA 0.0000 M 0 0 0 1080
2019/09/22 15:20:00 BASE 33.07 29 38.99 23 -1.1 100 -1.1 86 0 959.4 NA 0.0000 M 0 0 0 1050
2019/09/22 15:21:00 BASE 32.86 28 38.99 23 -1.1 100 -1.1 87 0 959.3 NA 0.0000 M 0 0 0 950
2019/09/22 15:22:00 BASE 32.76 29 38.99 23 -1.2 100 -1.2 90 0 959.3 NA 0.0000 M 0 0 0 920
2019/09/22 15:23:00 BASE 33.11 28 38.99 23 -1.2 100 -1.2 94 0 959.3 NA 0.0000 M 0 0 0 890
2019/09/22 15:24:00 BASE 34.10 29 38.99 23 -1.2 100 -1.2 98 0 959.3 NA 0.0000 M 0 0 0 850
2019/09/22 15:25:00 BASE 34.28 30 38.99 23 -1.2 100 -1.2 104 0 959.3 NA 0.0000 M 0 0 0 850
2019/09/22 15:26:00 BASE 32.38 28 38.99 23 -1.2 100 -1.2 114 0 959.4 NA 0.0000 M 0 0 0 850
2019/09/22 15:27:00 BASE 32.72 29 40.18 29 -1.2 100 -1.2 123 0 959.1 NA 0.0000 M 0 0 0 790
2019/09/22 15:28:01 BASE 34.16 29 40.18 29 -1.2 100 -1.2 132 0 959.2 NA 0.0000 M 0 0 0 850
2019/09/22 15:29:00 BASE 33.51 27 40.18 29 -1.2 100 -1.2 139 0 959.1 NA 0.0000 M 0 0 0 790
2019/09/22 15:30:00 BASE 33.23 26 40.18 29 -1.2 100 -1.2 142 0 959.2 NA 0.0000 M 0 0 0 920
2019/09/22 15:31:00 BASE 32.95 26 40.18 29 -1.3 100 -1.3 146 0 959.1 NA 0.0000 M 0 0 0 790
2019/09/22 15:32:00 BASE 32.85 28 40.18 29 -1.3 100 -1.3 148 0 959.1 NA 0.0000 M 0 0 0 920
2019/09/22 15:33:00 BASE 33.47 29 40.18 29 -1.3 100 -1.3 145 0 958.9 NA 0.0000 M 0 0 0 1120
2019/09/22 15:34:00 BASE 34.28 28 40.18 29 -1.3 100 -1.3 136 0 958.9 NA 0.0000 M 0 0 0 1120
2019/09/22 15:35:00 BASE 34.67 28 40.18 29 -1.3 100 -1.3 131 0 958.9 NA 0.0000 M 0 0 0 1050
2019/09/22 15:36:00 BASE 34.56 29 40.18 29 -1.3 100 -1.3 128 0 959.0 NA 0.0000 M 0 0 0 1210
2019/09/22 15:37:00 BASE 34.92 30 38.79 25 -1.3 100 -1.3 124 0 958.8 NA 0.0000 M 0 0 0 1410
2019/09/22 15:38:00 BASE 34.76 29 38.79 25 -1.3 100 -1.3 120 0 959.0 NA 0.0000 M 0 0 0 1350
2019/09/22 15:39:00 BASE 34.25 30 40.08 25 -1.3 100 -1.3 118 0 959.0 NA 0.0000 M 0 0 0 1020
2019/09/22 15:40:00 BASE 34.78 32 40.08 25 -1.2 100 -1.2 120 0 958.8 NA 0.0000 M 22870 0 0 0
2019/09/22 15:41:00 BASE 36.29 32 40.08 25 -1.2 100 -1.2 119 0 958.6 NA 0.0000 M 0 0 0 1150
2019/09/22 15:42:00 BASE 37.30 34 40.08 25 -1.2 100 -1.2 114 0 958.7 NA 0.0000 M 0 0 0 1180
2019/09/22 15:43:00 BASE 36.31 33 40.08 25 -1.3 100 -1.3 109 0 958.8 NA 0.0000 M 0 0 0 820
2019/09/22 15:44:01 BASE 35.91 31 40.54 32 -1.3 100 -1.3 108 0 958.7 NA 0.0000 M 0 0 0 980
2019/09/22 15:45:00 BASE 35.71 32 40.54 32 -1.3 100 -1.3 103 0 958.6 NA 0.0000 M 0 0 0 1080
2019/09/22 15:46:01 BASE 36.39 34 40.54 32 -1.3 100 -1.3 98 0 958.5 NA 0.0000 M 0 0 0 1180
2019/09/22 15:47:01 BASE 36.11 32 40.54 32 -1.3 100 -1.3 91 0 958.7 NA 0.0000 M 0 0 0 890
2019/09/22 15:48:01 BASE 34.82 26 40.54 32 -1.3 100 -1.3 84 0 958.8 NA 0.0000 M 0 0 0 950
2019/09/22 15:49:01 BASE 36.14 23 40.54 32 -1.4 100 -1.4 78 0 958.6 NA 0.0000 M 0 0 0 980
2019/09/22 15:50:01 BASE 37.03 21 40.54 32 -1.4 100 -1.4 73 0 958.6 NA 0.0000 M 0 0 0 1310
2019/09/22 15:51:00 BASE 36.66 19 40.54 32 -1.4 100 -1.4 69 0 958.8 NA 0.0000 M 0 0 0 1210
2019/09/22 15:52:00 BASE 36.78 19 41.05 21 -1.5 100 -1.5 68 0 958.7 NA 0.0000 M 0 0 0 1350
2019/09/22 15:53:00 BASE 37.74 20 43.68 16 -1.5 100 -1.5 64 0 958.7 NA 0.2540 M 0 0 0 1480
2019/09/22 15:54:00 BASE 35.86 18 43.68 16 -1.5 100 -1.5 62 0 959.1 NA 0.0000 M 0 0 0 1280
2019/09/22 15:55:00 BASE 33.65 17 43.68 16 -1.5 100 -1.5 59 0 959.1 NA 0.0000 M 0 0 0 1440
2019/09/22 15:56:00 BASE 33.87 19 43.68 16 -1.5 100 -1.5 56 0 958.9 NA 0.0000 M 0 0 0 1180
2019/09/22 15:57:00 BASE 33.18 21 43.68 16 -1.5 100 -1.5 55 0 959.0 NA 0.0000 M 0 0 0 1250
2019/09/22 15:58:00 BASE 32.85 22 43.68 16 -1.5 100 -1.5 56 0 959.0 NA 0.0000 M 0 0 0 1210
2019/09/22 15:59:00 BASE 33.86 21 43.68 16 -1.5 100 -1.5 54 0 958.9 NA 0.0000 M 0 0 0 1540
2019/09/22 16:00:00 BASE 36.24 17 43.68 16 -1.4 100 -1.4 53 0 958.6 NA 0.0000 M 20930 0 0 0
2019/09/22 16:01:00 BASE 37.62 15 43.78 6 -1.4 100 -1.4 52 0 958.7 NA 0.0000 M 0 0 0 1280
2019/09/22 16:02:00 BASE 33.87 10 43.78 6 -1.2 100 -1.2 51 0 959.0 NA 0.0000 M 0 0 0 1210
2019/09/22 16:03:00 BASE 29.55 10 43.78 6 -1.0 100 -1.0 56 0 959.2 NA 0.0000 M 0 0 0 1250
2019/09/22 16:04:00 BASE 29.18 12 43.78 6 -0.8 100 -0.8 57 0 959.3 NA 0.0000 M 0 0 0 1410
2019/09/22 16:05:00 BASE 30.85 13 43.78 6 -0.7 100 -0.7 58 0 959.2 NA 0.0000 M 0 0 0 1440
2019/09/22 16:06:00 BASE 31.46 14 43.78 6 -0.7 100 -0.7 61 0 959.3 NA 0.0000 M 0 0 0 1410
2019/09/22 16:07:00 BASE 31.81 12 43.78 6 -0.7 100 -0.7 64 0 959.2 NA 0.2540 M 0 0 0 1210
2019/09/22 16:08:00 BASE 29.71 13 43.78 6 -0.9 100 -0.9 68 0 959.6 NA 0.0000 M 0 0 0 1120
2019/09/22 16:09:00 BASE 26.98 10 43.78 6 -1.0 100 -1.0 67 0 959.6 NA 0.0000 M 0 0 0 1380
2019/09/22 16:10:00 BASE 27.47 9 43.78 6 -1.0 100 -1.0 68 0 959.6 NA 0.0000 M 0 0 0 1280
2019/09/22 16:11:00 BASE 28.41 12 41.36 353 -1.0 100 -1.0 68 0 959.6 NA 0.0000 M 0 0 0 1210
2019/09/22 16:12:00 BASE 28.32 13 36.17 15 -1.1 100 -1.1 68 0 959.6 NA 0.0000 M 0 0 0 1280
2019/09/22 16:13:00 BASE 28.87 9 35.91 14 -1.0 100 -1.0 71 0 959.5 NA 0.0000 M 0 0 0 1280
2019/09/22 16:14:00 BASE 30.17 7 35.91 14 -1.0 100 -1.0 75 0 959.5 NA 0.0000 M 0 0 0 1280
2019/09/22 16:15:00 BASE 29.59 6 35.91 14 -1.0 100 -1.0 80 0 959.6 NA 0.0000 M 0 0 0 1150
2019/09/22 16:16:00 BASE 27.98 7 35.91 14 -1.0 100 -1.0 89 0 959.7 NA 0.0000 M 0 0 0 1180
2019/09/22 16:17:00 BASE 24.95 2 32.87 10 -1.0 100 -1.0 99 0 959.8 NA 0.0000 M 0 0 0 1080
2019/09/22 16:18:00 BASE 24.96 354 32.87 10 -0.9 100 -0.9 107 0 959.6 NA 0.0000 M 0 0 0 1280
2019/09/22 16:19:00 BASE 24.21 354 32.87 10 -0.8 100 -0.8 115 0 959.8 NA 0.0000 M 0 0 0 1250
2019/09/22 16:20:00 BASE 21.71 353 32.87 10 -0.7 100 -0.7 121 0 959.9 NA 0.0000 M 0 0 0 1440
2019/09/22 16:21:00 BASE 22.22 354 32.87 10 -0.6 100 -0.6 124 0 959.8 NA 0.0000 M 0 0 0 1540
2019/09/22 16:22:00 BASE 23.04 356 32.87 10 -0.5 100 -0.5 125 0 959.8 NA 0.0000 M 0 0 0 1510
2019/09/22 16:23:00 BASE 26.12 359 31.54 360 -0.5 100 -0.5 127 0 959.5 NA 0.2540 M 0 0 0 1640
2019/09/22 16:24:00 BASE 26.97 6 31.43 9 -0.5 100 -0.5 124 0 959.7 NA 0.0000 M 0 0 0 1640
2019/09/22 16:25:00 BASE 26.32 10 31.28 353 -0.5 100 -0.5 121 0 959.6 NA 0.0000 M 0 0 0 1940
2019/09/22 16:26:00 BASE 28.29 10 33.08 5 -0.6 100 -0.6 124 0 959.6 NA 0.0000 M 0 0 0 2000
2019/09/22 16:27:00 BASE 26.64 6 33.08 5 -0.6 100 -0.6 129 0 959.8 NA 0.0000 M 0 0 0 2530
2019/09/22 16:28:00 BASE 24.77 4 33.08 5 -0.6 100 -0.6 133 0 959.8 NA 0.0000 M 0 0 0 2330
2019/09/22 16:29:00 BASE 24.51 4 33.08 5 -0.6 100 -0.6 134 0 959.9 NA 0.0000 M 0 0 0 2760
2019/09/22 16:30:00 BASE 22.99 3 33.08 5 -0.6 100 -0.6 132 0 960.0 NA 0.0000 M 0 0 0 2620
2019/09/22 16:31:00 BASE 23.16 356 33.08 5 -0.6 100 -0.6 133 0 959.9 NA 0.0000 M 0 0 0 2490
2019/09/22 16:32:00 BASE 23.52 353 33.08 5 -0.5 100 -0.5 132 0 959.9 NA 0.0000 9999 0 0 0 2430
2019/09/22 16:33:00 BASE 24.16 358 33.08 5 -0.5 100 -0.5 130 0 959.8 NA 0.0000 9999 0 0 0 2330
2019/09/22 16:34:00 BASE 25.16 358 33.08 5 -0.5 100 -0.5 127 0 959.9 NA 0.0000 9999 0 0 0 2070
2019/09/22 16:35:00 BASE 25.08 354 33.08 5 -0.5 100 -0.5 126 0 959.9 NA 0.0000 UP 9000 0 0 0 2030
2019/09/22 16:36:00 BASE 23.93 346 29.01 5 -0.5 100 -0.5 124 0 960.1 NA 0.0000 UP 9000 0 0 0 1940
2019/09/22 16:37:01 BASE 21.44 347 29.01 5 -0.5 100 -0.5 123 0 960.2 NA 0.0000 UP 9999 0 0 0 2000
2019/09/22 16:38:01 BASE 20.89 352 29.01 5 -0.4 100 -0.4 123 0 960.2 NA 0.0000 UP 9999 260 0 0 0
2019/09/22 16:39:01 BASE 22.32 348 29.01 5 -0.4 100 -0.4 132 0 960.1 NA 0.0000 UP 9000 0 0 0 1800
2019/09/22 16:40:01 BASE 23.02 346 29.01 5 -0.4 100 -0.4 135 0 960.1 NA 0.0000 UP 9000 0 0 0 1870
2019/09/22 16:41:01 BASE 23.37 347 29.01 5 -0.4 100 -0.4 141 0 960.2 NA 0.2540 UP 9999 0 0 0 1670
2019/09/22 16:42:01 BASE 23.13 347 29.01 5 -0.4 100 -0.4 133 0 960.3 NA 0.0000 UP BR 8000 0 0 0 1940
2019/09/22 16:43:01 BASE 22.19 352 27.32 360 -0.5 100 -0.5 133 0 960.2 NA 0.0000 UP BR 9000 0 0 0 1440
2019/09/22 16:44:01 BASE 21.58 354 27.32 360 -0.5 100 -0.5 134 0 960.3 NA 0.0000 UP BR 9999 0 0 0 1640
2019/09/22 16:45:01 BASE 20.33 354 26.24 344 -0.5 100 -0.5 132 0 960.3 NA 0.0000 UP BR 9999 0 0 0 1570
2019/09/22 16:46:01 BASE 20.95 358 26.24 344 -0.6 100 -0.6 132 0 960.2 NA 0.0000 UP BR 9999 0 0 0 1510
2019/09/22 16:47:01 BASE 20.31 355 26.24 344 -0.6 100 -0.6 142 0 960.4 NA 0.0000 UP BR 9000 21920 0 0 0
2019/09/22 16:48:01 BASE 19.91 352 26.24 344 -0.6 100 -0.6 155 0 960.3 NA 0.0000 UP BR 9999 0 0 0 1570
2019/09/22 16:49:01 BASE 21.75 346 26.24 344 -0.6 100 -0.6 171 0 960.3 NA 0.0000 UP BR 9999 0 0 0 1610
2019/09/22 16:50:01 BASE 22.20 342 26.24 344 -0.6 100 -0.6 168 0 960.4 NA 0.0000 UP BR 9999 260 0 0 0
2019/09/22 16:51:01 BASE 22.32 340 25.10 352 -0.6 100 -0.6 149 0 960.5 NA 0.0000 UP BR 9000 18540 21650 0 0
2019/09/22 16:52:01 BASE 21.24 331 25.10 352 -0.6 100 -0.6 136 0 960.6 NA 0.0000 UP BR 5000 0 0 0 1570
2019/09/22 16:53:01 BASE 19.80 329 25.10 352 -0.6 100 -0.6 145 0 960.6 NA 0.0000 UP BR 3400 0 0 0 1210
2019/09/22 16:54:01 BASE 20.90 332 25.10 352 -0.6 100 -0.6 158 0 960.6 NA 0.0000 UP BR 4000 0 0 0 1510
2019/09/22 16:55:01 BASE 22.59 330 25.10 352 -0.6 100 -0.6 148 0 960.6 NA 0.0000 UP BR 4300 0 0 0 2070
2019/09/22 16:56:01 BASE 22.52 328 24.90 346 -0.6 100 -0.6 139 0 960.6 NA 0.0000 UP BR 3100 0 0 0 1640
2019/09/22 16:57:01 BASE 23.05 327 28.76 330 -0.6 100 -0.6 134 0 960.6 NA 0.0000 UP BR 2800 0 0 0 1380
2019/09/22 16:58:01 BASE 24.49 325 28.76 330 -0.6 100 -0.6 133 0 960.6 NA 0.0000 UP BR 3800 0 0 0 1570
2019/09/22 16:59:01 BASE 25.42 322 28.76 330 -0.6 100 -0.6 127 0 960.6 NA 0.0000 UP BR 3800 260 0 0 0
2019/09/22 17:00:01 BASE 23.88 320 28.76 330 -0.6 100 -0.6 115 0 960.7 NA 0.0000 UP BR 4600 430 0 0 0
2019/09/22 17:01:01 BASE 22.40 322 28.76 330 -0.6 100 -0.6 105 0 960.6 NA 0.0000 UP BR 8000 430 0 0 0
2019/09/22 17:02:01 BASE 22.67 325 28.76 330 -0.6 100 -0.6 104 0 960.6 NA 0.0000 UP BR 9999 690 0 0 0
2019/09/22 17:03:01 BASE 22.74 323 28.76 330 -0.6 100 -0.6 109 0 960.6 NA 0.0000 UP BR 9999 690 0 0 0
2019/09/22 17:04:01 BASE 22.99 320 28.76 330 -0.6 100 -0.6 105 0 960.7 NA 0.0000 UP BR 9999 690 0 0 0
2019/09/22 17:05:01 BASE 21.08 323 28.76 330 -0.6 100 -0.6 104 0 960.8 NA 0.0000 UP BR 9000 490 0 0 0
2019/09/22 17:06:01 BASE 18.41 326 28.76 330 -0.6 100 -0.6 105 0 960.8 NA 0.0000 UP BR 9000 300 0 0 0
2019/09/22 17:07:01 BASE 18.87 326 27.78 323 -0.6 100 -0.6 105 0 960.9 NA 0.0000 BR 9999 300 0 0 0
2019/09/22 17:08:01 BASE 19.80 323 27.78 323 -0.6 100 -0.6 110 0 960.9 NA 0.0000 BR 9000 0 0 0 1120
2019/09/22 17:09:01 BASE 18.19 317 27.78 323 -0.6 100 -0.6 114 0 961.0 NA 0.0000 BR 9000 360 0 0 0
2019/09/22 17:10:01 BASE 16.86 319 27.78 323 -0.6 100 -0.6 113 0 961.0 NA 0.0000 BR 9000 560 0 0 0
2019/09/22 17:11:01 BASE 17.30 322 27.78 323 -0.7 100 -0.7 111 0 961.0 NA 0.0000 BR 9000 520 0 0 0
2019/09/22 17:12:01 BASE 17.19 321 26.19 320 -0.7 100 -0.7 108 0 961.0 NA 0.0000 BR 9999 590 23000 0 0
2019/09/22 17:13:01 BASE 15.48 320 26.19 320 -0.7 100 -0.7 108 0 961.1 NA 0.0000 BR 9999 620 0 0 0
2019/09/22 17:14:01 BASE 14.13 319 21.61 323 -0.7 100 -0.7 111 0 961.1 NA 0.0000 BR 9999 620 0 0 0
2019/09/22 17:15:01 BASE 15.04 318 21.61 323 -0.8 100 -0.8 105 0 961.1 NA 0.0000 9999 690 0 0 0
2019/09/22 17:16:01 BASE 15.41 318 21.61 323 -0.8 100 -0.8 97 0 961.1 NA 0.0000 9999 620 0 0 0
2019/09/22 17:17:01 BASE 14.97 317 21.61 323 -0.8 100 -0.8 99 0 961.1 NA 0.0000 9999 430 0 0 0
2019/09/22 17:18:01 BASE 15.53 318 18.98 319 -0.8 100 -0.8 97 0 961.1 NA 0.0000 9000 390 0 0 0
2019/09/22 17:19:01 BASE 15.80 317 18.98 319 -0.9 100 -0.9 100 0 961.1 NA 0.0000 BR 8000 430 1610 0 0
2019/09/22 17:20:01 BASE 15.91 313 18.98 319 -0.9 100 -0.9 101 0 961.2 NA 0.0000 BR 7000 590 0 0 0
2019/09/22 17:21:01 BASE 15.97 311 18.98 319 -0.9 100 -0.9 103 0 961.2 NA 0.0000 BR 7000 360 0 0 0
2019/09/22 17:22:01 BASE 15.90 311 18.21 312 -0.9 100 -0.9 99 0 961.2 NA 0.0000 BR 5000 360 0 0 0
2019/09/22 17:23:01 BASE 16.18 311 18.67 305 -0.9 100 -0.9 94 0 961.2 NA 0.0000 BR 5000 360 0 0 0
2019/09/22 17:24:01 BASE 16.24 309 18.67 305 -0.9 100 -0.9 93 0 961.2 NA 0.0000 BR 6000 360 0 0 0
2019/09/22 17:25:01 BASE 15.81 309 18.67 305 -0.9 100 -0.9 98 0 961.3 NA 0.0000 BR 6000 560 0 0 0
2019/09/22 17:26:01 BASE 16.76 306 20.63 304 -1.0 100 -1.0 105 0 961.2 NA 0.0000 BR 8000 620 0 0 0
2019/09/22 17:27:01 BASE 17.34 303 20.63 304 -1.0 100 -1.0 111 0 961.4 NA 0.0000 BR 9999 950 1440 0 0
2019/09/22 17:28:01 BASE 16.47 302 20.63 304 -1.0 100 -1.0 116 0 961.4 NA 0.0000 BR 9999 1570 0 0 0
2019/09/22 17:29:01 BASE 16.68 302 20.63 304 -1.0 100 -1.0 119 0 961.4 NA 0.0000 BR 9999 1120 0 0 0
2019/09/22 17:30:01 BASE 16.68 303 20.63 304 -1.1 100 -1.1 119 0 961.4 NA 0.0000 BR 9999 1440 0 0 0
2019/09/22 17:31:01 BASE 16.20 301 20.63 304 -1.1 100 -1.1 116 0 961.4 NA 0.0000 BR 9999 1310 0 0 0
2019/09/22 17:32:01 BASE 16.42 302 20.63 304 -1.1 100 -1.1 112 0 961.4 NA 0.0000 BR 9999 1150 0 0 0
2019/09/22 17:33:01 BASE 16.43 303 20.63 304 -1.1 100 -1.1 107 0 961.5 NA 0.0000 BR 9999 1150 0 0 0
2019/09/22 17:34:01 BASE 16.17 302 20.63 304 -1.1 100 -1.1 102 0 961.5 NA 0.0000 BR 9999 1080 0 0 0
2019/09/22 17:35:01 BASE 16.32 303 20.63 304 -1.1 100 -1.1 100 0 961.5 NA 0.0000 9999 950 0 0 0
2019/09/22 17:36:01 BASE 15.56 302 18.98 305 -1.1 100 -1.1 103 0 961.5 NA 0.0000 9999 950 0 0 0
2019/09/22 17:37:01 BASE 14.51 301 18.98 305 -1.1 100 -1.1 108 0 961.6 NA 0.0000 9999 1050 0 0 0
2019/09/22 17:38:01 BASE 16.04 299 22.22 290 -1.2 100 -1.2 109 0 961.5 NA 0.0000 9000 720 0 0 0
2019/09/22 17:39:01 BASE 17.56 294 22.22 290 -1.2 100 -1.2 110 0 961.6 NA 0.0000 6000 360 0 0 0
2019/09/22 17:40:01 BASE 16.57 293 22.22 290 -1.2 100 -1.2 115 0 961.7 NA 0.0000 BR 6000 430 0 0 0
2019/09/22 17:41:01 BASE 17.50 295 22.22 290 -1.2 100 -1.2 115 0 961.6 NA 0.0000 BR 6000 390 0 0 0
2019/09/22 17:42:01 BASE 18.96 294 22.22 290 -1.2 100 -1.2 118 0 961.7 NA 0.0000 BR 5000 330 0 0 0
2019/09/22 17:43:01 BASE 18.34 295 22.22 290 -1.2 100 -1.2 118 0 961.7 NA 0.0000 BR 6000 390 0 0 0
2019/09/22 17:44:01 BASE 17.67 296 22.22 290 -1.2 100 -1.2 120 0 961.8 NA 0.0000 BR 6000 330 0 0 0
2019/09/22 17:45:01 BASE 17.09 295 22.22 290 -1.2 100 -1.2 126 0 961.8 NA 0.0000 BR 6000 390 0 0 0
2019/09/22 17:46:01 BASE 17.54 294 22.22 290 -1.2 100 -1.2 132 0 961.8 NA 0.0000 BR 8000 430 0 0 0
2019/09/22 17:47:01 BASE 17.70 289 22.22 290 -1.2 100 -1.2 134 0 961.9 NA 0.0000 BR 8000 660 0 0 0
2019/09/22 17:48:01 BASE 19.27 284 22.94 287 -1.2 100 -1.2 137 0 961.9 NA 0.0000 BR 8000 790 0 0 0
2019/09/22 17:49:00 BASE 20.08 283 22.94 287 -1.2 100 -1.2 144 0 961.9 NA 0.0000 BR 8000 750 0 0 0
2019/09/22 17:50:00 BASE 18.90 279 22.94 287 -1.3 100 -1.3 141 0 962.0 NA 0.0000 BR 8000 920 0 0 0
2019/09/22 17:51:00 BASE 19.47 276 22.94 287 -1.3 100 -1.3 135 0 962.0 NA 0.0000 BR 6000 430 1640 0 0
2019/09/22 17:52:01 BASE 18.41 274 22.94 287 -1.3 100 -1.3 141 0 962.1 NA 0.0000 BR 6000 390 0 0 0
2019/09/22 17:53:00 BASE 16.61 271 22.94 287 -1.4 100 -1.4 145 0 962.1 NA 0.0000 BR 5000 390 20110 0 0
2019/09/22 17:54:01 BASE 17.03 268 22.94 287 -1.4 100 -1.4 153 0 962.1 NA 0.0000 BR 4900 390 0 0 0
2019/09/22 17:55:00 BASE 17.76 265 22.94 287 -1.4 100 -1.4 153 0 962.2 NA 0.0000 BR 4700 1280 0 0 0
2019/09/22 17:56:00 BASE 18.98 264 25.36 262 -1.5 100 -1.5 163 0 962.2 NA 0.0000 BR 3400 1120 0 0 0
2019/09/22 17:57:00 BASE 19.73 263 25.36 262 -1.5 100 -1.5 165 0 962.2 NA 0.0000 BR 3200 1410 24280 0 0
2019/09/22 17:58:00 BASE 18.29 264 25.36 262 -1.6 100 -1.6 169 0 962.2 NA 0.0000 BR 5000 1250 0 0 0
2019/09/22 17:59:01 BASE 18.37 266 25.36 262 -1.6 100 -1.6 170 0 962.2 NA 0.0000 BR 5000 1280 0 0 0
2019/09/22 18:00:00 BASE 19.24 267 25.36 262 -1.7 100 -1.7 173 0 962.3 NA 0.0000 BR 5000 1310 0 0 0
2019/09/22 18:01:00 BASE 18.67 265 25.36 262 -1.7 100 -1.7 162 0 962.3 NA 0.0000 BR 6000 1280 0 0 0
2019/09/22 18:02:01 BASE 19.11 263 25.36 262 -1.8 100 -1.8 156 0 962.3 NA 0.0000 BR 7000 1250 0 0 0
2019/09/22 18:03:00 BASE 18.80 266 25.36 262 -1.8 100 -1.8 151 0 962.4 NA 0.0000 BR 7000 1250 0 0 0
2019/09/22 18:04:01 BASE 17.38 271 25.36 262 -1.8 100 -1.8 139 0 962.4 NA 0.0000 BR 6000 1250 0 0 0
2019/09/22 18:05:00 BASE 17.65 270 25.36 262 -1.8 100 -1.8 127 0 962.4 NA 0.0000 BR 7000 1210 0 0 0
2019/09/22 18:06:00 BASE 17.17 269 24.74 261 -1.8 100 -1.8 119 0 962.5 NA 0.0000 BR 8000 1250 0 0 0
2019/09/22 18:07:01 BASE 17.13 269 24.74 261 -1.9 100 -1.9 111 0 962.5 NA 0.0000 BR 8000 1180 0 0 0
2019/09/22 18:08:01 BASE 17.61 266 24.74 261 -1.9 100 -1.9 108 0 962.5 NA 0.0000 BR 8000 1120 0 0 0
2019/09/22 18:09:00 BASE 17.43 266 24.74 261 -1.9 100 -1.9 107 0 962.5 NA 0.0000 BR 7000 1120 0 0 0
2019/09/22 18:10:00 BASE 18.63 269 24.74 261 -1.9 100 -1.9 106 0 962.5 NA 0.0000 BR 7000 1210 0 0 0
2019/09/22 18:11:01 BASE 18.46 266 24.74 261 -2.0 100 -2.0 103 0 962.6 NA 0.0000 BR 7000 1250 0 0 0
2019/09/22 18:12:01 BASE 18.81 262 24.49 259 -2.0 100 -2.0 105 0 962.6 NA 0.0000 BR 7000 1150 0 0 0
2019/09/22 18:13:00 BASE 20.43 259 25.21 260 -2.0 100 -2.0 109 0 962.6 NA 0.0000 BR 6000 1150 0 0 0
2019/09/22 18:14:01 BASE 20.42 260 25.21 260 -2.0 100 -2.0 108 0 962.7 NA 0.0000 BR 6000 1350 0 0 0
2019/09/22 18:15:00 BASE 18.36 265 25.21 260 -2.1 100 -2.1 105 0 962.8 NA 0.0000 BR 6000 1250 0 0 0
2019/09/22 18:16:01 BASE 16.62 269 25.21 260 -2.1 100 -2.1 104 0 962.7 NA 0.0000 BR 7000 1410 0 0 0
2019/09/22 18:17:00 BASE 16.78 268 25.21 260 -2.1 100 -2.1 109 0 962.8 NA 0.0000 BR 8000 1380 0 0 0
2019/09/22 18:18:01 BASE 16.59 265 25.21 260 -2.1 100 -2.1 106 0 962.8 NA 0.0000 BR 9000 1440 0 0 0
2019/09/22 18:19:00 BASE 16.29 261 25.21 260 -2.1 100 -2.1 104 0 962.8 NA 0.0000 BR 9000 1250 0 0 0
2019/09/22 18:20:00 BASE 16.68 262 25.21 260 -2.1 100 -2.1 97 0 962.9 NA 0.0000 BR 8000 1280 0 0 0
2019/09/22 18:21:01 BASE 17.74 261 25.21 260 -2.1 100 -2.1 93 0 962.9 NA 0.0000 BR 9000 1080 0 0 0
2019/09/22 18:22:00 BASE 19.05 258 25.21 260 -2.1 100 -2.1 91 0 962.9 NA 0.0000 BR 8000 1050 0 0 0
2019/09/22 18:23:00 BASE 18.23 259 24.18 265 -2.1 100 -2.1 88 0 962.9 NA 0.0000 BR 8000 1050 0 0 0
2019/09/22 18:24:01 BASE 16.92 259 22.79 251 -2.1 100 -2.1 84 0 962.9 NA 0.0000 BR 9000 1050 0 0 0
2019/09/22 18:25:00 BASE 15.59 261 22.79 251 -2.1 100 -2.1 79 0 963.0 NA 0.0000 BR 8000 1020 0 0 0
2019/09/22 18:26:00 BASE 12.92 265 22.79 251 -2.1 100 -2.1 75 0 963.0 NA 0.0000 BR 8000 950 0 0 0
2019/09/22 18:27:01 BASE 11.70 264 22.79 251 -2.1 100 -2.1 76 0 963.1 NA 0.0000 BR 9000 950 0 0 0
2019/09/22 18:28:01 BASE 13.76 265 22.79 251 -2.1 100 -2.1 76 0 963.0 NA 0.0000 BR 9999 980 0 0 0
2019/09/22 18:29:00 BASE 15.73 268 22.79 251 -2.1 100 -2.1 76 0 963.1 NA 0.0000 BR 9999 1080 0 0 0
2019/09/22 18:30:01 BASE 16.02 269 22.79 251 -2.1 100 -2.1 75 0 963.1 NA 0.0000 BR 9999 1080 0 0 0
2019/09/22 18:31:00 BASE 15.54 272 22.79 251 -2.1 100 -2.1 73 0 963.1 NA 0.0000 BR 9999 1120 0 0 0
2019/09/22 18:32:00 BASE 15.49 271 20.27 255 -2.2 100 -2.2 75 0 963.1 NA 0.0000 BR 9000 1050 0 0 0
2019/09/22 18:33:00 BASE 16.83 268 21.25 265 -2.2 100 -2.2 80 0 963.1 NA 0.0000 BR 8000 1210 0 0 0
2019/09/22 18:34:00 BASE 16.90 266 21.25 265 -2.2 100 -2.2 82 0 963.1 NA 0.0000 BR 9999 1310 0 0 0
2019/09/22 18:35:00 BASE 15.62 263 21.25 265 -2.2 100 -2.2 83 0 963.2 NA 0.0000 BR 9999 1280 0 0 0
2019/09/22 18:36:00 BASE 15.00 263 21.25 265 -2.2 100 -2.2 83 0 963.2 NA 0.0000 BR 9000 1180 0 0 0
2019/09/22 18:37:00 BASE 16.27 265 21.25 265 -2.2 100 -2.2 80 0 963.2 NA 0.0000 BR 9999 1120 0 0 0
2019/09/22 18:38:01 BASE 16.52 265 21.25 265 -2.2 100 -2.2 78 0 963.2 NA 0.0000 BR 9999 1120 0 0 0
2019/09/22 18:39:00 BASE 15.49 265 21.25 265 -2.2 100 -2.2 77 0 963.2 NA 0.0000 BR 9999 1120 0 0 0
2019/09/22 18:40:00 BASE 15.59 264 21.25 265 -2.2 100 -2.2 76 0 963.2 NA 0.0000 BR 9999 1080 0 0 0
2019/09/22 18:41:00 BASE 14.93 264 21.25 265 -2.2 100 -2.2 76 0 963.3 NA 0.0000 BR 9999 1120 0 0 0
2019/09/22 18:42:00 BASE 13.04 266 21.25 265 -2.2 100 -2.2 73 0 963.3 NA 0.0000 9999 1120 0 0 0
2019/09/22 18:43:00 BASE 12.70 269 20.11 259 -2.2 100 -2.2 72 0 963.2 NA 0.0000 9999 1080 0 0 0
2019/09/22 18:44:00 BASE 12.80 270 19.19 263 -2.2 100 -2.2 71 0 963.3 NA 0.0000 9999 1050 0 0 0
2019/09/22 18:45:00 BASE 12.09 269 19.19 263 -2.2 100 -2.2 71 0 963.3 NA 0.0000 9999 1080 0 0 0
2019/09/22 18:46:00 BASE 13.40 272 19.19 263 -2.2 100 -2.2 72 0 963.3 NA 0.0000 9999 1080 0 0 0
2019/09/22 18:47:00 BASE 15.25 273 19.19 263 -2.2 100 -2.2 71 0 963.3 NA 0.0000 9999 1150 0 0 0
2019/09/22 18:48:00 BASE 14.98 270 19.14 264 -2.2 100 -2.2 69 0 963.4 NA 0.0000 9000 1210 0 0 0
2019/09/22 18:49:00 BASE 14.00 269 18.21 263 -2.2 100 -2.2 67 0 963.4 NA 0.0000 9000 1250 0 0 0
2019/09/22 18:50:00 BASE 13.53 270 17.65 297 -2.2 100 -2.2 65 0 963.4 NA 0.0000 9999 1280 0 0 0
2019/09/22 18:51:00 BASE 14.14 274 20.32 272 -2.2 100 -2.2 65 0 963.4 NA 0.0000 9999 1250 0 0 0
2019/09/22 18:52:00 BASE 16.12 273 20.32 272 -2.2 100 -2.2 66 0 963.4 NA 0.0000 9999 1250 0 0 0
2019/09/22 18:53:00 BASE 16.71 271 20.32 272 -2.2 100 -2.2 67 0 963.5 NA 0.0000 9999 1310 0 0 0
2019/09/22 18:54:00 BASE 16.38 272 21.92 271 -2.2 100 -2.2 69 0 963.5 NA 0.0000 9999 1380 0 0 0
2019/09/22 18:55:00 BASE 16.68 267 21.92 271 -2.3 100 -2.3 71 0 963.5 NA 0.0000 9999 1510 0 0 0
2019/09/22 18:56:00 BASE 16.95 262 21.92 271 -2.3 100 -2.3 69 0 963.5 NA 0.0000 9999 1540 0 0 0
2019/09/22 18:57:00 BASE 17.35 261 21.92 271 -2.3 100 -2.3 70 0 963.5 NA 0.0000 9999 1540 0 0 0
2019/09/22 18:58:00 BASE 16.61 263 21.92 271 -2.4 100 -2.4 75 0 963.6 NA 0.0000 9999 1510 0 0 0
2019/09/22 18:59:00 BASE 15.37 265 21.92 271 -2.4 100 -2.4 83 0 963.6 NA 0.0000 9999 1610 0 0 0
2019/09/22 19:00:00 BASE 16.70 265 21.92 271 -2.4 100 -2.4 90 0 963.6 NA 0.0000 9999 1710 0 0 0
2019/09/22 19:01:00 BASE 18.73 262 23.56 252 -2.4 100 -2.4 96 0 963.6 NA 0.0000 BR 9000 1770 0 0 0
2019/09/22 19:02:00 BASE 19.38 258 23.56 252 -2.4 100 -2.4 101 0 963.6 NA 0.0000 BR 8000 1710 0 0 0
2019/09/22 19:03:00 BASE 19.79 256 23.56 252 -2.4 100 -2.4 101 0 963.6 NA 0.0000 BR 7000 1540 0 0 0
2019/09/22 19:04:00 BASE 19.02 254 23.56 252 -2.4 100 -2.4 95 0 963.6 NA 0.0000 BR 8000 1510 0 0 0
2019/09/22 19:05:00 BASE 18.97 252 23.56 252 -2.4 100 -2.4 88 0 963.6 NA 0.0000 BR 9000 1440 0 0 0
2019/09/22 19:06:00 BASE 20.45 256 23.56 252 -2.5 100 -2.5 81 0 963.7 NA 0.0000 BR 8000 1410 0 0 0
2019/09/22 19:07:00 BASE 20.96 257 23.56 252 -2.5 100 -2.5 77 0 963.7 NA 0.0000 BR 7000 1380 0 0 0
2019/09/22 19:08:00 BASE 18.69 256 23.56 252 -2.5 100 -2.5 79 0 963.7 NA 0.0000 BR 8000 1350 0 0 0
2019/09/22 19:09:00 BASE 17.12 257 23.56 252 -2.5 100 -2.5 89 0 963.8 NA 0.0000 BR 8000 1640 0 0 0
2019/09/22 19:10:00 BASE 18.83 256 23.56 252 -2.5 100 -2.5 92 0 963.8 NA 0.0000 BR 8000 1940 2620 0 0
2019/09/22 19:11:00 BASE 19.45 254 22.84 256 -2.5 100 -2.5 88 0 963.8 NA 0.0000 BR 8000 1670 2200 0 0
2019/09/22 19:12:00 BASE 18.99 256 22.84 256 -2.5 100 -2.5 85 0 963.8 NA 0.0000 BR 9000 1670 2490 0 0
2019/09/22 19:13:00 BASE 19.75 257 22.84 254 -2.5 100 -2.5 81 0 963.8 NA 0.0000 BR 8000 1640 2430 0 0
2019/09/22 19:14:00 BASE 19.16 257 22.84 254 -2.5 100 -2.5 80 0 963.8 NA 0.0000 BR 7000 1640 0 0 0
2019/09/22 19:15:00 BASE 18.87 257 22.84 254 -2.5 100 -2.5 80 0 963.8 NA 0.0000 BR 9000 1770 0 0 0
2019/09/22 19:16:00 BASE 18.92 256 22.84 254 -2.5 100 -2.5 82 0 963.9 NA 0.0000 BR 9000 1640 0 0 0
2019/09/22 19:17:00 BASE 17.87 256 22.84 254 -2.5 100 -2.5 85 0 963.9 NA 0.0000 BR 9000 1740 0 0 0
2019/09/22 19:18:00 BASE 15.50 261 22.84 254 -2.5 100 -2.5 84 0 963.9 NA 0.0000 BR 9999 1670 0 0 0
2019/09/22 19:19:00 BASE 14.01 262 22.84 254 -2.5 100 -2.5 83 0 963.9 NA 0.0000 BR 9999 1570 0 0 0
2019/09/22 19:20:00 BASE 12.62 262 22.84 254 -2.5 100 -2.5 84 0 964.0 NA 0.0000 BR 9999 1440 0 0 0
2019/09/22 19:21:00 BASE 12.00 262 22.84 254 -2.4 100 -2.4 87 0 964.0 NA 0.0000 BR 9999 1510 22340 0 0
2019/09/22 19:22:00 BASE 14.85 259 22.84 254 -2.4 100 -2.4 85 0 964.0 NA 0.0000 BR 9999 1480 0 0 0
2019/09/22 19:23:00 BASE 18.39 260 22.48 259 -2.4 100 -2.5 80 0 963.9 NA 0.0000 BR 9000 1610 0 0 0
2019/09/22 19:24:00 BASE 19.75 257 22.48 259 -2.5 100 -2.5 75 0 964.0 NA 0.0000 BR 7000 1570 0 0 0
2019/09/22 19:25:00 BASE 19.49 256 22.48 259 -2.5 99 -2.6 71 0 964.0 NA 0.0000 BR 7000 1510 0 0 0
2019/09/22 19:26:00 BASE 20.73 257 23.46 255 -2.6 99 -2.7 70 0 964.0 NA 0.0000 BR 7000 1440 0 0 0
2019/09/22 19:27:00 BASE 20.63 257 23.46 255 -2.6 99 -2.7 70 0 964.0 NA 0.0000 BR 6000 1480 0 0 0
2019/09/22 19:28:00 BASE 19.00 257 23.46 255 -2.6 99 -2.7 73 0 964.1 NA 0.0000 BR 8000 1740 0 0 0
2019/09/22 19:29:00 BASE 19.18 259 23.46 255 -2.6 99 -2.7 77 0 964.1 NA 0.0000 BR 8000 1670 0 0 0
2019/09/22 19:30:00 BASE 20.19 259 23.46 255 -2.6 99 -2.7 79 0 964.1 NA 0.0000 BR 7000 2170 0 0 0
2019/09/22 19:31:00 BASE 19.80 258 23.46 255 -2.6 99 -2.7 80 0 964.2 NA 0.0000 BR 7000 1900 0 0 0
2019/09/22 19:32:00 BASE 20.48 257 23.46 255 -2.6 98 -2.8 83 0 964.1 NA 0.0000 BR 7000 1740 0 0 0
2019/09/22 19:33:00 BASE 20.47 255 23.46 255 -2.6 98 -2.8 83 0 964.2 NA 0.0000 BR 6000 1770 0 0 0
2019/09/22 19:34:00 BASE 19.59 255 23.46 255 -2.6 98 -2.9 82 0 964.2 NA 0.0000 BR 7000 1670 2230 0 0
2019/09/22 19:35:00 BASE 20.03 258 23.46 255 -2.6 98 -2.9 80 0 964.2 NA 0.0000 BR 6000 1800 0 0 0
2019/09/22 19:36:00 BASE 20.01 257 23.15 255 -2.6 98 -2.9 78 0 964.2 NA 0.0000 BR 7000 1640 0 0 0
2019/09/22 19:37:00 BASE 19.14 255 23.15 255 -2.6 98 -2.9 76 0 964.3 NA 0.0000 BR 7000 1510 0 0 0
2019/09/22 19:38:00 BASE 19.26 257 23.15 255 -2.6 98 -2.9 74 0 964.3 NA 0.0000 BR 8000 1540 0 0 0
2019/09/22 19:39:00 BASE 19.43 257 23.05 253 -2.7 98 -2.9 74 0 964.3 NA 0.0000 BR 8000 1540 0 0 0
2019/09/22 19:40:00 BASE 17.88 258 23.05 253 -2.7 98 -2.9 73 0 964.4 NA 0.0000 BR 8000 1540 16040 16900 0
2019/09/22 19:41:00 BASE 16.99 258 23.05 253 -2.7 98 -2.9 75 0 964.4 NA 0.0000 BR 9999 1480 0 0 0
2019/09/22 19:42:00 BASE 16.21 255 22.28 253 -2.6 98 -2.9 75 0 964.4 NA 0.0000 BR 9000 1440 22640 0 0
2019/09/22 19:43:00 BASE 17.41 255 22.28 253 -2.6 98 -2.9 72 0 964.4 NA 0.0000 BR 9000 1440 0 0 0
2019/09/22 19:44:00 BASE 18.37 254 22.28 253 -2.6 98 -3.0 70 0 964.4 NA 0.0000 BR 9000 1540 20510 0 0
2019/09/22 19:45:00 BASE 17.89 254 22.28 253 -2.6 97 -3.0 71 0 964.5 NA 0.0000 BR 9000 1540 0 0 0
2019/09/22 19:46:00 BASE 17.36 253 22.28 253 -2.7 97 -3.0 74 0 964.5 NA 0.0000 BR 8000 1510 0 0 0
2019/09/22 19:47:00 BASE 18.41 251 23.51 248 -2.7 97 -3.0 74 0 964.5 NA 0.0000 BR 9000 1540 0 0 0
2019/09/22 19:48:00 BASE 20.11 250 23.51 248 -2.7 97 -3.1 76 0 964.5 NA 0.0000 BR 9000 1480 0 0 0
2019/09/22 19:49:00 BASE 19.96 248 23.51 248 -2.7 97 -3.1 78 0 964.6 NA 0.0000 BR 9000 1510 0 0 0
2019/09/22 19:50:00 BASE 20.01 247 23.51 248 -2.8 97 -3.1 82 0 964.6 NA 0.0000 BR 9999 1510 0 0 0
2019/09/22 19:51:00 BASE 18.94 248 23.51 248 -2.8 97 -3.2 93 0 964.6 NA 0.0000 BR 9000 1610 0 0 0
2019/09/22 19:52:00 BASE 17.27 252 23.51 248 -2.8 97 -3.2 93 0 964.7 NA 0.0000 BR 9000 1800 2400 0 0
2019/09/22 19:53:00 BASE 14.30 255 23.51 248 -2.8 97 -3.2 94 0 964.8 NA 0.0000 BR 9000 1570 0 0 0
2019/09/22 19:54:00 BASE 13.25 256 23.51 248 -2.8 97 -3.2 99 0 964.8 NA 0.0000 BR 9999 1510 0 0 0
2019/09/22 19:55:00 BASE 15.49 255 23.51 248 -2.7 97 -3.1 107 0 964.7 NA 0.0000 BR 9999 1570 0 0 0
2019/09/22 19:56:00 BASE 16.76 256 23.51 248 -2.7 97 -3.1 123 0 964.7 NA 0.0000 BR 9000 1740 0 0 0
2019/09/22 19:57:00 BASE 17.68 255 21.81 251 -2.7 97 -3.1 147 0 964.8 NA 0.0000 BR 9000 1770 0 0 0
2019/09/22 19:58:00 BASE 18.02 251 21.81 251 -2.7 97 -3.2 175 0 964.8 NA 0.0000 BR 9999 1570 23000 0 0
2019/09/22 19:59:00 BASE 16.87 250 21.61 250 -2.7 96 -3.2 191 0 964.8 NA 0.0000 BR 9999 1610 0 0 0
2019/09/22 20:00:00 BASE 15.58 252 20.47 253 -2.8 96 -3.3 197 0 964.9 NA 0.0000 BR 9999 1570 0 0 0
2019/09/22 20:01:00 BASE 14.60 257 20.47 253 -2.7 96 -3.3 190 0 964.9 NA 0.0000 BR 9000 1540 0 0 0
2019/09/22 20:02:00 BASE 14.11 260 20.47 253 -2.7 96 -3.2 191 0 964.9 NA 0.0000 BR 9000 1610 0 0 0
2019/09/22 20:03:00 BASE 14.79 264 20.47 253 -2.7 96 -3.2 161 0 964.9 NA 0.0000 BR 8000 1640 0 0 0
2019/09/22 20:04:00 BASE 15.81 267 20.47 253 -2.6 96 -3.2 150 0 964.9 NA 0.0000 BR 8000 1740 0 0 0
2019/09/22 20:05:00 BASE 16.18 269 20.47 253 -2.7 96 -3.3 140 0 965.0 NA 0.0000 BR 9000 1670 0 0 0
2019/09/22 20:06:00 BASE 16.24 267 20.32 249 -2.7 95 -3.3 114 0 965.0 NA 0.0000 BR 9999 2070 0 0 0
2019/09/22 20:07:00 BASE 15.93 267 19.45 258 -2.7 95 -3.4 96 0 965.0 NA 0.0000 BR 9999 2130 0 0 0
2019/09/22 20:08:00 BASE 15.43 267 19.45 258 -2.8 95 -3.5 100 0 965.1 NA 0.0000 BR 9999 1840 0 0 0
2019/09/22 20:09:00 BASE 14.62 265 19.45 258 -2.8 95 -3.5 101 0 965.1 NA 0.0000 BR 9999 1770 0 0 0
2019/09/22 20:10:00 BASE 14.18 266 19.45 258 -2.8 95 -3.5 95 0 965.1 NA 0.0000 BR 9999 1870 0 0 0
2019/09/22 20:11:00 BASE 13.27 266 19.45 258 -2.8 95 -3.5 93 0 965.2 NA 0.0000 BR 9000 1800 0 0 0
2019/09/22 20:12:00 BASE 12.60 264 19.45 258 -2.8 95 -3.5 90 0 965.2 NA 0.0000 BR 9000 1640 2360 0 0
2019/09/22 20:13:00 BASE 12.98 267 19.03 267 -2.8 95 -3.5 89 0 965.2 NA 0.0000 BR 9000 1670 0 0 0
2019/09/22 20:14:00 BASE 14.98 263 20.32 261 -2.8 95 -3.5 93 0 965.2 NA 0.0000 BR 9000 1710 2400 0 0
2019/09/22 20:15:00 BASE 16.36 258 20.32 261 -2.8 95 -3.5 89 0 965.2 NA 0.0000 BR 9000 1870 0 0 0
2019/09/22 20:16:00 BASE 16.01 258 20.32 261 -2.8 95 -3.6 85 0 965.2 NA 0.0000 BR 9000 1800 0 0 0
2019/09/22 20:17:00 BASE 15.88 260 20.32 261 -2.9 94 -3.6 86 0 965.2 NA 0.0000 BR 9000 1770 0 0 0
2019/09/22 20:18:00 BASE 17.06 259 20.83 252 -2.9 94 -3.7 79 0 965.2 NA 0.0000 BR 8000 1770 0 0 0
2019/09/22 20:19:00 BASE 17.21 253 20.83 252 -2.9 94 -3.7 77 0 965.3 NA 0.0000 BR 8000 1770 0 0 0
2019/09/22 20:20:00 BASE 16.00 253 20.83 252 -2.9 94 -3.7 73 0 965.3 NA 0.0000 BR 9999 1710 0 0 0
2019/09/22 20:21:01 BASE 15.89 255 20.83 252 -2.9 94 -3.7 69 0 965.3 NA 0.0000 BR 9000 1710 0 0 0
2019/09/22 20:22:01 BASE 14.80 258 20.83 252 -2.9 94 -3.8 67 0 965.3 NA 0.0000 BR 9000 1570 0 0 0
2019/09/22 20:23:00 BASE 15.24 259 20.83 252 -2.9 94 -3.8 65 0 965.3 NA 0.0000 BR 9000 1710 0 0 0
2019/09/22 20:24:01 BASE 15.72 258 20.83 252 -2.9 94 -3.8 66 0 965.3 NA 0.0000 BR 9999 1610 0 0 0
2019/09/22 20:25:01 BASE 14.73 258 20.83 252 -2.9 94 -3.8 66 0 965.4 NA 0.0000 BR 9999 1640 0 0 0
2019/09/22 20:26:01 BASE 14.22 257 20.83 252 -2.9 94 -3.7 67 0 965.4 NA 0.0000 BR 9000 1740 0 0 0
2019/09/22 20:27:01 BASE 12.51 261 20.83 252 -2.9 94 -3.7 68 0 965.4 NA 0.0000 BR 9999 1640 0 0 0
2019/09/22 20:28:01 BASE 11.46 267 19.09 259 -2.9 94 -3.7 68 0 965.4 NA 0.0000 BR 9999 1740 0 0 0
2019/09/22 20:29:01 BASE 11.73 266 19.09 259 -2.9 94 -3.7 65 0 965.4 NA 0.0000 BR 9999 1710 3940 0 0
2019/09/22 20:30:01 BASE 10.95 264 19.09 259 -2.8 94 -3.7 63 0 965.5 NA 0.0000 BR 9999 1840 4000 0 0
2019/09/22 20:31:01 BASE 10.95 266 19.09 259 -2.8 94 -3.7 62 0 965.5 NA 0.0000 BR 9999 1670 0 0 0
2019/09/22 20:32:01 BASE 10.81 271 19.09 259 -2.8 94 -3.7 61 0 965.6 NA 0.0000 9999 1900 0 0 0
2019/09/22 20:33:01 BASE 10.50 269 19.09 259 -2.9 94 -3.7 63 0 965.5 NA 0.0000 9000 1740 4040 0 0
2019/09/22 20:34:01 BASE 11.81 258 19.09 259 -2.9 94 -3.7 64 0 965.6 NA 0.0000 BR 9999 1770 3870 0 0
2019/09/22 20:35:01 BASE 12.15 257 17.29 254 -2.9 94 -3.7 61 0 965.6 NA 0.0000 BR 9999 1970 3940 0 0
2019/09/22 20:36:01 BASE 11.84 263 15.07 257 -2.9 94 -3.7 57 0 965.6 NA 0.0000 BR 9999 1870 0 0 0
2019/09/22 20:37:01 BASE 12.01 263 15.07 257 -2.9 94 -3.7 55 0 965.6 NA 0.0000 BR 9000 1740 0 0 0
2019/09/22 20:38:01 BASE 11.09 263 15.07 257 -2.9 94 -3.7 53 0 965.6 NA 0.0000 BR 9999 1710 0 0 0
2019/09/22 20:39:01 BASE 10.59 263 15.07 257 -2.9 94 -3.7 53 0 965.6 NA 0.0000 BR 9999 1940 0 0 0
2019/09/22 20:40:01 BASE 10.82 261 15.07 257 -2.9 94 -3.7 52 0 965.7 NA 0.0000 9999 1740 0 0 0
2019/09/22 20:41:01 BASE 10.70 263 14.66 247 -2.9 94 -3.7 51 0 965.6 NA 0.0000 9999 1870 0 0 0
2019/09/22 20:42:01 BASE 10.65 267 14.66 247 -2.9 94 -3.7 50 0 965.7 NA 0.0000 9999 1900 0 0 0
2019/09/22 20:43:01 BASE 10.98 263 14.66 247 -2.9 94 -3.7 50 0 965.7 NA 0.0000 9999 1770 0 0 0
2019/09/22 20:44:01 BASE 10.96 259 14.46 272 -2.9 94 -3.7 50 0 965.7 NA 0.0000 9999 1670 0 0 0
2019/09/22 20:45:01 BASE 10.23 261 14.46 272 -2.9 94 -3.7 50 0 965.7 NA 0.0000 9999 1570 0 0 0
2019/09/22 20:46:01 BASE 9.17 264 13.99 263 -2.9 94 -3.7 51 0 965.8 NA 0.0000 9999 1740 0 0 0
2019/09/22 20:47:01 BASE 8.68 275 12.91 254 -2.9 94 -3.7 50 0 965.7 NA 0.0000 9999 1610 0 0 0
2019/09/22 20:48:01 BASE 8.88 278 12.91 254 -2.9 94 -3.7 49 0 965.7 NA 0.0000 9999 1540 0 0 0
2019/09/22 20:49:01 BASE 9.10 272 12.91 254 -2.8 94 -3.7 49 0 965.7 NA 0.0000 9999 1870 0 0 0
2019/09/22 20:50:01 BASE 8.74 272 12.91 254 -2.8 94 -3.6 50 0 965.7 NA 0.0000 9999 1800 0 0 0
2019/09/22 20:51:01 BASE 9.49 274 12.91 254 -2.8 94 -3.6 49 0 965.7 NA 0.0000 9999 1740 0 0 0
2019/09/22 20:52:01 BASE 10.71 277 12.55 244 -2.8 94 -3.7 46 0 965.7 NA 0.0000 9999 2000 0 0 0
2019/09/22 20:53:01 BASE 10.69 278 13.17 273 -2.9 94 -3.7 44 0 965.7 NA 0.0000 9999 2000 0 0 0
2019/09/22 20:54:01 BASE 10.25 275 13.17 273 -2.9 94 -3.7 42 0 965.7 NA 0.0000 9999 1840 0 0 0
2019/09/22 20:55:01 BASE 10.05 273 13.17 273 -2.9 94 -3.7 40 0 965.7 NA 0.0000 9999 1770 0 0 0
2019/09/22 20:56:01 BASE 10.68 273 13.17 273 -2.8 93 -3.8 38 0 965.7 NA 0.0000 9999 1870 0 0 0
2019/09/22 20:57:01 BASE 9.73 273 13.17 273 -2.8 93 -3.8 36 0 965.7 NA 0.0000 9999 1870 0 0 0
2019/09/22 20:58:01 BASE 8.95 275 13.17 273 -2.8 93 -3.8 35 0 965.8 NA 0.0000 9999 1800 0 0 0
2019/09/22 20:59:01 BASE 8.98 280 13.17 273 -2.8 93 -3.8 33 0 965.8 NA 0.0000 9999 1970 0 0 0
2019/09/22 21:00:01 BASE 9.64 285 13.17 273 -2.8 92 -3.8 31 0 965.8 NA 0.0000 9999 1970 0 0 0
2019/09/22 21:01:01 BASE 10.71 286 13.17 273 -2.8 92 -3.9 30 0 965.8 NA 0.0000 9999 1840 0 0 0
2019/09/22 21:02:01 BASE 10.85 285 13.17 273 -2.8 92 -3.9 29 0 965.8 NA 0.0000 9999 1770 0 0 0
2019/09/22 21:03:01 BASE 11.28 285 12.91 287 -2.8 92 -3.9 28 0 965.8 NA 0.0000 9999 1970 0 0 0
2019/09/22 21:04:01 BASE 10.92 284 12.91 287 -2.8 92 -3.9 28 0 965.8 NA 0.0000 9999 2030 0 0 0
2019/09/22 21:05:00 BASE 9.60 282 12.91 287 -2.8 92 -3.9 28 0 965.8 NA 0.0000 9999 1940 0 0 0
2019/09/22 21:06:01 BASE 8.81 283 12.91 287 -2.8 92 -3.9 28 0 965.8 NA 0.0000 9999 1870 0 0 0
2019/09/22 21:07:00 BASE 9.91 283 12.91 287 -2.8 92 -3.9 28 0 965.7 NA 0.0000 9999 1870 0 0 0
2019/09/22 21:08:01 BASE 11.28 281 12.91 279 -2.8 92 -3.9 29 0 965.8 NA 0.0000 9999 1800 0 0 0
2019/09/22 21:09:01 BASE 11.06 281 12.91 279 -2.8 92 -3.9 28 0 965.8 NA 0.0000 9999 1770 0 0 0
2019/09/22 21:10:00 BASE 11.02 282 13.27 278 -2.8 92 -3.9 27 0 965.8 NA 0.0000 9999 1800 0 0 0
2019/09/22 21:11:01 BASE 11.41 282 13.27 278 -2.8 92 -3.9 26 0 965.8 NA 0.0000 9999 1800 0 0 0
2019/09/22 21:12:01 BASE 11.50 281 14.30 268 -2.7 92 -3.9 26 0 965.8 NA 0.0000 9999 1770 0 0 0
2019/09/22 21:13:00 BASE 11.69 278 14.30 268 -2.7 92 -3.9 25 0 965.8 NA 0.0000 9999 1770 0 0 0
2019/09/22 21:14:01 BASE 12.18 277 14.46 274 -2.7 92 -3.9 24 0 965.8 NA 0.0000 9999 1740 0 0 0
2019/09/22 21:15:00 BASE 11.88 280 14.46 274 -2.7 92 -3.9 23 0 965.8 NA 0.0000 9999 1740 0 0 0
2019/09/22 21:16:01 BASE 10.96 285 14.46 274 -2.7 92 -3.9 22 0 965.8 NA 0.0000 9999 1710 0 0 0
2019/09/22 21:17:00 BASE 10.88 284 14.46 274 -2.7 92 -3.9 22 0 965.8 NA 0.0000 9999 1710 0 0 0
2019/09/22 21:18:00 BASE 11.51 280 14.46 274 -2.7 92 -3.9 22 0 965.8 NA 0.0000 9999 1670 0 0 0
2019/09/22 21:19:00 BASE 12.01 280 14.46 274 -2.7 92 -3.9 21 0 965.8 NA 0.0000 9999 1740 0 0 0
2019/09/22 21:20:00 BASE 12.18 286 14.46 274 -2.8 92 -3.9 21 0 965.8 NA 0.0000 9999 1710 0 0 0
2019/09/22 21:21:00 BASE 12.45 289 14.46 274 -2.8 92 -3.9 21 0 965.8 NA 0.0000 9999 1770 0 0 0
2019/09/22 21:22:01 BASE 12.67 282 14.51 277 -2.8 92 -3.9 20 0 965.8 NA 0.0000 9999 1970 0 0 0
2019/09/22 21:23:00 BASE 11.19 282 14.51 277 -2.8 92 -3.9 19 0 965.8 NA 0.0000 9999 1800 0 0 0
2019/09/22 21:24:00 BASE 9.93 288 14.51 277 -2.8 92 -3.9 19 0 965.9 NA 0.0000 9999 1640 0 0 0
2019/09/22 21:25:00 BASE 9.92 292 14.51 277 -2.8 92 -3.9 19 0 965.9 NA 0.0000 9999 1610 2850 0 0
2019/09/22 21:26:00 BASE 9.90 297 14.51 277 -2.8 93 -3.9 19 0 965.9 NA 0.0000 9999 1610 2760 0 0
2019/09/22 21:27:00 BASE 10.37 300 14.51 277 -2.9 93 -3.9 18 0 965.9 NA 0.0000 9999 2890 3870 0 0
2019/09/22 21:28:00 BASE 11.24 298 14.51 277 -2.9 93 -3.9 18 0 965.9 NA 0.0000 9999 2660 0 0 0
2019/09/22 21:29:00 BASE 11.88 298 14.51 277 -2.9 93 -3.9 18 0 965.9 NA 0.0000 9999 1740 2720 4170 0
2019/09/22 21:30:00 BASE 11.66 299 14.51 277 -3.0 93 -3.9 17 0 965.9 NA 0.0000 9999 2720 0 0 0
2019/09/22 21:31:00 BASE 11.92 294 14.51 276 -3.0 93 -3.9 16 0 965.9 NA 0.0000 9999 1670 2890 0 0
2019/09/22 21:32:00 BASE 12.53 287 14.51 276 -3.0 94 -3.9 15 0 965.9 NA 0.0000 9999 3250 0 0 0
2019/09/22 21:33:00 BASE 11.63 288 14.51 276 -3.0 94 -3.9 15 0 965.9 NA 0.0000 9999 3380 0 0 0
2019/09/22 21:34:00 BASE 10.74 296 14.51 276 -3.0 94 -3.8 15 0 965.9 NA 0.0000 9999 1640 3510 4100 0
2019/09/22 21:35:00 BASE 10.62 298 14.51 276 -3.0 94 -3.8 15 0 966.0 NA 0.0000 9999 1570 4130 0 0
2019/09/22 21:36:00 BASE 10.61 295 14.51 276 -3.0 94 -3.8 15 0 966.0 NA 0.0000 9999 1540 0 0 0
2019/09/22 21:37:00 BASE 10.21 291 14.51 276 -3.0 94 -3.8 15 0 966.0 NA 0.0000 9999 1570 4130 0 0
2019/09/22 21:38:01 BASE 9.15 290 14.51 276 -3.0 94 -3.8 15 0 966.0 NA 0.0000 9999 1540 4100 0 0
2019/09/22 21:39:00 BASE 8.95 289 14.51 276 -3.0 95 -3.8 15 0 966.0 NA 0.0000 9999 1510 4200 0 0
2019/09/22 21:40:00 BASE 9.78 286 14.51 276 -3.0 95 -3.7 15 0 966.0 NA 0.0000 9999 1670 4170 0 0
2019/09/22 21:41:00 BASE 9.93 288 14.35 282 -3.0 95 -3.7 15 0 966.0 NA 0.0000 9999 1540 4130 0 0
2019/09/22 21:42:00 BASE 8.94 289 13.12 288 -3.0 95 -3.6 15 0 966.1 NA 0.0000 9999 1610 4170 0 0
2019/09/22 21:43:00 BASE 9.72 290 13.12 288 -3.0 96 -3.6 15 0 966.0 NA 0.0000 9999 1610 0 0 0
2019/09/22 21:44:00 BASE 10.52 287 13.12 288 -3.0 96 -3.6 16 0 966.1 NA 0.0000 9999 1540 3080 4100 0
2019/09/22 21:45:00 BASE 9.71 283 13.12 288 -3.0 96 -3.5 16 0 966.1 NA 0.0000 9999 1440 4000 0 0
2019/09/22 21:46:00 BASE 9.72 285 12.91 273 -2.9 96 -3.4 17 0 966.1 NA 0.0000 9999 1770 3970 0 0
2019/09/22 21:47:00 BASE 10.52 285 12.91 273 -2.9 97 -3.4 16 0 966.1 NA 0.0000 9999 1540 3080 4040 0
2019/09/22 21:48:00 BASE 11.38 284 13.84 288 -2.9 97 -3.4 16 0 966.1 NA 0.0000 9999 1480 4100 0 0
2019/09/22 21:49:00 BASE 12.16 283 14.40 278 -2.9 97 -3.3 15 0 966.0 NA 0.0000 9999 4130 4920 0 0
2019/09/22 21:50:00 BASE 12.46 284 14.40 278 -2.9 97 -3.3 14 0 966.1 NA 0.0000 9999 1800 4130 0 0
2019/09/22 21:51:00 BASE 12.64 281 14.46 277 -3.0 98 -3.3 14 0 966.1 NA 0.0000 9999 1540 4200 0 0
2019/09/22 21:52:00 BASE 12.70 281 14.51 286 -3.0 98 -3.3 13 0 966.1 NA 0.0000 9999 4130 0 0 0
2019/09/22 21:53:00 BASE 13.06 283 14.61 278 -3.0 98 -3.3 12 0 966.1 NA 0.0000 9999 1610 4130 0 0
2019/09/22 21:54:00 BASE 12.59 280 14.61 278 -3.0 98 -3.3 10 0 966.1 NA 0.0000 9999 1410 0 0 0
2019/09/22 21:55:00 BASE 11.01 279 14.61 278 -3.0 98 -3.3 10 0 966.2 NA 0.0000 9999 1380 3380 4170 0
2019/09/22 21:56:00 BASE 11.44 284 14.61 278 -3.0 98 -3.2 9 0 966.1 NA 0.0000 9999 1570 3310 4200 0
2019/09/22 21:57:00 BASE 12.96 285 15.02 274 -3.0 98 -3.2 8 0 966.1 NA 0.0000 9999 1540 3380 4170 0
2019/09/22 21:58:00 BASE 11.70 281 15.02 274 -3.0 98 -3.2 7 0 966.2 NA 0.0000 9999 1670 3350 0 0
2019/09/22 21:59:00 BASE 9.45 283 15.02 274 -3.0 98 -3.2 7 0 966.2 NA 0.0000 9999 1440 2030 0 0
2019/09/22 22:00:00 BASE 10.63 285 15.02 274 -3.0 98 -3.2 6 0 966.2 NA 0.0000 9999 1570 0 0 0
2019/09/22 22:01:00 BASE 11.65 278 15.02 274 -3.0 98 -3.2 6 0 966.2 NA 0.0000 9999 1440 0 0 0
2019/09/22 22:02:00 BASE 10.91 273 15.02 274 -2.9 98 -3.2 6 0 966.2 NA 0.0000 9999 1480 0 0 0
2019/09/22 22:03:00 BASE 10.52 275 15.02 274 -2.9 98 -3.2 6 0 966.2 NA 0.0000 9999 1610 0 0 0
2019/09/22 22:04:00 BASE 10.82 275 15.02 274 -2.9 98 -3.2 6 0 966.2 NA 0.0000 9999 1480 0 0 0
2019/09/22 22:05:00 BASE 10.57 275 15.02 274 -2.9 98 -3.2 6 0 966.2 NA 0.0000 9999 1510 0 0 0
2019/09/22 22:06:00 BASE 10.11 278 15.02 274 -2.9 98 -3.2 5 0 966.2 NA 0.0000 9999 1410 0 0 0
2019/09/22 22:07:00 BASE 11.20 283 13.79 276 -2.9 98 -3.2 5 0 966.1 NA 0.0000 9999 1540 0 0 0
2019/09/22 22:08:00 BASE 10.89 282 13.79 276 -3.0 98 -3.2 4 0 966.1 NA 0.0000 9999 1440 0 0 0
2019/09/22 22:09:00 BASE 10.25 278 13.79 276 -3.0 98 -3.2 3 0 966.2 NA 0.0000 9999 1440 0 0 0
2019/09/22 22:10:00 BASE 11.39 277 14.82 278 -3.0 98 -3.3 3 0 966.2 NA 0.0000 9999 1410 0 0 0
2019/09/22 22:11:00 BASE 12.14 275 14.82 278 -3.0 98 -3.3 2 0 966.2 NA 0.0000 9999 1350 0 0 0
2019/09/22 22:12:00 BASE 11.33 272 14.82 278 -3.0 98 -3.3 2 0 966.2 NA 0.0000 9999 1410 0 0 0
2019/09/22 22:13:00 BASE 10.76 270 14.82 278 -3.0 98 -3.3 2 0 966.2 NA 0.0000 9999 1410 0 0 0
2019/09/22 22:14:00 BASE 11.26 266 14.82 278 -3.0 98 -3.3 2 0 966.2 NA 0.0000 9999 1440 0 0 0
2019/09/22 22:15:00 BASE 11.84 262 14.82 278 -3.0 98 -3.3 1 0 966.2 NA 0.0000 9999 1480 0 0 0
2019/09/22 22:16:00 BASE 12.67 258 14.82 278 -3.0 98 -3.3 1 0 966.2 NA 0.0000 9999 1440 0 0 0
2019/09/22 22:17:00 BASE 12.32 257 14.82 278 -3.0 97 -3.4 1 0 966.2 NA 0.0000 9999 1440 0 0 0
2019/09/22 22:18:00 BASE 10.49 263 14.82 278 -3.0 97 -3.4 1 0 966.2 NA 0.0000 9999 1410 0 0 0
2019/09/22 22:19:00 BASE 10.14 269 14.82 278 -3.0 97 -3.4 1 0 966.2 NA 0.0000 9999 1440 0 0 0
2019/09/22 22:20:00 BASE 10.73 268 14.56 259 -3.0 97 -3.4 1 0 966.2 NA 0.0000 9999 1480 0 0 0
2019/09/22 22:21:00 BASE 10.42 263 14.56 259 -3.0 97 -3.4 1 0 966.2 NA 0.0000 9999 1480 0 0 0
2019/09/22 22:22:00 BASE 10.34 263 14.56 259 -3.0 97 -3.4 1 0 966.2 NA 0.0000 9999 1480 0 0 0
2019/09/22 22:23:00 BASE 11.14 263 14.56 259 -3.0 97 -3.4 1 0 966.2 NA 0.0000 9999 1440 0 0 0
2019/09/22 22:24:00 BASE 11.26 264 14.56 259 -3.0 97 -3.4 1 0 966.2 NA 0.0000 9999 1510 0 0 0
2019/09/22 22:25:00 BASE 10.26 267 14.35 259 -3.0 97 -3.4 1 0 966.3 NA 0.0000 9999 1540 0 0 0
2019/09/22 22:26:00 BASE 10.51 261 14.15 262 -3.0 97 -3.4 0 0 966.3 NA 0.0000 9999 1510 0 0 0
2019/09/22 22:27:00 BASE 10.13 261 14.15 262 -3.0 97 -3.4 0 0 966.4 NA 0.0000 9999 1540 0 0 0
2019/09/22 22:28:00 BASE 9.58 264 14.15 262 -3.0 97 -3.4 0 0 966.4 NA 0.0000 9999 1510 0 0 0
2019/09/22 22:29:00 BASE 10.18 260 13.79 263 -3.0 97 -3.4 0 0 966.4 NA 0.0000 9999 1510 0 0 0
2019/09/22 22:30:00 BASE 9.70 264 13.79 263 -3.0 97 -3.4 0 0 966.4 NA 0.0000 9999 1510 0 0 0
2019/09/22 22:31:00 BASE 9.88 272 13.79 263 -3.0 98 -3.3 0 0 966.3 NA 0.0000 9999 1510 0 0 0
2019/09/22 22:32:00 BASE 11.77 269 15.33 258 -3.0 98 -3.3 0 0 966.4 NA 0.0000 9999 1440 0 0 0
2019/09/22 22:33:00 BASE 12.95 263 15.33 258 -3.0 98 -3.3 0 0 966.3 NA 0.0000 9999 1540 0 0 0
2019/09/22 22:34:00 BASE 12.38 262 15.33 258 -3.0 98 -3.3 0 0 966.4 NA 0.0000 9999 1510 0 0 0
2019/09/22 22:35:00 BASE 10.35 265 15.33 258 -3.0 98 -3.3 0 0 966.4 NA 0.0000 9999 1510 0 0 0
2019/09/22 22:36:00 BASE 8.59 270 15.33 258 -3.0 98 -3.3 0 0 966.4 NA 0.0000 9999 1610 0 0 0
2019/09/22 22:37:00 BASE 10.27 272 15.33 258 -3.0 97 -3.4 0 0 966.5 NA 0.0000 9999 1770 0 0 0
2019/09/22 22:38:00 BASE 11.95 268 15.33 258 -3.0 97 -3.4 0 0 966.5 NA 0.0000 9999 1570 0 0 0
2019/09/22 22:39:00 BASE 11.78 265 15.33 258 -3.0 97 -3.4 0 0 966.5 NA 0.0000 9999 1570 0 0 0
2019/09/22 22:40:00 BASE 10.66 265 15.33 258 -3.0 97 -3.4 0 0 966.5 NA 0.0000 9999 1570 0 0 0
2019/09/22 22:41:00 BASE 9.30 268 15.33 258 -3.0 97 -3.4 0 0 966.5 NA 0.0000 9999 1510 0 0 0
2019/09/22 22:42:00 BASE 10.48 270 15.18 267 -3.0 97 -3.4 0 0 966.5 NA 0.0000 9999 1570 0 0 0
2019/09/22 22:43:00 BASE 12.08 268 15.18 267 -3.0 97 -3.4 0 0 966.5 NA 0.0000 9999 1540 0 0 0
2019/09/22 22:44:00 BASE 11.82 267 15.18 267 -3.0 97 -3.4 0 0 966.5 NA 0.0000 9999 1540 0 0 0
2019/09/22 22:45:00 BASE 11.28 269 15.18 267 -3.0 97 -3.4 0 0 966.5 NA 0.0000 9999 1610 0 0 0
2019/09/22 22:46:00 BASE 11.60 270 15.18 267 -3.1 97 -3.5 0 0 966.5 NA 0.0000 9999 1570 0 0 0
2019/09/22 22:47:00 BASE 12.32 267 15.64 253 -3.1 97 -3.5 0 0 966.5 NA 0.0000 9999 1610 0 0 0
2019/09/22 22:48:00 BASE 12.73 269 15.64 253 -3.1 97 -3.5 0 0 966.5 NA 0.0000 9999 1610 0 0 0
2019/09/22 22:49:00 BASE 12.76 271 15.95 273 -3.1 97 -3.5 0 0 966.5 NA 0.0000 9999 1610 0 0 0
2019/09/22 22:50:00 BASE 12.73 271 15.95 273 -3.1 97 -3.5 0 0 966.5 NA 0.0000 9999 1640 0 0 0
2019/09/22 22:51:00 BASE 10.89 272 15.95 273 -3.1 96 -3.6 0 0 966.5 NA 0.0000 9999 1640 0 0 0
2019/09/22 22:52:00 BASE 10.45 275 15.95 273 -3.1 96 -3.6 0 0 966.5 NA 0.0000 9999 1870 0 0 0
2019/09/22 22:53:00 BASE 12.08 277 15.95 273 -3.0 96 -3.6 0 0 966.5 NA 0.0000 9999 1610 0 0 0
2019/09/22 22:54:00 BASE 12.87 278 15.95 273 -3.0 96 -3.6 0 0 966.5 NA 0.0000 9999 950 2400 0 0
2019/09/22 22:55:00 BASE 13.14 278 15.95 273 -3.0 96 -3.6 0 0 966.5 NA 0.0000 9999 1610 0 0 0
2019/09/22 22:56:00 BASE 12.86 277 15.95 273 -3.0 96 -3.6 0 0 966.5 NA 0.0000 9999 1570 0 0 0
2019/09/22 22:57:00 BASE 12.24 276 15.95 273 -3.1 96 -3.6 0 0 966.5 NA 0.0000 9999 1740 0 0 0
2019/09/22 22:58:00 BASE 11.33 276 15.95 273 -3.1 96 -3.6 0 0 966.5 NA 0.0000 9999 1540 0 0 0
2019/09/22 22:59:00 BASE 11.40 276 15.74 277 -3.1 96 -3.6 0 0 966.5 NA 0.0000 9999 660 0 0 0
2019/09/22 23:00:00 BASE 11.86 276 15.74 277 -3.1 96 -3.6 0 0 966.5 NA 0.0000 9999 720 0 0 0
2019/09/22 23:01:00 BASE 11.91 275 15.74 277 -3.1 96 -3.6 0 0 966.5 NA 0.0000 9999 950 0 0 0
2019/09/22 23:02:00 BASE 12.05 272 15.74 277 -3.1 96 -3.7 0 0 966.5 NA 0.0000 9999 1510 0 0 0
2019/09/22 23:03:00 BASE 11.20 273 15.74 277 -3.1 96 -3.7 0 0 966.5 NA 0.0000 9999 1770 0 0 0
2019/09/22 23:04:00 BASE 11.77 276 15.28 272 -3.2 96 -3.7 0 0 966.5 NA 0.0000 -SN 9999 1800 0 0 0
2019/09/22 23:05:00 BASE 13.21 273 16.20 265 -3.2 96 -3.7 0 0 966.5 NA 0.0000 -SN 9999 1710 0 0 0
2019/09/22 23:06:00 BASE 13.19 265 16.51 255 -3.2 96 -3.7 0 0 966.5 NA 0.0000 -SN 9999 1610 0 0 0
2019/09/22 23:07:00 BASE 12.78 261 16.51 255 -3.2 96 -3.7 0 0 966.5 NA 0.0000 -SN 9999 390 0 0 0
2019/09/22 23:08:00 BASE 12.91 263 16.51 255 -3.3 97 -3.7 0 0 966.5 NA 0.0000 -SN 9000 390 0 0 0
2019/09/22 23:09:00 BASE 13.43 266 16.51 255 -3.3 97 -3.7 0 0 966.5 NA 0.0000 -SN 9999 660 0 0 0
2019/09/22 23:10:00 BASE 12.70 263 16.51 255 -3.3 97 -3.7 0 0 966.5 NA 0.0000 -SN 9999 1800 0 0 0
2019/09/22 23:11:00 BASE 11.98 259 16.51 255 -3.3 97 -3.7 0 0 966.5 NA 0.0000 -SN 9000 390 2130 0 0
2019/09/22 23:12:00 BASE 11.39 261 16.51 255 -3.3 97 -3.7 0 0 966.5 NA 0.0000 -SN 9000 980 0 0 0
2019/09/22 23:13:00 BASE 11.01 263 16.51 255 -3.3 97 -3.7 0 0 966.5 NA 0.0000 -SN 9999 0 0 0 3810
2019/09/22 23:14:00 BASE 9.87 263 16.51 255 -3.3 97 -3.7 0 0 966.5 NA 0.0000 -SN 9999 750 2760 0 0
2019/09/22 23:15:00 BASE 8.29 264 16.51 255 -3.3 97 -3.7 0 0 966.5 NA 0.0000 -SN 9999 2300 0 0 0
2019/09/22 23:16:00 BASE 8.68 264 16.36 268 -3.3 97 -3.7 0 0 966.5 NA 0.0000 -SN 9999 0 0 0 4360
2019/09/22 23:17:00 BASE 9.31 269 16.36 268 -3.3 97 -3.7 0 0 966.5 NA 0.0000 -SN 9999 2920 0 0 0
2019/09/22 23:18:00 BASE 10.43 275 16.05 259 -3.3 97 -3.7 0 0 966.5 NA 0.0000 -SN 9999 3080 0 0 0
2019/09/22 23:19:00 BASE 12.00 282 14.66 290 -3.3 97 -3.7 0 0 966.5 NA 0.0000 -SN 9999 1870 0 0 0
2019/09/22 23:20:00 BASE 12.77 287 14.82 284 -3.3 97 -3.7 0 0 966.5 NA 0.0000 -SN 9999 1800 0 0 0
2019/09/22 23:21:00 BASE 12.70 285 14.82 284 -3.3 97 -3.7 0 0 966.5 NA 0.0000 -SN 9999 1940 0 0 0
2019/09/22 23:22:00 BASE 12.56 288 14.92 295 -3.3 97 -3.7 0 0 966.5 NA 0.0000 -SN 9999 1940 0 0 0
2019/09/22 23:23:00 BASE 12.35 293 14.92 295 -3.3 97 -3.7 0 0 966.5 NA 0.0000 -SN 9999 390 0 0 0
2019/09/22 23:24:00 BASE 11.14 294 14.92 295 -3.3 97 -3.7 0 0 966.5 NA 0.0000 -SN 9999 0 0 0 4720
2019/09/22 23:25:00 BASE 10.63 292 14.92 295 -3.3 97 -3.8 0 0 966.5 NA 0.0000 -SN 9999 0 0 0 5090
2019/09/22 23:26:00 BASE 11.88 291 14.92 295 -3.4 97 -3.8 0 0 966.5 NA 0.0000 -SN 9999 1710 0 0 0
2019/09/22 23:27:00 BASE 12.56 289 14.92 295 -3.4 97 -3.8 0 0 966.5 NA 0.0000 -SN 9000 0 0 0 4950
2019/09/22 23:28:00 BASE 12.31 288 14.92 295 -3.5 97 -3.9 0 0 966.5 NA 0.0000 -SN 9000 0 0 0 5350
2019/09/22 23:29:00 BASE 11.87 288 14.92 295 -3.5 97 -3.9 0 0 966.5 NA 0.0000 -SN 9999 4560 0 0 0
2019/09/22 23:30:00 BASE 10.80 287 14.92 295 -3.5 97 -3.9 0 0 966.5 NA 0.0000 -SN 9999 4890 0 0 0
2019/09/22 23:31:00 BASE 11.53 286 14.92 295 -3.5 97 -3.9 0 0 966.4 NA 0.0000 -SN 9999 5050 0 0 0
2019/09/22 23:32:00 BASE 12.45 282 14.51 293 -3.5 97 -3.9 0 0 966.4 NA 0.0000 -SN 9999 5220 0 0 0
2019/09/22 23:33:00 BASE 10.71 280 14.51 293 -3.5 97 -3.9 0 0 966.4 NA 0.0000 -SN 9999 5350 0 0 0
2019/09/22 23:34:00 BASE 10.26 279 14.51 293 -3.5 97 -3.9 0 0 966.4 NA 0.0000 -SN 9999 5610 0 0 0
2019/09/22 23:35:00 BASE 12.10 277 15.54 283 -3.4 97 -3.9 0 0 966.4 NA 0.0000 -SN 9999 5250 0 0 0
2019/09/22 23:36:00 BASE 12.84 279 15.54 283 -3.4 96 -3.9 0 0 966.4 NA 0.0000 -SN 9999 5480 0 0 0
2019/09/22 23:37:00 BASE 13.34 280 15.84 272 -3.4 96 -3.9 0 0 966.4 NA 0.0000 -SN 9999 5280 0 0 0
2019/09/22 23:38:00 BASE 13.61 280 15.84 272 -3.4 96 -4.0 0 0 966.4 NA 0.0000 9999 5450 0 0 0
2019/09/22 23:39:00 BASE 13.44 279 17.29 282 -3.4 95 -4.0 0 0 966.4 NA 0.0000 9999 5680 0 0 0
2019/09/22 23:40:00 BASE 13.45 278 17.29 282 -3.4 95 -4.0 0 0 966.4 NA 0.0000 9999 5250 0 0 0
2019/09/22 23:41:00 BASE 13.51 278 17.29 282 -3.3 95 -4.1 0 0 966.4 NA 0.0000 9999 5380 0 0 0
2019/09/22 23:42:00 BASE 12.99 279 17.29 282 -3.3 94 -4.1 0 0 966.5 NA 0.0000 9999 5090 0 0 0
2019/09/22 23:43:00 BASE 11.86 277 17.29 282 -3.3 94 -4.1 0 0 966.5 NA 0.0000 9999 5020 0 0 0
2019/09/22 23:44:00 BASE 12.31 277 17.29 282 -3.3 93 -4.2 0 0 966.5 NA 0.0000 9999 5050 0 0 0
2019/09/22 23:45:00 BASE 13.53 277 17.29 282 -3.3 93 -4.2 0 0 966.5 NA 0.0000 9999 5050 0 0 0
2019/09/22 23:46:00 BASE 13.49 275 17.29 282 -3.3 93 -4.2 0 0 966.5 NA 0.0000 9999 3280 5150 0 0
2019/09/22 23:47:00 BASE 12.46 277 17.29 282 -3.3 93 -4.2 0 0 966.6 NA 0.0000 9999 2230 3610 0 0
2019/09/22 23:48:00 BASE 13.41 279 17.29 282 -3.3 93 -4.3 0 0 966.5 NA 0.0000 -SN 6000 2560 0 0 0
2019/09/22 23:49:00 BASE 13.67 277 16.87 281 -3.3 93 -4.3 0 0 966.6 NA 0.0000 -SN 6000 330 0 0 0
2019/09/22 23:50:00 BASE 12.03 275 16.87 281 -3.3 93 -4.3 0 0 966.6 NA 0.0000 -SN 8000 1800 4920 0 0
2019/09/22 23:51:00 BASE 10.52 279 16.87 281 -3.3 92 -4.3 0 0 966.6 NA 0.0000 -SN BR 9999 1770 4950 0 0
2019/09/22 23:52:00 BASE 10.07 282 16.87 281 -3.3 92 -4.3 0 0 966.6 NA 0.0000 -SN BR 9999 1710 4460 0 0
2019/09/22 23:53:00 BASE 11.56 284 16.87 281 -3.3 92 -4.3 0 0 966.6 NA 0.0000 -SN 9999 4950 0 0 0
2019/09/22 23:54:00 BASE 12.30 287 16.87 281 -3.3 93 -4.3 0 0 966.6 NA 0.0000 -SN 9999 5050 0 0 0
2019/09/22 23:55:00 BASE 12.05 284 16.87 281 -3.3 93 -4.3 0 0 966.6 NA 0.0000 -SN 9999 4950 0 0 0
2019/09/22 23:56:00 BASE 12.05 281 16.87 281 -3.3 93 -4.2 0 0 966.6 NA 0.0000 -SN 9999 1840 4920 0 0
2019/09/22 23:57:00 BASE 11.92 284 16.87 281 -3.3 93 -4.3 0 0 966.6 NA 0.0000 -SN 9999 1740 5020 0 0
2019/09/22 23:58:00 BASE 10.78 285 14.76 270 -3.3 93 -4.3 0 0 966.6 NA 0.0000 -SN 9999 4920 0 0 0
2019/09/22 23:59:00 BASE 10.34 284 14.20 284 -3.3 93 -4.3 0 0 966.6 NA 0.0000 -SN 9999 1940 4860 0 0